[[{"header":{"parameterUnit":"m.s-1","parameterCategory":1,"la1":30.6,"la2":28.766,"lo1":-90.7593,"lo2":-88.6598,"dy":0.0162,"dx":0.0183,"nx":116,"ny":114,"refTime":"2023-09-29T00:00:00:Z","depth":0,"parameterNumber":2,"parameterNumberName":"U-component_of_WINDS"},"data":[0.0,0.0,0.0,0.0,0.0,0.0,0.0,0.0,0.0,0.0,0.0,0.0,0.0,0.0,0.0,0.0,0.0,0.0,0.0,0.0,0.0,0.0,0.0,0.0,0.0,0.0,0.0,0.0,0.0,0.0,0.0,0.0,0.0,0.0,0.0,0.0,0.0,0.0,0.0,0.0,0.0,0.0,0.0,0.0,0.0,0.0,0.0,0.0,0.0,0.0,0.0,0.0,0.0,0.0,0.0,0.0,0.0,0.0,0.0,0.0,0.0,0.0,0.0,0.0,0.0,0.0,0.0,0.0,0.0,0.0,0.0,0.0,0.0,0.0,0.0,0.0,0.0,0.0,0.0,0.0,0.0,0.0,0.0,0.0,0.0,0.0,0.0,0.0,0.0,0.0,0.0,0.0,0.0,0.0,0.0,0.0,0.0,0.0,0.0,0.0,0.0,0.0,0.0,0.0,0.0,0.0,0.0,0.0,0.0,0.0,0.0,0.0,0.0,0.0,0.0,0.0,0.0,0.0,0.0,0.0,0.0,0.0,0.0,0.0,0.0,0.0,0.0,0.0,0.0,0.0,0.0,0.0,0.0,0.0,0.0,0.0,0.0,0.0,0.0,0.0,0.0,0.0,0.0,0.0,0.0,0.0,0.0,0.0,0.0,0.0,0.0,0.0,0.0,0.0,0.0,0.0,0.0,0.0,0.0,0.0,0.0,0.0,0.0,0.0,0.0,0.0,0.0,0.0,0.0,0.0,0.0,0.0,0.0,0.0,0.0,0.0,0.0,0.0,0.0,0.0,0.0,0.0,0.0,0.0,0.0,0.0,0.0,0.0,0.0,0.0,0.0,0.0,0.0,0.0,0.0,0.0,0.0,0.0,0.0,0.0,0.0,0.0,0.0,0.0,0.0,0.0,0.0,0.0,0.0,0.0,0.0,0.0,0.0,0.0,0.0,0.0,0.0,0.0,0.0,0.0,0.0,0.0,0.0,0.0,0.0,0.0,0.0,0.0,0.0,0.0,0.0,0.0,0.0,0.0,0.0,0.0,0.0,0.0,0.0,0.0,0.0,0.0,0.0,0.0,0.0,0.0,0.0,0.0,0.0,0.0,0.0,0.0,0.0,0.0,0.0,0.0,0.0,0.0,0.0,0.0,0.0,0.0,0.0,0.0,0.0,0.0,0.0,0.0,0.0,0.0,0.0,0.0,0.0,0.0,0.0,0.0,0.0,0.0,0.0,0.0,0.0,0.0,0.0,0.0,0.0,0.0,0.0,0.0,0.0,0.0,0.0,0.0,0.0,0.0,0.0,0.0,0.0,0.0,0.0,0.0,0.0,0.0,0.0,0.0,0.0,0.0,0.0,0.0,0.0,0.0,0.0,0.0,0.0,0.0,0.0,0.0,0.0,0.0,0.0,0.0,0.0,0.0,0.0,0.0,0.0,0.0,0.0,0.0,0.0,0.0,0.0,0.0,0.0,0.0,0.0,0.0,0.0,0.0,0.0,0.0,0.0,0.0,0.0,0.0,0.0,0.0,0.0,0.0,0.0,0.0,0.0,0.0,0.0,0.0,0.0,0.0,0.0,0.0,0.0,0.0,0.0,0.0,0.0,0.0,0.0,0.0,0.0,0.0,0.0,0.0,0.0,0.0,0.0,0.0,0.0,0.0,0.0,0.0,0.0,0.0,0.0,0.0,0.0,0.0,0.0,0.0,0.0,0.0,0.0,0.0,0.0,0.0,0.0,0.0,0.0,0.0,0.0,0.0,0.0,0.0,0.0,0.0,0.0,0.0,0.0,0.0,0.0,0.0,0.0,0.0,0.0,0.0,0.0,0.0,0.0,0.0,0.0,0.0,0.0,0.0,0.0,0.0,0.0,0.0,0.0,0.0,0.0,0.0,0.0,0.0,0.0,0.0,0.0,0.0,0.0,0.0,0.0,0.0,0.0,0.0,0.0,0.0,0.0,0.0,0.0,0.0,0.0,0.0,0.0,0.0,0.0,0.0,0.0,0.0,0.0,0.0,0.0,0.0,0.0,0.0,0.0,0.0,0.0,0.0,0.0,0.0,0.0,0.0,0.0,0.0,0.0,0.0,0.0,0.0,0.0,0.0,0.0,0.0,0.0,0.0,0.0,0.0,0.0,0.0,0.0,0.0,0.0,0.0,0.0,0.0,0.0,0.0,0.0,0.0,0.0,0.0,0.0,0.0,0.0,0.0,0.0,0.0,0.0,0.0,0.0,0.0,0.0,0.0,0.0,0.0,0.0,0.0,0.0,0.0,0.0,0.0,0.0,0.0,0.0,0.0,0.0,0.0,0.0,0.0,0.0,0.0,0.0,0.0,0.0,0.0,0.0,0.0,0.0,0.0,0.0,0.0,0.0,0.0,0.0,0.0,0.0,0.0,0.0,0.0,0.0,0.0,0.0,0.0,0.0,0.0,0.0,0.0,0.0,0.0,0.0,0.0,0.0,0.0,0.0,0.0,0.0,0.0,0.0,0.0,0.0,0.0,0.0,0.0,0.0,0.0,0.0,0.0,0.0,0.0,0.0,0.0,0.0,0.0,0.0,0.0,0.0,0.0,0.0,0.0,0.0,0.0,0.0,0.0,0.0,0.0,0.0,0.0,0.0,0.0,0.0,0.0,0.0,0.0,0.0,0.0,0.0,0.0,0.0,0.0,0.0,0.0,0.0,0.0,0.0,0.0,0.0,0.0,0.0,0.0,0.0,0.0,0.0,0.0,0.0,0.0,0.0,0.0,0.0,0.0,0.0,0.0,0.0,0.0,0.0,0.0,0.0,0.0,0.0,0.0,0.0,0.0,0.0,0.0,0.0,0.0,0.0,0.0,0.0,0.0,0.0,0.0,0.0,0.0,0.0,0.0,0.0,0.0,0.0,0.0,0.0,0.0,0.0,0.0,0.0,0.0,0.0,0.0,0.0,0.0,0.0,0.0,0.0,0.0,0.0,0.0,0.0,0.0,0.0,0.0,0.0,0.0,0.0,0.0,0.0,0.0,0.0,0.0,0.0,0.0,0.0,0.0,0.0,0.0,0.0,0.0,0.0,0.0,0.0,0.0,0.0,0.0,0.0,0.0,0.0,0.0,0.0,0.0,0.0,0.0,0.0,0.0,0.0,0.0,0.0,0.0,0.0,0.0,0.0,0.0,0.0,0.0,0.0,0.0,0.0,0.0,0.0,0.0,0.0,0.0,0.0,0.0,0.0,0.0,0.0,0.0,0.0,0.0,0.0,0.0,0.0,0.0,0.0,0.0,0.0,0.0,0.0,0.0,0.0,0.0,0.0,0.0,0.0,0.0,0.0,0.0,0.0,0.0,0.0,0.0,0.0,0.0,0.0,0.0,0.0,0.0,0.0,0.0,0.0,0.0,0.0,0.0,0.0,0.0,0.0,0.0,0.0,0.0,0.0,0.0,0.0,0.0,0.0,0.0,0.0,0.0,0.0,0.0,0.0,0.0,0.0,0.0,0.0,0.0,0.0,0.0,0.0,0.0,0.0,0.0,0.0,0.0,0.0,0.0,0.0,0.0,0.0,0.0,0.0,0.0,0.0,0.0,0.0,0.0,0.0,0.0,0.0,0.0,0.0,0.0,0.0,0.0,0.0,0.0,0.0,0.0,0.0,0.0,0.0,0.0,0.0,0.0,0.0,0.0,0.0,0.0,0.0,0.0,0.0,0.0,0.0,0.0,0.0,0.0,0.0,0.0,0.0,0.0,0.0,0.0,0.0,0.0,0.0,0.0,0.0,0.0,0.0,0.0,0.0,0.0,0.0,0.0,0.0,0.0,0.0,0.0,0.0,0.0,0.0,0.0,0.0,0.0,0.0,0.0,0.0,0.0,0.0,0.0,0.0,0.0,0.0,0.0,0.0,0.0,0.0,0.0,0.0,0.0,0.0,0.0,0.0,0.0,0.0,0.0,0.0,0.0,0.0,0.0,0.0,0.0,0.0,0.0,0.0,0.0,0.0,0.0,0.0,0.0,0.0,0.0,0.0,0.0,0.0,0.0,0.0,0.0,0.0,0.0,0.0,0.0,0.0,0.0,0.0,0.0,0.0,0.0,0.0,0.0,0.0,0.0,0.0,0.0,0.0,0.0,0.0,0.0,0.0,0.0,0.0,0.0,0.0,0.0,0.0,0.0,0.0,0.0,0.0,0.0,0.0,0.0,0.0,0.0,0.0,0.0,0.0,0.0,0.0,0.0,0.0,0.0,0.0,0.0,0.0,0.0,0.0,0.0,0.0,0.0,0.0,0.0,0.0,0.0,0.0,0.0,0.0,0.0,0.0,0.0,0.0,0.0,0.0,0.0,0.0,0.0,0.0,0.0,0.0,0.0,0.0,0.0,0.0,0.0,0.0,0.0,0.0,0.0,0.0,0.0,0.0,0.0,0.0,0.0,0.0,0.0,0.0,0.0,0.0,0.0,0.0,0.0,0.0,0.0,0.0,0.0,0.0,0.0,0.0,0.0,0.0,0.0,0.0,0.0,0.0,0.0,0.0,0.0,0.0,0.0,0.0,0.0,0.0,0.0,0.0,0.0,0.0,0.0,0.0,0.0,0.0,0.0,0.0,0.0,0.0,0.0,0.0,0.0,0.0,0.0,0.0,0.0,0.0,0.0,0.0,0.0,0.0,0.0,0.0,0.0,0.0,0.0,0.0,0.0,0.0,0.0,0.0,0.0,0.0,0.0,0.0,0.0,0.0,0.0,0.0,0.0,0.0,0.0,0.0,0.0,0.0,0.0,0.0,0.0,0.0,0.0,0.0,0.0,0.0,0.0,0.0,0.0,0.0,0.0,0.0,0.0,0.0,0.0,0.0,0.0,0.0,0.0,0.0,0.0,0.0,0.0,0.0,0.0,0.0,0.0,0.0,0.0,0.0,0.0,0.0,0.0,0.0,0.0,0.0,0.0,0.0,0.0,0.0,0.0,0.0,0.0,0.0,0.0,0.0,0.0,0.0,0.0,0.0,0.0,0.0,0.0,0.0,0.0,0.0,0.0,0.0,0.0,0.0,0.0,0.0,0.0,0.0,0.0,0.0,0.0,0.0,0.0,0.0,0.0,0.0,0.0,0.0,0.0,0.0,0.0,0.0,0.0,0.0,0.0,0.0,0.0,0.0,0.0,0.0,0.0,0.0,0.0,0.0,0.0,0.0,0.0,0.0,0.0,0.0,0.0,0.0,0.0,0.0,0.0,0.0,0.0,0.0,0.0,0.0,0.0,0.0,0.0,0.0,0.0,0.0,0.0,0.0,0.0,0.0,0.0,0.0,0.0,0.0,0.0,0.0,0.0,0.0,0.0,0.0,0.0,0.0,0.0,0.0,0.0,0.0,0.0,0.0,0.0,0.0,0.0,0.0,0.0,0.0,0.0,0.0,0.0,0.0,0.0,0.0,0.0,0.0,0.0,0.0,0.0,0.0,0.0,0.0,0.0,0.0,0.0,0.0,0.0,0.0,0.0,0.0,0.0,0.0,0.0,0.0,0.0,0.0,0.0,0.0,0.0,0.0,0.0,0.0,0.0,0.0,0.0,0.0,0.0,0.0,0.0,0.0,0.0,0.0,0.0,0.0,0.0,0.0,0.0,0.0,0.0,0.0,0.0,0.0,0.0,0.0,0.0,0.0,0.0,0.0,0.0,0.0,0.0,0.0,0.0,0.0,0.0,0.0,0.0,0.0,0.0,0.0,0.0,0.0,0.0,0.0,0.0,0.0,0.0,0.0,0.0,0.0,0.0,0.0,0.0,0.0,0.0,0.0,0.0,0.0,0.0,0.0,0.0,0.0,0.0,0.0,0.0,0.0,0.0,0.0,0.0,0.0,0.0,0.0,0.0,0.0,0.0,0.0,0.0,0.0,0.0,0.0,0.0,0.0,0.0,0.0,0.0,0.0,0.0,0.0,0.0,0.0,0.0,0.0,0.0,0.0,0.0,0.0,0.0,0.0,0.0,0.0,0.0,0.0,0.0,0.0,0.0,0.0,0.0,0.0,0.0,0.0,0.0,0.0,0.0,0.0,0.0,0.0,0.0,0.0,0.0,0.0,0.0,0.0,0.0,0.0,0.0,0.0,0.0,0.0,0.0,0.0,0.0,0.0,0.0,-1.8659,0.0,0.0,0.0,0.0,0.0,0.0,0.0,0.0,0.0,0.0,0.0,0.0,0.0,0.0,0.0,0.0,0.0,0.0,0.0,0.0,0.0,0.0,0.0,0.0,0.0,0.0,0.0,0.0,0.0,0.0,0.0,0.0,0.0,0.0,0.0,0.0,0.0,0.0,-1.7001,-1.7001,-1.7001,-1.7001,-1.6645,-1.6386,-1.6224,0.0,0.0,0.0,0.0,0.0,0.0,0.0,0.0,0.0,0.0,0.0,0.0,0.0,0.0,0.0,0.0,0.0,0.0,0.0,0.0,0.0,0.0,0.0,0.0,0.0,0.0,0.0,0.0,0.0,0.0,0.0,0.0,0.0,0.0,0.0,0.0,0.0,0.0,0.0,0.0,0.0,0.0,0.0,0.0,0.0,0.0,0.0,0.0,0.0,0.0,0.0,0.0,0.0,0.0,0.0,0.0,0.0,0.0,0.0,0.0,0.0,0.0,0.0,0.0,0.0,0.0,0.0,0.0,0.0,0.0,0.0,-1.8227,0.0,0.0,0.0,0.0,0.0,0.0,0.0,0.0,0.0,0.0,0.0,0.0,0.0,0.0,0.0,0.0,0.0,0.0,0.0,0.0,0.0,0.0,0.0,-1.827,-1.8752,-1.936,-1.9168,-1.886,-1.8507,0.0,0.0,0.0,0.0,0.0,-1.7001,-1.7066,-1.7066,-1.7001,-1.7001,-1.7001,-1.7001,-1.7001,-1.7001,-1.7001,-1.7001,0.0,0.0,0.0,0.0,0.0,0.0,0.0,0.0,0.0,0.0,0.0,0.0,0.0,0.0,0.0,0.0,0.0,0.0,0.0,0.0,0.0,0.0,0.0,0.0,0.0,0.0,0.0,0.0,0.0,0.0,0.0,0.0,0.0,0.0,0.0,0.0,0.0,0.0,0.0,0.0,0.0,0.0,0.0,0.0,0.0,0.0,0.0,0.0,0.0,0.0,0.0,0.0,0.0,0.0,0.0,0.0,0.0,0.0,0.0,0.0,0.0,0.0,0.0,-2.0081,-1.9622,-1.9141,-1.9073,-1.8643,-1.7973,-1.8407,-1.8328,-1.7829,-1.7933,0.0,0.0,0.0,0.0,0.0,0.0,0.0,0.0,0.0,0.0,0.0,0.0,0.0,0.0,0.0,0.0,0.0,0.0,0.0,-1.7206,-1.7529,-1.7884,-1.827,-1.8699,-1.8699,-1.8507,-1.8098,0.0,0.0,0.0,0.0,-1.7303,-1.7001,-1.7303,-1.7303,-1.7001,-1.7001,-1.7001,-1.7001,-1.7001,-1.7001,-1.7001,-1.7001,-1.7001,-1.7001,0.0,0.0,0.0,0.0,0.0,0.0,0.0,0.0,0.0,0.0,0.0,0.0,0.0,0.0,0.0,0.0,0.0,0.0,0.0,0.0,0.0,0.0,0.0,0.0,0.0,0.0,0.0,0.0,0.0,0.0,0.0,0.0,0.0,0.0,0.0,0.0,0.0,0.0,0.0,0.0,0.0,-2.1149,-2.2353,0.0,0.0,0.0,0.0,0.0,0.0,0.0,0.0,0.0,0.0,0.0,0.0,0.0,-2.1635,-2.0721,-2.0281,-1.9872,-1.9482,-1.9148,-1.8912,-1.8856,-1.8485,-1.8283,-1.8161,-1.7948,0.0,-1.7477,-1.7476,0.0,0.0,0.0,0.0,0.0,0.0,0.0,0.0,0.0,0.0,0.0,0.0,0.0,0.0,0.0,0.0,0.0,0.0,0.0,0.0,0.0,-1.7357,-1.7582,-1.7948,-1.7992,-1.7916,-1.7723,-1.7594,0.0,0.0,-1.713,-1.7141,-1.7001,-1.713,-1.7141,-1.7001,-1.7001,-1.7001,-1.7001,-1.7001,-1.7001,-1.7001,-1.7001,-1.7001,-1.7001,-1.7001,0.0,0.0,0.0,0.0,0.0,0.0,0.0,0.0,0.0,0.0,0.0,0.0,0.0,0.0,0.0,0.0,0.0,0.0,0.0,0.0,0.0,0.0,0.0,0.0,0.0,0.0,0.0,0.0,0.0,0.0,0.0,0.0,0.0,0.0,0.0,0.0,0.0,0.0,0.0,-1.9699,-2.0347,-2.1119,-2.1964,-2.2752,0.0,0.0,0.0,0.0,0.0,0.0,0.0,0.0,0.0,-2.1953,-2.1221,-2.061,-2.0179,-1.9621,-1.9278,-1.9118,-1.874,-1.8502,-1.8404,-1.8211,-1.8066,-1.7891,-1.7756,-1.7658,-1.7583,-1.7723,-1.7755,-1.7689,0.0,0.0,0.0,0.0,-1.7452,-1.7667,0.0,0.0,0.0,0.0,0.0,0.0,0.0,0.0,0.0,0.0,0.0,0.0,-1.7001,-1.7001,-1.7098,-1.7335,-1.7368,-1.7368,-1.7368,-1.7368,-1.7303,-1.713,-1.7195,-1.7227,-1.713,-1.7034,-1.7001,-1.7001,-1.7001,-1.7001,-1.7001,-1.7001,-1.7001,-1.7001,-1.7001,-1.7001,-1.7001,-1.7001,-1.7001,-1.7001,0.0,0.0,0.0,0.0,0.0,0.0,0.0,0.0,0.0,0.0,0.0,0.0,0.0,0.0,0.0,0.0,0.0,0.0,0.0,0.0,0.0,0.0,0.0,0.0,0.0,0.0,0.0,0.0,0.0,0.0,0.0,0.0,0.0,0.0,0.0,0.0,0.0,-1.9369,-1.9595,-2.004,-2.0688,-2.1358,0.0,0.0,0.0,0.0,0.0,0.0,-2.2853,-2.2125,-2.1449,-2.0792,-2.0144,-1.9761,-1.9657,-1.9133,-1.8854,-1.8854,-1.8538,-1.8312,-1.8186,-1.8186,-1.8078,-1.7872,-1.7872,-1.7872,-1.7872,-1.797,-1.7884,-1.7689,-1.7689,-1.7548,-1.731,-1.7128,-1.7145,-1.7252,0.0,0.0,0.0,0.0,0.0,0.0,0.0,0.0,0.0,0.0,0.0,-1.7001,-1.7001,-1.7001,-1.7001,-1.7001,-1.7034,-1.7034,-1.7034,-1.7034,-1.7174,-1.7464,-1.7776,-1.7808,-1.7464,-1.7174,-1.7001,-1.7001,-1.7001,-1.7001,-1.7001,-1.7001,-1.7001,-1.7001,-1.7001,-1.7001,-1.7001,-1.7001,-1.7001,-1.7001,-1.7001,0.0,0.0,0.0,0.0,0.0,0.0,0.0,0.0,0.0,0.0,0.0,0.0,0.0,0.0,0.0,0.0,0.0,0.0,0.0,0.0,0.0,0.0,0.0,0.0,0.0,0.0,0.0,0.0,0.0,0.0,0.0,0.0,0.0,0.0,0.0,0.0,0.0,0.0,-1.9472,-2.0178,0.0,0.0,0.0,0.0,-2.1833,-2.1515,-2.1333,-2.1311,-2.0596,-2.0005,-1.9599,-1.9227,-1.8889,-1.8503,-1.8433,-1.8433,-1.8433,-1.8398,-1.8398,-1.8387,-1.8387,-1.8377,-1.8366,-1.8366,-1.8366,-1.8334,-1.7882,-1.77,-1.7689,-1.7689,-1.752,-1.7206,-1.7195,-1.6722,-1.6079,0.0,0.0,0.0,0.0,0.0,0.0,0.0,0.0,-1.7142,-1.7142,-1.7331,-1.7464,-1.7464,-1.7464,-1.7464,-1.7464,-1.7464,-1.7464,-1.7464,-1.7464,-1.763,-1.7995,-1.7896,-1.7763,-1.763,-1.7497,-1.7464,-1.7464,-1.7464,-1.7464,-1.7464,-1.7464,-1.7464,-1.7464,-1.7464,-1.7464,-1.7443,-1.713,-1.7001,-1.7001,-1.7001,-1.7001,0.0,0.0,0.0,0.0,0.0,0.0,0.0,0.0,0.0,0.0,0.0,0.0,0.0,0.0,0.0,0.0,0.0,0.0,0.0,0.0,0.0,0.0,0.0,0.0,0.0,0.0,0.0,0.0,0.0,0.0,0.0,0.0,0.0,0.0,0.0,0.0,0.0,-1.8773,-1.9262,0.0,-1.9785,-2.0121,-2.0364,-2.0364,-2.0237,-2.0063,-1.9785,-1.9552,-1.9203,-1.8808,-1.8679,-1.8649,-1.8659,-1.8659,-1.8735,-1.886,-1.8735,-1.8659,-1.8649,-1.8473,-1.8398,-1.8398,-1.8398,-1.8293,-1.8061,-1.7624,-1.7503,-1.7504,-1.7059,-1.6694,-1.636,-1.5885,-1.563,-1.5459,0.0,0.0,0.0,0.0,0.0,0.0,0.0,-1.6138,-1.6472,-1.6617,-1.6912,-1.7138,-1.7138,-1.7385,-1.752,-1.752,-1.7621,-1.7689,-1.7689,-1.7689,-1.7857,-1.8261,-1.8026,-1.7857,-1.7857,-1.7756,-1.7689,-1.7689,-1.7689,-1.7689,-1.7689,-1.7689,-1.7689,-1.7689,-1.7689,-1.7689,-1.7667,-1.7378,-1.7249,-1.7249,-1.7249,-1.7249,-1.7249,0.0,0.0,0.0,0.0,0.0,0.0,0.0,0.0,0.0,0.0,0.0,0.0,0.0,0.0,0.0,0.0,0.0,0.0,0.0,0.0,0.0,0.0,0.0,0.0,0.0,0.0,0.0,0.0,0.0,0.0,0.0,0.0,0.0,0.0,-1.8223,-1.8258,-1.8398,-1.8643,-1.8819,-1.8819,-1.9028,-1.9192,-1.9192,-1.9271,-1.9176,-1.8819,-1.8937,-1.8886,-1.8552,-1.8602,-1.871,-1.8907,-1.8907,-1.8957,-1.9107,-1.8946,-1.8907,-1.8896,-1.8517,-1.834,-1.8305,-1.7973,-1.7685,-1.7439,-1.6805,-1.6506,-1.6449,-1.6205,-1.5876,-1.5434,-1.4778,-1.4484,-1.4307,0.0,0.0,0.0,0.0,0.0,0.0,-1.5023,-1.4965,-1.5019,-1.5403,-1.5768,-1.5963,-1.5997,-1.6695,-1.7146,-1.718,-1.7474,-1.7677,-1.771,-1.771,-1.7845,-1.8193,-1.8227,-1.8227,-1.8227,-1.7879,-1.771,-1.771,-1.771,-1.771,-1.771,-1.771,-1.771,-1.771,-1.771,-1.771,-1.771,-1.771,-1.771,-1.771,-1.7689,-1.7689,-1.7689,0.0,0.0,0.0,0.0,0.0,0.0,0.0,0.0,0.0,0.0,0.0,0.0,0.0,0.0,0.0,0.0,0.0,0.0,0.0,0.0,0.0,0.0,0.0,0.0,0.0,0.0,0.0,0.0,0.0,0.0,0.0,0.0,0.0,-1.765,-1.7861,-1.7966,-1.8293,-1.8374,-1.8374,-1.8374,-1.8385,-1.8385,-1.8385,-1.8635,-1.8692,-1.843,-1.886,-1.9,-1.8799,-1.8989,-1.9118,-1.9129,-1.9129,-1.9129,-1.9103,-1.9092,-1.9092,-1.9045,-1.8449,-1.8155,-1.8073,-1.709,-1.6683,-1.6577,-1.5434,-1.4759,-1.451,-1.5212,-1.507,-1.4386,-1.3951,-1.3353,-1.261,0.0,0.0,0.0,0.0,0.0,0.0,-1.3389,-1.388,-1.434,-1.4727,-1.5078,-1.5394,-1.5684,-1.5894,-1.6244,-1.6803,-1.6907,-1.7221,-1.7812,-1.7847,-1.7996,-1.8343,-1.8621,-1.8655,-1.8343,-1.8239,-1.8205,-1.8205,-1.8205,-1.8205,-1.8205,-1.8205,-1.8205,-1.8205,-1.8205,-1.8205,-1.8205,-1.7951,-1.7847,-1.7815,-1.7454,-1.7328,-1.7261,0.0,0.0,0.0,0.0,0.0,0.0,0.0,0.0,0.0,0.0,0.0,0.0,0.0,0.0,0.0,0.0,0.0,0.0,0.0,0.0,0.0,0.0,0.0,0.0,0.0,0.0,0.0,0.0,0.0,0.0,0.0,-1.4677,-1.5133,-1.611,-1.6699,-1.7052,-1.7157,-1.7546,-1.7826,-1.7826,-1.7945,-1.8047,-1.8047,-1.8389,-1.8533,-1.8481,-1.8861,-1.9086,-1.9011,-1.9075,-1.9193,-1.9402,-1.9402,-1.9303,-1.9164,-1.9006,-1.8663,-1.806,-1.7719,-1.7219,-1.6662,-1.6387,-1.5922,-1.5347,-1.4424,-1.3691,-1.3162,-1.3454,-1.3289,-1.2745,-1.2065,-1.1312,-1.0671,0.0,0.0,0.0,0.0,0.0,0.0,-1.2001,-1.2423,-1.2809,-1.3246,-1.3603,-1.3995,-1.4395,-1.4715,-1.5132,-1.5735,-1.6063,-1.6452,-1.6911,-1.7087,-1.7273,-1.7485,-1.7696,-1.7801,-1.7685,-1.7685,-1.7872,-1.8188,-1.8188,-1.8258,-1.8398,-1.8258,-1.8188,-1.8188,-1.7826,-1.7685,-1.765,-1.7334,-1.7087,-1.6891,-1.646,-1.6466,-1.6708,-1.6077,-1.5731,-1.5558,-1.5212,-1.5146,-1.5245,-1.5078,0.0,0.0,0.0,0.0,0.0,0.0,0.0,0.0,0.0,0.0,0.0,0.0,0.0,0.0,0.0,0.0,0.0,0.0,0.0,0.0,0.0,0.0,0.0,0.0,-1.3364,-1.3429,-1.3784,-1.5055,-1.6065,-1.6424,-1.6745,-1.6967,-1.6967,-1.7083,-1.716,-1.716,-1.7458,-1.7652,-1.7756,-1.8148,-1.8356,-1.8265,-1.8448,-1.8601,-1.8734,-1.8787,-1.8785,-1.8646,-1.8303,-1.7901,-1.7436,-1.6759,-1.61,-1.546,-1.5049,-1.4498,-1.3831,-1.3052,-1.227,0.0,0.0,0.0,0.0,0.0,-0.9778,-0.9265,0.0,0.0,0.0,0.0,0.0,0.0,-1.0762,-1.0822,-1.0959,-1.142,-1.1785,-1.2144,-1.2538,-1.3174,-1.3737,-1.4208,-1.4893,-1.5354,-1.5461,-1.586,-1.6072,-1.6072,-1.6072,-1.6214,-1.6487,-1.6558,-1.6946,-1.765,-1.7685,-1.7872,-1.8153,-1.7872,-1.7685,-1.7615,-1.6911,-1.6558,-1.6487,-1.6143,-1.5789,-1.5354,-1.4919,-1.5239,-1.5877,-1.5461,-1.5035,-1.4635,-1.4315,-1.4173,-1.4137,-1.3753,0.0,0.0,0.0,0.0,0.0,0.0,0.0,0.0,0.0,0.0,0.0,0.0,0.0,0.0,0.0,0.0,0.0,0.0,0.0,0.0,0.0,0.0,0.0,0.0,-1.2076,-1.1627,-1.1227,-1.3028,-1.472,-1.5652,-1.5817,-1.5863,-1.5863,-1.5907,-1.5925,-1.5925,-1.6141,-1.6364,-1.661,-1.7048,0.0,0.0,0.0,-1.7562,-1.7562,-1.7671,-1.7724,-1.7685,-1.7177,-1.6853,-1.6727,-1.5616,-1.4781,-1.4234,-1.3371,-1.2735,-1.219,-1.149,-1.0732,-1.0107,-1.0796,-1.064,-0.9928,-0.921,-0.8685,-0.8347,0.0,0.0,0.0,0.0,0.0,0.0,-0.9595,-0.9658,-0.9879,-1.0635,-1.0779,-1.0959,-1.1312,-1.1491,-1.185,-1.2567,-1.3075,-1.371,-1.4635,-1.5026,-1.5248,-1.5248,-1.5248,-1.5239,-1.5345,-1.5638,-1.5886,-1.6028,-1.6355,-1.6567,-1.6603,-1.6567,-1.6355,-1.6028,-1.5886,-1.5638,-1.531,-1.4955,-1.46,-1.4173,-1.3496,-1.3674,-1.4271,-1.3603,-1.3075,-1.2674,-1.2316,-1.2173,-1.2137,-1.2065,-1.2101,-1.2194,-1.2286,-1.2386,0.0,0.0,0.0,0.0,0.0,0.0,0.0,0.0,0.0,0.0,0.0,0.0,0.0,0.0,0.0,0.0,0.0,0.0,0.0,-1.0219,-1.0236,-1.0258,-0.9928,-1.0565,-1.176,-1.3543,-1.4143,-1.4418,-1.4418,-1.4635,-1.4841,-1.488,-1.5314,-1.5758,-1.6116,-1.6529,-1.6743,-1.6708,-1.6778,-1.6814,-1.6814,-1.6858,-1.6687,-1.637,0.0,0.0,-1.4646,-1.4109,-1.3242,-1.2172,-1.1982,-1.1439,-1.0605,-1.0095,-0.9534,-0.9045,-0.9018,-0.8873,-0.8722,-0.8572,-0.8272,-0.7895,0.0,0.0,0.0,0.0,0.0,0.0,-0.8532,-0.8743,-0.9003,-0.9408,-0.9628,-0.9863,-1.0165,-1.0408,-1.0782,-1.1289,-1.1678,-1.2244,-1.2996,-1.321,-1.332,-1.3406,-1.3413,-1.3517,-1.3748,-1.4192,-1.4591,-1.4962,-1.5361,-1.565,-1.5867,-1.565,-1.5325,-1.4926,-1.4555,-1.4156,-1.3712,-1.3392,-1.3028,-1.2627,-1.2269,-1.2086,-1.2022,-1.1949,-1.1678,-1.1325,-1.1145,-1.1098,-1.1111,-1.1181,-1.1207,-1.122,-1.1291,-1.1368,-1.1414,0.0,0.0,0.0,0.0,0.0,0.0,0.0,0.0,0.0,0.0,0.0,0.0,0.0,0.0,-1.0935,-1.0465,0.0,-1.0035,-0.9605,-0.9525,-0.9427,-0.9282,-0.9452,-1.0215,-1.1856,-1.2284,-1.2447,-1.2447,-1.262,-1.2708,-1.2748,-1.3007,-1.3328,-1.3735,-1.3927,-1.4047,-1.4047,-1.4168,-1.4212,-1.4212,-1.4286,-1.4249,-1.4054,-1.353,-1.3091,-1.2647,-1.2132,-1.1452,-1.0654,-1.0654,-1.026,-0.9572,-0.9132,-0.8819,-0.8569,-0.8229,-0.817,-0.8277,-0.8042,-0.7812,-0.7659,0.0,0.0,0.0,0.0,0.0,0.0,-0.7318,-0.7678,-0.8008,-0.8272,-0.8577,-0.8885,-0.916,-0.9556,-0.988,-1.0178,-1.0456,-1.0782,-1.1181,-1.1217,-1.1269,-1.135,-1.1356,-1.1556,-1.1922,-1.2375,-1.2896,-1.3497,-1.3905,-1.4276,-1.4675,-1.435,-1.4016,-1.372,-1.3126,-1.2605,-1.2152,-1.1867,-1.1538,-1.1164,-1.1164,-1.0753,-1.0168,-1.0578,-1.0571,-1.0365,-1.04,-1.0442,-1.046,-1.0567,-1.0603,-1.0571,-1.052,-1.0559,-1.0653,-1.06,-1.0682,0.0,0.0,0.0,0.0,0.0,0.0,0.0,0.0,-0.98,-0.975,-0.9693,-0.9771,-0.9839,-0.976,-0.9512,-0.9325,-0.9325,-0.9002,-0.8769,-0.8792,-0.8792,-0.9162,-1.0235,-1.0561,-1.0649,-1.0649,-1.0671,-1.0688,-1.0688,-1.071,-1.0924,-1.1328,-1.1328,-1.1328,-1.1328,-1.1516,-1.1576,-1.1576,-1.1753,-1.1849,-1.1807,-1.1252,-1.1001,-1.0954,-1.0405,-0.9916,-0.951,-0.941,-0.9116,-0.8752,-0.841,-0.828,-0.8239,-0.792,-0.7949,-0.8094,-0.768,-0.755,-0.755,0.0,0.0,0.0,0.0,0.0,0.0,0.0,0.0,-0.6649,-0.7707,-0.79,-0.8084,-0.8483,-0.8553,-0.8735,-0.9132,-0.9206,-0.9393,-0.9798,-0.9841,-0.9846,-0.9858,-0.9858,-0.9863,-0.9912,-1.0286,-1.0473,-1.0585,-1.0959,-1.1369,-1.1779,-1.1705,-1.1711,-1.1718,-1.1643,-1.1382,-1.0977,-1.094,-1.0715,-1.0341,-1.0341,-1.0116,-0.9779,-0.9826,-0.9815,-0.9777,-0.9794,-0.9799,-0.9799,-0.9816,-0.9822,-0.9763,-0.9482,-0.9371,-0.9364,-0.9123,-0.908,-0.909,-0.909,-0.909,-0.9076,-0.9095,-0.8968,-0.8904,0.0,-0.9063,-0.8945,-0.8634,-0.8581,-0.8509,-0.8146,-0.8033,-0.8001,-0.8001,-0.7961,-0.7949,-0.8032,-0.804,-0.8111,-0.8398,-0.9238,-0.9849,-0.9849,-0.9901,-0.9963,-1.0004,-1.0138,-1.0367,-1.0776,-1.0776,-1.0776,-1.0776,-1.0793,-1.084,-1.084,-1.0851,-1.0862,-1.0862,-1.0429,-1.0216,-1.0216,-0.9706,-0.9244,-0.8781,-0.8325,-0.8082,-0.8036,-0.7913,-0.788,-0.788,-0.7799,-0.7827,-0.7838,-0.7716,-0.7687,-0.7675,0.0,0.0,0.0,0.0,0.0,0.0,0.0,0.0,-0.4979,-0.5714,-0.6214,-0.6661,-0.7033,-0.7666,-0.8196,-0.861,-0.8647,-0.8722,-0.8905,-0.8905,-0.8935,-0.9,-0.9005,-0.9036,-0.9139,-0.9484,-0.9676,-0.9676,-1.0097,-1.0365,-1.055,-1.055,-1.0441,-1.0256,-1.0256,-1.0026,-0.9643,-0.9643,-0.9528,-0.9374,-0.9374,-0.9303,-0.9188,-0.9188,-0.9188,-0.9216,-0.9601,-0.9769,0.0,-0.9583,-0.9528,-0.9461,-0.9084,-0.8988,-0.9007,-0.8899,-0.8872,-0.8915,-0.8915,-0.8714,-0.8537,-0.8598,-0.8388,-0.8194,-0.829,-0.8294,-0.8237,-0.8074,-0.8084,-0.804,-0.7876,-0.7917,-0.7991,-0.7991,-0.7991,-0.7966,-0.8003,-0.8007,-0.8023,-0.8098,-0.8492,-0.8774,-0.8774,-0.8811,-0.8833,-0.8838,-0.8915,-0.9021,-0.9188,-0.9188,-0.9188,-0.9188,-0.9188,-0.9188,-0.9188,-0.9188,-0.9188,-0.9188,-0.9021,-0.8942,-0.8942,-0.8733,-0.8524,-0.8357,-0.8107,-0.8007,-0.8007,-0.7966,-0.7991,-0.7991,-0.7991,-0.7991,-0.7975,-0.7795,-0.7742,-0.7738,0.0,0.0,0.0,0.0,0.0,0.0,0.0,0.0,0.0,0.0,-0.439,-0.4961,-0.5578,-0.6371,-0.7025,-0.7439,-0.7481,-0.7481,-0.7481,-0.7481,-0.7511,-0.7616,-0.762,-0.7692,-0.7916,-0.8189,-0.8462,-0.8696,-0.9007,-0.928,-0.9514,-0.9514,-0.9402,-0.9246,-0.9246,-0.909,-0.8817,-0.8817,-0.8817,-0.8817,-0.8817,-0.8817,-0.8817,-0.8817,-0.8817,-0.8847,-0.9344,-0.9543,-0.9482,-0.9294,-0.9266,-0.9174,-0.8782,-0.8695,-0.8739,-0.8619,-0.8611,-0.8648,-0.8675,-0.8411,-0.8167,-0.8248,-0.8008,-0.7769,-0.7844,-0.7852,-0.7844,-0.7864,-0.7925,-0.797,-0.797,-0.8019,-0.8102,-0.8102,-0.8102,-0.8102,-0.8102,-0.8102,-0.8102,-0.8102,-0.8102,-0.8102,-0.8102,-0.8102,-0.8102,-0.8102,-0.8102,-0.8102,-0.8102,-0.8102,-0.8102,-0.8102,-0.8102,-0.8102,-0.8102,-0.8102,-0.8102,-0.8102,-0.8102,-0.8102,-0.8102,-0.8102,-0.8102,-0.8102,-0.8102,-0.8018,-0.7897,-0.7897,-0.7771,-0.7562,-0.7562,-0.7474,-0.7334,-0.7177,-0.7367,-0.7669,0.0,0.0,0.0,0.0,0.0,0.0,0.0,0.0,0.0,0.0,0.0,-0.3058,-0.4312,-0.4466,-0.4662,-0.5053,-0.5092,-0.5092,-0.5092,-0.5092,-0.5095,-0.5095,-0.5095,-0.5293,-0.5691,-0.5691,-0.6121,-0.6982,-0.6982,-0.7412,-0.8237,-0.8237,-0.8471,-0.8817,-0.8817,-0.8817,-0.8817,-0.8817,-0.8817,-0.8817,-0.8817,-0.8817,-0.8817,-0.8817,-0.8817,-0.8817,-0.8817,-0.8813,-0.8813,-0.8817,-0.885,-0.8851,-0.845,-0.8358,-0.8356,-0.7956,-0.7774,-0.7764,-0.7815,-0.7774,-0.7745,-0.7885,-0.786,-0.784,-0.8057,-0.7991,-0.7954,-0.8077,-0.8098,-0.8098,-0.8098,-0.8102,-0.8102,-0.8102,-0.8102,-0.8102,-0.8102,-0.8102,-0.8102,-0.8102,-0.8102,-0.8102,-0.8102,-0.8102,-0.8102,-0.8102,-0.8102,-0.8102,-0.8102,-0.8102,-0.8102,-0.8102,-0.8102,-0.8102,-0.8102,-0.8102,-0.8102,-0.8102,-0.8102,-0.8102,-0.8102,-0.8102,-0.8102,-0.8102,-0.8102,-0.7855,-0.7436,-0.7436,-0.6933,-0.6179,-0.6179,-0.5882,-0.546,-0.5457,-0.625,-0.7297,0.0,0.0,0.0,0.0,0.0,0.0,0.0,0.0,0.0,0.0,0.0,0.0,0.0,0.0,0.0,0.0,-0.4215,-0.4201,-0.4207,-0.4205,-0.4191,-0.4197,-0.4194,-0.4273,-0.4393,-0.4667,-0.4941,-0.5254,-0.5492,-0.5805,-0.6079,-0.6079,-0.6157,-0.6275,-0.6275,-0.6275,-0.6275,-0.6275,-0.6275,-0.6275,-0.6275,-0.6431,-0.6673,-0.6727,-0.7105,-0.7627,0.0,-0.8185,-0.8814,-0.8606,-0.8567,-0.8513,-0.8112,-0.8018,-0.8065,-0.7999,-0.7991,-0.7975,-0.8008,-0.7909,-0.7872,-0.7991,-0.7954,-0.7921,-0.8077,-0.8081,-0.8027,-0.8098,-0.8102,-0.8102,-0.8102,-0.8102,-0.8102,-0.8102,-0.8102,-0.8102,-0.8102,-0.8102,-0.8102,-0.8102,-0.8102,-0.8127,-0.8146,-0.8139,-0.8102,-0.8102,-0.8102,-0.8102,-0.8102,-0.8102,-0.8102,-0.8102,-0.8102,-0.8102,-0.8102,-0.8102,-0.8102,-0.8102,-0.7771,-0.7352,-0.6762,-0.6762,-0.6595,-0.6298,-0.6298,-0.6218,-0.605,-0.5753,-0.5418,-0.5125,-0.4833,-0.4623,-0.4456,-0.4456,-0.457,-0.4802,0.0,0.0,0.0,0.0,0.0,0.0,0.0,0.0,0.0,0.0,0.0,0.0,0.0,0.0,0.0,0.0,0.0,-0.2389,-0.241,-0.2409,-0.2402,-0.2422,-0.2422,-0.2462,-0.262,-0.3057,-0.3409,-0.3709,-0.4106,-0.4412,-0.4588,-0.4588,-0.4588,-0.4588,-0.4588,-0.4588,-0.4588,-0.4588,-0.4559,-0.4579,-0.4579,-0.471,-0.4971,-0.5168,-0.5586,0.0,-0.635,-0.6915,-0.7641,-0.8029,-0.8184,-0.8165,-0.7726,-0.7411,-0.7248,-0.7368,-0.7247,-0.7107,-0.7341,-0.7293,-0.7293,-0.7748,-0.7774,-0.7787,-0.8048,-0.8102,-0.8102,-0.8102,-0.8131,-0.8151,-0.8151,-0.8151,-0.8067,-0.7903,-0.7875,-0.7729,-0.7432,-0.7375,-0.7309,-0.7141,-0.7166,-0.7202,-0.7213,-0.7213,-0.7438,-0.8116,-0.8158,-0.8158,-0.8158,-0.8031,-0.7904,-0.7904,-0.7608,-0.7438,-0.7438,-0.7269,-0.7184,-0.7184,-0.6717,-0.6166,-0.5611,-0.542,-0.5198,-0.49,-0.4883,-0.4833,-0.4663,-0.4159,-0.378,-0.3446,-0.2984,-0.2732,-0.2564,-0.2564,-0.2396,-0.2354,0.0,0.0,0.0,0.0,0.0,0.0,0.0,0.0,0.0,0.0,0.0,0.0,0.0,0.0,0.0,0.0,0.0,0.0,0.0163,0.0163,0.0163,0.0163,0.0163,0.0,-0.0406,-0.0854,-0.1495,-0.2319,-0.2759,-0.3179,-0.3613,-0.3613,-0.3613,-0.3613,-0.3613,-0.3613,-0.3613,-0.3613,-0.3597,-0.3594,-0.3594,-0.3619,-0.3696,-0.4106,-0.427,-0.4399,-0.4905,-0.5132,-0.5413,-0.7107,-0.7705,-0.7679,-0.7225,-0.6557,-0.5926,-0.599,-0.5591,-0.5267,-0.5825,-0.5921,-0.6053,-0.7038,-0.7269,-0.7394,-0.7851,-0.7976,-0.7976,-0.7976,-0.8049,-0.8114,-0.8114,-0.8118,-0.7994,-0.7525,-0.737,-0.7024,-0.6146,-0.603,-0.5813,-0.5386,-0.5394,-0.5429,-0.5431,-0.5434,-0.6172,-0.7956,-0.8121,-0.8161,-0.8161,-0.7728,-0.7472,-0.7472,-0.6602,-0.6125,-0.6082,-0.5645,-0.5429,-0.5385,-0.4906,-0.4646,-0.46,-0.4079,-0.3802,-0.38,-0.3807,-0.3577,-0.3197,-0.2733,-0.2018,-0.1178,-0.0757,-0.0336,0.0084,0.0084,0.0084,-0.0168,0.0,0.0,0.0,0.0,0.0,0.0,0.0,0.0,0.0,0.0,0.0,0.0,0.0,0.0,0.0,0.0,0.0,0.0,0.0989,0.0989,0.0985,0.0977,0.0976,0.0935,0.0854,0.0447,0.0122,-0.0122,-0.0526,-0.0767,-0.0886,-0.0886,-0.0886,-0.0886,-0.0886,-0.0886,-0.0886,-0.0886,-0.0887,-0.089,-0.089,-0.1094,-0.1383,-0.1887,-0.251,-0.3131,-0.3668,-0.4059,-0.4477,-0.5629,-0.601,-0.5936,-0.5502,-0.5216,-0.4981,-0.4619,-0.4446,-0.4356,-0.4495,-0.4779,-0.5065,-0.5329,-0.567,-0.5924,-0.6047,-0.6092,-0.6176,-0.6553,-0.6613,-0.6751,-0.7088,-0.7181,-0.709,-0.6619,-0.6215,-0.5801,-0.5204,-0.48,-0.4496,-0.4362,-0.4377,-0.4442,-0.4523,-0.4525,-0.476,-0.5288,-0.587,-0.6209,-0.6209,-0.6079,-0.5862,-0.5513,-0.5296,-0.4949,-0.4559,-0.4427,-0.4212,-0.3908,-0.3431,-0.2823,-0.2173,-0.169,-0.1255,-0.0951,-0.0949,-0.0901,-0.0851,-0.0341,-0.0042,0.021,0.0631,0.0883,0.0967,0.0967,0.0967,0.0967,0.0,0.0,0.0,0.0,0.0,0.0,0.0,0.0,0.0,0.0,0.0,0.0,0.0,0.0,0.0,0.0,0.0,0.0,0.0,0.1918,0.1913,0.19,0.19,0.19,0.19,0.1486,0.1277,0.1271,0.0819,0.0613,0.061,0.061,0.061,0.061,0.061,0.061,0.061,0.061,0.0612,0.0,0.0,0.0493,0.0248,-0.0249,-0.0708,-0.1208,-0.1719,-0.2059,-0.2312,-0.2858,-0.3685,-0.4382,-0.3942,-0.3559,-0.3131,-0.2686,-0.2396,-0.227,-0.248,-0.2858,-0.332,-0.3738,-0.4159,-0.4586,-0.4734,-0.4781,-0.4873,-0.511,-0.5375,-0.5634,-0.5934,-0.601,-0.585,-0.5391,-0.4709,-0.4003,-0.3362,-0.2811,-0.2431,-0.2272,-0.224,-0.2295,-0.2354,-0.2355,-0.2361,-0.242,-0.3991,-0.4976,-0.4976,-0.48,-0.4448,-0.3962,-0.3522,-0.295,-0.2246,-0.2246,-0.2115,-0.1895,-0.141,-0.0882,-0.0397,0.0044,0.0438,0.0656,0.0,0.065,0.0646,0.112,0.133,0.1366,0.1792,0.1964,0.1964,0.1964,0.1964,0.2006,0.0,0.0,0.0,0.0,0.0,0.0,0.0,0.0,0.0,0.0,0.0,0.0,0.0,0.0,0.0,0.0,0.0,0.0,0.0,0.0,0.2692,0.2692,0.2692,0.2692,0.2692,0.2314,0.2093,0.2073,0.1701,0.1486,0.1472,0.1472,0.1472,0.1472,0.1472,0.1472,0.1472,0.1472,0.148,0.1494,0.1494,0.1502,0.143,0.0,0.0883,0.0799,0.0336,0.0168,0.0168,0.0168,-0.1169,-0.2779,-0.2387,-0.167,-0.0955,-0.0545,-0.0126,0.0084,-0.0336,-0.0715,-0.122,-0.2059,-0.2606,-0.3035,-0.3408,-0.3459,-0.3469,-0.3551,-0.4028,-0.4456,-0.45,-0.4544,-0.4402,-0.3888,-0.2959,-0.1951,-0.1163,-0.0611,-0.0221,0.0177,0.0179,0.018,0.018,0.018,0.018,0.018,-0.2152,-0.3587,-0.3721,-0.3361,-0.2913,-0.2419,-0.1524,-0.0628,0.018,0.018,0.018,0.018,0.0673,0.0898,0.0897,0.1378,0.1594,0.1593,0.1578,0.1614,0.1612,0.2004,0.2177,0.2217,0.2652,0.2784,0.2784,0.2784,0.2784,0.2784,0.0,0.0,0.0,0.0,0.0,0.0,0.0,0.0,0.0,0.0,0.3155,0.2692,0.0,0.0,0.0,0.0,0.0,0.0,0.0,0.0,0.0,0.2692,0.2692,0.2692,0.2692,0.2608,0.2564,0.2558,0.2517,0.2472,0.2468,0.2468,0.2468,0.2468,0.2468,0.2468,0.2468,0.2468,0.2471,0.2475,0.2475,0.2436,0.2398,0.1934,0.0,0.0,0.1262,0.1093,0.1093,0.1093,0.0336,-0.0503,-0.0042,0.021,0.0419,0.0841,0.1009,0.1051,0.0967,0.0673,0.0294,0.0168,-0.0252,-0.059,-0.0682,-0.0684,-0.0772,-0.1127,-0.1622,-0.212,-0.2516,-0.2648,-0.2476,-0.196,-0.1099,-0.0262,0.0267,0.0753,0.1112,0.1222,0.1172,0.1171,0.1227,0.1173,0.1167,0.1167,0.0673,0.009,-0.0718,-0.0673,-0.0404,0.0045,0.0628,0.0988,0.1167,0.1167,0.1167,0.1167,0.1706,0.193,0.1975,0.242,0.2642,0.2642,0.2637,0.0,0.2556,0.2644,0.2674,0.2695,0.2784,0.2784,0.2784,0.2784,0.2784,0.2784,0.0,0.0,0.0,0.0,0.0,0.0,0.0,0.5521,0.4927,0.4745,0.4162,0.3575,0.3113,0.3071,0.2945,0.0,0.0,0.0,0.0,0.0,0.0,0.2692,0.2692,0.2692,0.2692,0.2692,0.2692,0.2692,0.0,0.2692,0.2692,0.2692,0.2692,0.2692,0.2692,0.2692,0.2692,0.2692,0.2692,0.2692,0.2692,0.2692,0.2692,0.244,0.0,0.0,0.2117,0.2037,0.2039,0.205,0.1798,0.1454,0.1445,0.1395,0.1473,0.1906,0.2029,0.2018,0.2018,0.1724,0.1388,0.1388,0.1009,0.0676,0.0731,0.0733,0.0693,0.0485,0.0044,-0.0356,-0.0623,-0.0665,-0.0619,-0.0356,0.0485,0.1188,0.1423,0.1879,0.2205,0.2215,0.2216,0.2171,0.2217,0.2207,0.216,0.2171,0.2171,0.1761,0.0763,0.0988,0.1257,0.1481,0.193,0.2161,0.2171,0.2171,0.2177,0.2235,0.2508,0.26,0.2645,0.2828,0.2964,0.2964,0.2964,0.2956,0.2898,0.2898,0.2879,0.2852,0.2852,0.2844,0.283,0.283,0.283,0.283,0.0,0.0,0.0,0.0,0.0,0.0,0.0,0.7416,0.6591,0.6163,0.5714,0.5046,0.408,0.3617,0.3197,0.0,0.0,0.0,0.0,0.0,0.0,0.0,0.0,0.0,0.2692,0.0,0.0,0.2692,0.2692,0.0,0.0,0.0,0.0,0.0,0.2692,0.2692,0.2692,0.2692,0.2692,0.0,0.0,0.2692,0.2692,0.0,0.0,0.0,0.0,0.2695,0.27,0.2773,0.2784,0.2736,0.2374,0.2223,0.2248,0.2604,0.2721,0.2701,0.2694,0.244,0.2146,0.2146,0.1892,0.1608,0.1687,0.1696,0.1706,0.1698,0.1347,0.1032,0.1032,0.1024,0.1017,0.1019,0.1726,0.2255,0.2349,0.2653,0.2901,0.2885,0.2897,0.2904,0.2939,0.2887,0.2896,0.2924,0.2926,0.2597,0.1763,0.2124,0.2351,0.2351,0.2712,0.2904,0.2926,0.2926,0.2938,0.3007,0.3007,0.3007,0.3007,0.3007,0.3007,0.3007,0.3007,0.3007,0.3007,0.3007,0.2947,0.2926,0.2926,0.2912,0.2938,0.2938,0.2938,0.2937,0.0,0.0,0.0,0.0,0.0,0.0,0.0,0.9703,0.9186,0.8503,0.806,0.7265,0.5924,0.4332,0.3197,0.0,0.0,0.0,0.0,0.0,0.0,0.0,0.0,0.0,0.0,0.0,0.0,0.2692,0.2692,0.0,0.0,0.0,0.0,0.0,0.0,0.2692,0.2692,0.2692,0.0,0.0,0.0,0.0,0.0,0.0,0.0,0.0,0.0,0.2695,0.27,0.2773,0.2784,0.2788,0.2768,0.2711,0.2727,0.2703,0.2693,0.2685,0.2701,0.265,0.265,0.265,0.2608,0.2582,0.2639,0.2652,0.2669,0.2772,0.238,0.2066,0.2066,0.2003,0.1995,0.2059,0.2446,0.275,0.2821,0.2874,0.2886,0.2909,0.2891,0.2944,0.2995,0.2928,0.2924,0.3002,0.3003,0.2956,0.2861,0.2907,0.2907,0.2907,0.2953,0.3,0.3003,0.3003,0.3004,0.3007,0.3007,0.3007,0.3007,0.3007,0.3007,0.3007,0.3007,0.3007,0.0,0.3007,0.3006,0.3003,0.3003,0.3002,0.2999,0.2999,0.2999,0.2996,0.0,0.0,0.0,0.0,0.0,0.0,1.2113,1.1647,1.101,1.0236,0.9645,0.8683,0.701,0.5966,0.4791,0.3239,0.0,0.0,0.0,0.0,0.0,0.0,0.0,0.0,0.0,0.0,0.2692,0.2692,0.2692,0.0,0.0,0.0,0.0,0.0,0.0,0.2692,0.2692,0.2692,0.0,0.0,0.0,0.0,0.0,0.0,0.0,0.0,0.0,0.0,0.2754,0.2827,0.2883,0.284,0.2852,0.2848,0.2829,0.278,0.2752,0.2688,0.2701,0.2692,0.2692,0.2692,0.2692,0.2709,0.2769,0.2784,0.28,0.2906,0.2739,0.2604,0.2604,0.2582,0.2528,0.2599,0.2714,0.284,0.287,0.2889,0.2897,0.2891,0.2957,0.2974,0.2934,0.2939,0.2956,0.2987,0.3053,0.3063,0.3063,0.3028,0.3007,0.3007,0.3007,0.3017,0.2988,0.2988,0.2998,0.3063,0.3063,0.3063,0.3063,0.3063,0.3063,0.3063,0.3063,0.3063,0.0,0.3063,0.3053,0.2988,0.2988,0.2977,0.3007,0.3007,0.3007,0.3006,0.0,0.0,0.0,0.0,0.0,1.3673,1.3686,1.3324,1.2715,1.1802,1.1193,1.0185,0.839,0.7638,0.6469,0.4332,0.3912,0.0,0.0,0.0,0.0,0.0,0.0,0.0,0.0,0.0,0.2692,0.2692,0.2692,0.2692,0.0,0.0,0.2692,0.2692,0.0,0.0,0.0,0.0,0.0,0.0,0.0,0.0,0.0,0.0,0.0,0.0,0.0,0.0,0.0,0.0,0.0,0.2919,0.2919,0.2919,0.2906,0.2801,0.2769,0.2743,0.2703,0.2692,0.2692,0.2692,0.2699,0.272,0.2772,0.2791,0.2811,0.2908,0.2919,0.2919,0.2919,0.2856,0.2849,0.2871,0.2856,0.2852,0.2882,0.2904,0.2912,0.2946,0.2982,0.3003,0.2943,0.2971,0.3043,0.3018,0.3088,0.31,0.31,0.3058,0.3035,0.3035,0.3035,0.3045,0.302,0.302,0.3031,0.31,0.31,0.31,0.31,0.31,0.31,0.31,0.31,0.31,0.0,0.31,0.3088,0.302,0.302,0.3007,0.3035,0.3035,0.3035,0.3034,0.0,0.0,0.0,0.0,0.0,0.0,1.4618,1.4679,1.4368,1.3234,1.2849,1.2027,1.0278,0.923,0.7935,0.6134,0.5172,0.0,0.0,0.0,0.0,0.0,0.0,0.0,0.0,0.0,0.2692,0.2692,0.2692,0.2692,0.2692,0.2692,0.2692,0.2692,0.0,0.0,0.0,0.0,0.0,0.0,0.0,0.0,0.2692,0.0,0.0,0.0,0.0,0.0,0.0,0.0,0.0,0.0,0.0,0.2919,0.2906,0.2801,0.2782,0.277,0.2709,0.2692,0.2692,0.2692,0.2716,0.2703,0.2776,0.2807,0.2837,0.2868,0.2919,0.2919,0.2919,0.2919,0.2919,0.2919,0.2919,0.2883,0.2912,0.2916,0.2927,0.3003,0.3007,0.302,0.3003,0.3081,0.3099,0.31,0.31,0.31,0.31,0.3099,0.3099,0.3099,0.3099,0.3099,0.31,0.31,0.31,0.31,0.31,0.31,0.31,0.31,0.31,0.31,0.31,0.31,0.0,0.31,0.31,0.31,0.31,0.3099,0.3099,0.3099,0.3099,0.3094,0.0,0.0,0.0,0.0,0.0,0.0,0.0,1.4735,1.4473,1.392,1.339,1.25,1.1142,1.0195,0.8938,0.7101,0.5885,0.0,0.0,0.0,0.0,0.0,0.0,0.0,0.0,0.0,0.2692,0.2692,0.2692,0.2692,0.2692,0.2692,0.2692,0.2692,0.2692,0.2692,0.0,0.0,0.0,0.0,0.0,0.2692,0.2692,0.0,0.0,0.0,0.0,0.0,0.0,0.0,0.0,0.0,0.0,0.0,0.0,0.2826,0.2814,0.2806,0.2766,0.2755,0.2755,0.2755,0.2762,0.2777,0.2807,0.2822,0.2837,0.2868,0.2919,0.2919,0.2919,0.2919,0.2919,0.2919,0.2919,0.2883,0.2912,0.2916,0.2927,0.3004,0.298,0.3005,0.3082,0.3094,0.31,0.31,0.31,0.31,0.31,0.31,0.31,0.31,0.31,0.31,0.31,0.31,0.31,0.31,0.31,0.31,0.31,0.31,0.31,0.31,0.31,0.31,0.31,0.31,0.31,0.31,0.31,0.31,0.31,0.31,0.31,0.3099,0.0,0.0,0.0,0.0,0.0,0.0,0.0,1.4423,1.4271,1.4007,1.3644,1.2982,1.1807,1.0862,0.9611,0.7813,0.6556,0.0,0.0,0.0,0.0,0.0,0.0,0.0,0.2692,0.2692,0.2692,0.2692,0.2692,0.2692,0.2692,0.2692,0.2692,0.2692,0.2692,0.2692,0.0,0.0,0.0,0.0,0.2692,0.2692,0.2692,0.0,0.0,0.0,0.0,0.0,0.0,0.0,0.0,0.0,0.0,0.0,0.0,0.0,0.2845,0.2837,0.2795,0.2784,0.2784,0.2784,0.2792,0.2806,0.2781,0.2837,0.2851,0.287,0.2919,0.2919,0.2919,0.2919,0.2919,0.2919,0.2919,0.2887,0.2927,0.2932,0.2949,0.3038,0.306,0.3031,0.3099,0.31,0.31,0.31,0.31,0.31,0.31,0.31,0.31,0.31,0.31,0.31,0.31,0.31,0.31,0.31,0.31,0.31,0.31,0.31,0.31,0.31,0.31,0.31,0.0,0.31,0.31,0.31,0.3291,0.3386,0.3386,0.3577,0.367,0.367,0.0,0.0,0.0,0.0,0.0,0.0,0.0,1.3825,1.3863,1.3626,1.367,1.3336,1.2245,1.1314,1.0065,0.8353,0.0,0.0,0.0,0.0,0.0,0.0,0.0,0.0,0.2692,0.2692,0.2692,0.2692,0.2692,0.2692,0.2692,0.2692,0.2692,0.2692,0.2692,0.2734,0.0,0.0,0.0,0.0,0.2777,0.2777,0.0,0.0,0.0,0.0,0.0,0.0,0.0,0.0,0.0,0.0,0.0,0.0,0.0,0.0,0.0,0.0,0.0,0.2876,0.2789,0.2789,0.2811,0.2787,0.2787,0.2853,0.0,0.2919,0.2919,0.2964,0.2964,0.2964,0.301,0.3011,0.301,0.3031,0.3094,0.3105,0.3128,0.3141,0.3195,0.3195,0.3195,0.3195,0.3195,0.3195,0.3195,0.3195,0.3195,0.3195,0.3195,0.3195,0.3195,0.3195,0.31,0.31,0.31,0.3148,0.3148,0.3148,0.3195,0.3195,0.3195,0.0,0.3195,0.3195,0.3195,0.3195,0.3195,0.3243,0.372,0.391,0.3958,0.4575,0.4766,0.4766,0.0,0.0,0.0,0.0,0.0,0.0,0.0,0.0,0.0,0.0,1.3274,1.2983,1.2471,1.1718,1.0648,0.0,0.0,0.0,0.0,0.0,0.0,0.0,0.0,0.0,0.2692,0.2692,0.2692,0.2692,0.2692,0.2692,0.2692,0.2692,0.2692,0.2692,0.2692,0.2903,0.0,0.0,0.0,0.0,0.37,0.37,0.0,0.0,0.0,0.0,0.3869,0.3701,0.0,0.0,0.0,0.0,0.0,0.0,0.0,0.0,0.368,0.399,0.3969,0.0,0.2898,0.2898,0.2857,0.2863,0.0,0.2868,0.2919,0.2919,0.3186,0.3456,0.3456,0.3725,0.4005,0.4037,0.4016,0.4033,0.4149,0.4193,0.4079,0.367,0.4006,0.4242,0.4242,0.4242,0.4242,0.4242,0.4242,0.4242,0.4242,0.4242,0.4242,0.4242,0.4242,0.3861,0.31,0.31,0.3291,0.3624,0.3624,0.3863,0.4242,0.4242,0.4242,0.4242,0.4242,0.4242,0.4242,0.4242,0.4242,0.429,0.4768,0.4958,0.5054,0.6,0.6381,0.6428,0.0,0.0,0.0,0.0,0.0,0.0,0.0,0.0,0.0,0.0,0.0,1.2856,1.2542,1.2024,0.0,0.0,0.0,0.0,0.0,0.0,0.0,0.0,0.0,0.2903,0.2692,0.2692,0.2819,0.3029,0.3029,0.3113,0.3279,0.3279,0.3279,0.3279,0.3279,0.3575,0.0,0.0,0.0,0.4915,0.4915,0.0,0.0,0.0,0.0,0.0,0.5115,0.4742,0.0,0.4255,0.3949,0.3547,0.0,0.0,0.0,0.0,0.4753,0.5291,0.5291,0.4442,0.3547,0.3547,0.3547,0.3547,0.3547,0.3547,0.3547,0.3547,0.3904,0.4261,0.4261,0.4843,0.5308,0.5409,0.5394,0.5242,0.4912,0.5114,0.5099,0.453,0.5194,0.5668,0.5668,0.5858,0.6,0.6,0.6,0.6,0.6,0.6,0.6,0.6,0.6,0.5287,0.3813,0.3766,0.4006,0.4482,0.4482,0.4909,0.5668,0.5668,0.5763,0.6,0.6,0.6,0.6,0.6,0.6,0.6048,0.6526,0.6856,0.7138,0.7992,0.8419,0.8656,0.0,0.0,0.0,0.0,0.0,0.0,0.0,0.0,0.0,0.0,0.0,0.0,0.0,0.0,0.0,0.0,0.0,0.0,0.0,0.0,0.0,0.0,0.3785,0.3365,0.2903,0.2903,0.3113,0.3617,0.3617,0.3828,0.4288,0.4288,0.433,0.4414,0.4414,0.4665,0.0,0.0,0.0,0.6421,0.6504,0.0,0.0,0.0,0.0,0.0,0.0,0.0,0.0,0.5449,0.5112,0.4756,0.4756,0.0,0.0,0.0,0.0,0.0,0.7032,0.6141,0.5112,0.4801,0.4756,0.4756,0.4756,0.4756,0.4756,0.4756,0.5112,0.5467,0.5557,0.6326,0.6983,0.7143,0.7131,0.6822,0.5995,0.6249,0.6384,0.5956,0.6761,0.7375,0.747,0.7802,0.8036,0.8036,0.8036,0.8036,0.8036,0.8036,0.8036,0.8036,0.8036,0.7233,0.5525,0.5192,0.5289,0.5765,0.586,0.6381,0.7375,0.7423,0.766,0.8036,0.0,0.0,0.8036,0.8036,0.8036,0.8134,0.866,0.9083,0.9505,1.0124,1.0602,1.0975,0.0,0.0,0.0,0.0,0.0,0.0,0.0,0.0,0.0,0.0,0.0,0.0,0.0,0.0,0.0,0.0,0.0,0.0,0.0,0.0,0.0,0.7425,0.5544,0.429,0.3826,0.3784,0.4036,0.45,0.45,0.4917,0.5709,0.5709,0.5921,0.6298,0.6298,0.655,0.701,0.0,0.0,0.8307,0.8725,0.0,0.0,0.0,0.0,0.0,0.0,0.0,0.0,0.754,0.7163,0.6764,0.6764,0.0,0.0,0.0,0.0,0.0,0.9353,0.9308,0.8725,0.7167,0.6764,0.6764,0.6764,0.6764,0.6764,0.6764,0.7118,0.7565,0.7963,0.8611,0.9191,0.9643,0.9525,0.9146,0.8536,0.8559,0.8609,0.851,0.9083,0.9604,0.9982,1.0124,1.0124,1.0124,1.0124,1.0124,1.0124,1.0124,1.0124,1.0124,1.0124,0.9982,0.9698,0.7992,0.7426,0.7948,0.8324,0.8842,0.9461,0.984,1.0077,1.0124,0.0,1.0124,1.0124,1.0124,1.0124,1.0172,1.0739,1.0975,1.1164,1.212,1.2497,1.2592,0.0,0.0,0.0,0.0,0.0,0.0,0.0,0.0,0.0,0.0,0.0,0.0,0.0,0.0,0.0,0.0,0.0,0.0,0.0,0.0,1.0101,0.9221,0.8177,0.6926,0.5502,0.546,0.567,0.6173,0.6424,0.6843,0.7471,0.7718,0.7972,0.814,0.814,0.8432,0.8892,0.9096,0.9559,1.019,0.0,0.0,0.0,0.0,0.0,0.0,0.0,0.0,0.0,0.0,0.9081,0.8725,0.8725,0.0,0.0,0.0,0.0,0.0,1.1138,1.136,1.136,1.051,0.9487,0.8725,0.8725,0.8725,0.8725,0.8725,0.9169,0.9653,0.9877,1.06,1.1257,1.1556,1.1533,1.1244,1.039,1.0574,1.0649,1.0356,1.1023,1.16,1.1831,1.2114,1.2261,1.2261,1.2261,1.2261,1.2261,1.2261,1.2261,1.2261,1.2261,1.2261,1.2261,1.1358,1.0597,1.003,1.0214,1.0739,1.1553,1.1736,1.202,1.2261,0.0,1.2261,1.2261,1.2261,1.2261,1.2303,1.2544,1.2822,1.3104,1.3864,1.4146,1.4194,0.0,0.0,0.0,0.0,0.0,0.0,0.0,0.0,0.0,0.0,0.0,0.0,0.0,0.0,0.0,0.0,0.0,0.0,0.0,1.1986,1.1397,1.0726,1.0601,0.9559,0.7387,0.7345,0.7554,0.801,0.8386,0.885,0.9356,0.981,1.0018,1.0018,1.0018,1.0226,1.056,1.0684,1.1106,1.1694,0.0,0.0,0.0,0.0,0.0,0.0,0.0,0.0,0.0,0.0,0.0,0.0,0.0,0.0,0.0,1.1355,1.1938,1.2565,1.2654,1.2964,1.323,1.323,1.1938,1.0688,1.0688,1.0688,1.0698,1.0724,1.1114,1.1544,1.1661,1.25,1.318,1.3266,1.328,1.2969,1.2203,1.2356,1.245,1.2156,1.2775,1.3299,1.3446,1.3823,1.4059,1.4059,1.4059,1.4059,1.4059,1.4059,1.4059,1.4059,1.4059,1.4059,1.4059,1.4059,1.3346,1.1925,1.2062,1.2492,1.3252,1.3393,1.3682,1.4059,1.4059,1.4059,1.4059,1.4059,1.4059,1.4059,1.4059,1.4294,1.4664,1.504,1.5181,1.5275,0.0,0.0,0.0,0.0,0.0,0.0,0.0,0.0,0.0,0.0,0.0,0.0,0.0,0.0,0.0,0.0,0.0,0.0,0.0,1.2858,1.2567,1.2526,1.2152,1.1106,0.9226,0.9226,0.9434,0.9893,0.9935,1.0393,1.1237,1.1694,1.1902,1.1902,1.1902,1.1902,1.1986,1.2359,1.2567,1.265,1.3065,0.0,0.0,0.0,0.0,0.0,0.0,0.0,0.0,0.0,0.0,0.0,0.0,0.0,1.2831,1.3274,1.3458,1.3591,1.4033,1.4166,1.421,1.421,1.3458,1.2698,1.2698,1.2698,1.2734,1.2861,1.2942,1.312,1.3691,1.4343,1.4858,1.4999,1.461,1.4281,1.4187,1.3823,1.3729,1.414,1.4234,1.4476,1.4993,1.5087,1.5087,1.5087,1.5087,1.5087,1.5087,1.5087,1.5087,1.5087,1.5087,1.5087,1.5087,1.5087,1.4576,1.3541,1.3958,1.4234,1.4328,1.4805,1.504,1.5087,1.5087,1.5087,1.5087,1.5087,1.5087,1.5087,1.5087,1.5087,1.5134,1.5181,1.5181,1.5275,0.0,0.0,0.0,0.0,0.0,0.0,0.0,0.0,0.0,0.0,0.0,0.0,0.0,0.0,0.0,0.0,0.0,0.0,0.0,1.3231,1.3148,1.3148,1.2982,1.2609,1.1896,1.1356,1.1189,1.1356,1.1605,1.2021,1.265,1.2816,1.2899,1.2899,1.2899,1.2899,1.2899,1.3065,1.3148,1.3155,1.3321,1.3403,0.0,0.0,0.0,0.0,0.0,0.0,0.0,0.0,1.3768,1.3768,1.3768,1.3768,1.3812,1.3989,1.4033,1.4078,1.4255,1.4299,1.4299,1.4299,1.41,1.3872,1.3787,1.3768,1.3807,1.3944,1.4049,1.4231,1.4692,1.4965,1.512,1.5174,1.504,1.4899,1.4899,1.4758,1.4711,1.4899,1.4899,1.4993,1.5181,1.5181,1.5181,1.5181,1.5181,1.5181,1.5181,1.5181,1.5181,1.5181,1.5181,1.5181,1.5181,1.5181,1.4993,1.4623,1.4805,1.4899,1.4899,1.5087,1.5181,1.5181,1.5181,1.5181,1.5181,1.5181,1.5181,1.5181,1.5181,1.5181,1.5181,1.5181,1.5181,1.5321,0.0,0.0,0.0,0.0,0.0,0.0,0.0,0.0,0.0,0.0,0.0,0.0,0.0,0.0,0.0,0.0,0.0,0.0,1.3403,1.3403,1.3403,1.3403,1.3403,1.3403,1.3403,1.2816,1.2526,1.2526,1.2775,1.3106,1.3403,1.3403,1.3403,1.3403,1.3403,1.3403,1.3403,1.3403,1.3403,1.3403,1.3403,1.3403,0.0,0.0,0.0,0.0,0.0,0.0,0.0,0.0,1.4299,1.4299,1.4299,1.4299,1.4299,1.4299,1.4299,1.4299,1.4299,1.4299,1.4312,1.4353,1.4441,1.4502,1.4448,1.4441,1.4482,1.4624,1.4774,1.4943,1.5147,1.5181,1.5181,1.5181,1.5181,1.5181,1.5181,1.5181,1.5181,1.5181,1.5181,1.5181,1.5181,1.5181,1.5181,1.5181,1.5181,1.5181,1.5181,1.5181,1.5181,1.5181,1.5181,1.5181,1.5181,1.5181,1.5181,1.5181,1.5181,1.5181,1.5181,1.5181,1.5181,1.5181,1.5181,1.5181,1.5181,1.5181,1.5181,1.5181,1.5181,1.5181,1.5181,1.5181,1.5181,1.5321,0.0,0.0,0.0,0.0,0.0,0.0,0.0,0.0,0.0,0.0,0.0,0.0,0.0,0.0,0.0,0.0,0.0,0.0,1.3403,1.3403,1.3403,1.3403,1.3403,1.3403,1.3403,1.3403,1.3403,1.3403,1.3403,1.3403,1.3403,1.3403,1.3403,1.3403,1.3403,1.3403,1.3403,1.3403,1.3403,1.3403,1.3403,1.3403,1.3403,0.0,0.0,0.0,0.0,0.0,0.0,0.0,1.4299,1.4299,1.4299,1.4299,1.4299,1.4299,1.4299,1.4299,1.4299,1.4299,1.4333,1.4475,1.4516,1.4557,1.466,1.4694,1.4741,1.4936,1.5132,1.5181,1.5181,1.5181,1.5181,1.5181,1.5181,1.5181,1.5181,1.5181,1.5181,1.5181,1.5181,1.5181,1.5181,1.5181,1.5181,1.5181,1.5181,1.5181,1.5181,1.5181,1.5181,1.5181,1.5181,1.5181,1.5181,1.5181,1.5181,1.5181,1.5181,1.5181,1.5181,1.5181,1.5181,1.5181,1.5181,1.5181,1.5181,1.5181,1.5181,1.5181,1.5181,1.5181,1.5181,1.5181,1.5181,1.5275,0.0,0.0,0.0,0.0,0.0,0.0,0.0,0.0,0.0,0.0,0.0,0.0,0.0,0.0,0.0,0.0,0.0,0.0,1.3403,1.3403,1.3403,1.3403,1.3403,1.3403,1.3403,1.3403,1.3403,1.3403,1.3403,1.3403,1.3403,1.3403,1.3403,1.3403,1.3403,1.3403,1.3403,1.3403,1.3403,1.3403,1.3403,1.3403,0.0,0.0,0.0,0.0,0.0,0.0,0.0,0.0,0.0,0.0,1.4299,1.4299,1.4299,1.4299,1.4299,1.4299,1.4299,1.4299,1.4333,1.4475,1.459,1.4713,1.4869,1.4821,1.4741,1.4936,1.5132,1.5181,1.5181,1.5181,1.5181,1.5181,1.5181,1.5181,1.5181,1.5181,1.5181,1.5181,1.5181,1.5181,1.5181,1.5181,1.5181,1.5181,1.5181,1.5181,1.5181,1.5181,1.5181,1.5181,1.5181,1.5181,1.5181,1.5181,1.5181,1.5181,1.5181,1.5181,1.5181,1.5181,1.5181,1.5181,1.5181,1.5181,1.5181,1.5181,1.5181,1.5181,1.5181,1.5181,1.5181,1.5181,1.5181,1.5321,0.0,0.0,0.0,0.0,0.0,0.0,0.0,0.0,0.0,0.0,1.1583,1.1978,0.0,0.0,0.0,0.0,0.0,0.0,0.0,1.3403,1.3403,1.3403,1.3403,1.3403,1.3403,1.3403,1.3403,1.3403,1.3403,1.3403,1.3403,1.3403,1.3403,1.3403,1.3403,1.3403,1.3403,1.3403,1.3403,1.3403,1.3403,1.3437,1.3498,0.0,0.0,0.0,0.0,0.0,0.0,0.0,0.0,0.0,1.4299,1.4299,1.4299,1.4299,1.4299,1.4299,1.4299,1.4299,1.4346,1.455,1.4626,1.4748,1.5004,1.4984,1.4943,1.5038,1.512,1.5181,1.5181,1.5181,1.5181,1.5181,1.5181,1.5181,1.5181,1.5181,1.5181,1.5181,1.5181,1.5181,1.5181,1.5181,1.5181,1.5181,1.5181,1.5181,1.5181,1.5181,1.5181,1.5181,1.5181,1.5181,1.5181,1.5181,1.5181,1.5181,1.5181,1.5181,1.5181,1.5181,1.5181,1.5181,1.5181,1.5181,1.5181,1.5181,1.5181,1.5181,1.5181,1.5181,1.5228,1.5415,1.5462,1.561,0.0,0.0,0.0,0.0,0.0,0.0,0.0,0.0,0.0,0.0,1.1076,1.1684,0.0,0.0,0.0,0.0,0.0,0.0,0.0,1.3403,1.3403,1.3403,1.3403,1.3403,1.3403,1.3403,1.3403,1.3403,1.3403,1.3403,1.3403,1.3403,1.3403,1.3403,1.3403,1.3403,1.3403,1.3403,1.3403,1.3403,1.3403,1.3492,1.3592,1.3599,0.0,0.0,0.0,0.0,0.0,0.0,0.0,0.0,1.4299,1.4299,1.4299,1.4299,1.4299,1.4299,1.4299,1.4306,1.4387,1.4626,1.4714,1.4848,1.512,1.5181,1.5181,1.5181,1.5181,1.5181,1.5181,1.5181,1.5181,1.5181,1.5181,1.5181,1.5181,1.5181,1.5181,1.5181,1.5181,1.5181,1.5181,1.5181,1.5181,1.5181,1.5181,1.5181,1.5181,1.5181,1.5181,1.5181,1.5181,1.5181,1.5181,1.5181,1.5181,1.5181,1.5181,1.5181,1.5181,1.5181,1.5181,1.5181,1.5181,1.5181,1.5181,1.5181,1.5181,1.5181,1.5228,1.5275,1.5321,1.5798,1.5985,1.6032,0.0,0.0,0.0,0.0,0.0,0.0,0.0,0.0,0.0,0.0,0.0,0.0,0.0,0.0,0.0,0.0,0.0,0.0,0.0,1.3403,1.3403,1.3403,1.3403,1.3403,1.3403,1.3403,1.3403,1.3403,1.3403,1.3403,1.3403,1.3403,1.3403,1.3403,1.3403,1.3403,1.3403,1.3403,1.3403,1.3403,1.3403,1.3492,1.3599,1.3707,1.3912,0.0,0.0,0.0,0.0,0.0,0.0,0.0,1.4299,1.4299,1.4299,1.4299,1.4299,1.4299,1.4299,1.438,1.4509,1.4647,1.4916,1.5106,1.5167,1.5181,1.5181,1.5181,1.5181,1.5181,1.5181,1.5181,1.5181,1.5181,1.5181,1.5181,1.5181,1.5181,1.5181,1.5181,1.5181,1.5181,1.5181,1.5181,1.5181,1.5181,1.5181,1.5181,1.5181,1.5181,1.5181,1.5181,1.5181,1.5181,1.5181,1.5181,1.5181,1.5181,1.5181,1.5181,1.5181,1.5181,1.5181,1.5181,1.5181,1.5181,1.5181,1.5181,1.5181,1.5228,1.561,1.5751,1.5798,1.6353,1.654,1.6587,0.0,0.0,0.0,0.0,0.0,0.0,0.0,0.0,0.0,0.0,0.0,0.0,0.0,0.0,0.0,0.0,0.0,0.0,0.0,0.0,1.3403,1.3403,1.3403,1.3403,1.3403,1.3403,1.3403,1.3403,1.3403,1.3403,1.3403,1.3403,1.3403,1.3403,1.3403,1.3403,1.3403,1.3403,1.3403,1.341,1.3478,1.36,1.3707,1.3892,1.4048,1.419,1.4272,0.0,0.0,0.0,0.0,0.0,0.0,0.0,1.4299,1.4299,1.4299,1.4299,1.4299,1.4407,1.4563,1.4794,1.5018,1.5181,1.5181,1.5181,1.5181,1.5181,1.5181,1.5181,1.5181,1.5181,1.5181,1.5181,1.5181,1.5181,1.5181,1.5181,1.5181,1.5181,1.5181,1.5181,1.5181,1.5181,1.5181,1.5181,1.5181,1.5181,1.5181,1.5181,1.5181,1.5181,1.5181,1.5181,1.5181,1.5181,1.5181,1.5181,1.5181,1.5181,1.5181,1.5181,1.5181,1.5181,1.5181,1.5181,1.5181,1.5181,1.5321,1.5563,1.5798,1.6079,1.6353,1.6868,1.7055,1.7102,0.0,0.0,0.0,0.0,0.0,0.0,0.0,0.0,0.0,0.0,0.0,0.0,0.0,0.0,0.0,0.0,0.0,0.0,0.0,0.0,0.0,1.3403,1.3403,1.3403,1.3403,1.3403,1.3403,1.3403,1.3403,1.3403,1.3403,1.3403,1.3403,1.3403,1.3403,1.3403,1.3403,1.3431,1.3437,1.3451,1.3565,1.3707,1.3849,1.4021,1.4163,1.4299,1.4299,1.4299,1.4299,1.4299,0.0,0.0,0.0,0.0,1.4299,1.4299,1.4299,1.4299,1.4299,1.4421,1.4624,1.493,1.5146,1.5181,1.5181,1.5181,1.5181,1.5181,1.5181,1.5181,1.5181,1.5181,1.5181,1.5181,1.5181,1.5181,1.5181,1.5181,1.5181,1.5181,1.5181,1.5181,1.5181,1.5181,1.5181,1.5181,1.5181,1.5181,1.5181,1.5181,1.5181,1.5181,1.5181,1.5181,1.5181,1.5181,1.5181,1.5181,1.5181,1.5181,1.5181,1.5181,1.5181,1.5181,1.5181,1.5228,1.5321,1.5321,1.561,1.6032,1.6126,1.6447,1.6868,1.7336,1.753,1.7616,0.0,0.0,0.0,0.0,0.0,0.0,0.0,0.0,0.0,0.0,0.9753,0.0,0.0,0.0,0.0,0.0,0.0,0.0,1.3403,0.0,0.0,1.3403,1.3403,1.3403,1.3403,1.3403,1.3403,1.3403,1.3403,1.3403,1.3403,1.3403,1.3403,1.3403,1.3403,1.3403,1.341,1.3504,1.3558,1.3572,1.3714,1.3905,1.4041,1.4105,1.4163,1.4299,1.4299,1.4299,1.4299,1.4299,1.4299,0.0,0.0,0.0,1.4299,1.4299,1.4299,1.4299,1.4299,1.4502,1.4735,1.5079,1.5167,1.5181,1.5181,1.5181,1.5181,1.5181,1.5181,1.5181,1.5181,1.5181,1.5181,1.5181,1.5181,1.5181,1.5181,1.5181,1.5181,1.5181,1.5181,1.5181,1.5181,1.5181,1.5181,1.5181,1.5181,1.5181,1.5181,1.5181,1.5181,1.5181,1.5181,1.5181,1.5181,1.5181,1.5181,1.5181,1.5181,1.5181,1.5181,1.5181,1.5181,1.5181,1.5181,1.5422,1.5798,1.5798,1.6119,1.6634,1.7055,1.725,1.739,1.7896,1.8083,1.8083,0.0,0.0,0.0,0.0,0.0,0.0,0.0,0.0,0.0,0.0,0.0,1.1464,0.0,0.0,0.0,1.3403,1.3403,1.3403,1.3403,1.3403,1.3403,1.3403,1.3403,1.3403,1.3403,1.3403,1.3403,1.3403,1.3485,1.3532,1.3532,1.3607,1.3559,1.3403,1.3403,1.3451,1.3532,1.3558,1.3632,1.372,1.3912,1.4014,1.4125,1.4163,1.4245,0.0,0.0,0.0,0.0,1.4299,1.4299,1.4299,1.4299,0.0,0.0,0.0,1.4299,1.4333,1.4502,1.4593,1.4762,1.5106,1.5181,1.5181,1.5181,1.5181,1.5181,1.5181,1.5181,1.5181,1.5181,1.5181,1.5181,1.5181,1.5181,1.5181,1.5181,1.5181,1.5181,1.5181,1.5181,1.5181,1.5181,1.5181,1.5181,1.5181,1.5181,1.5181,1.5181,1.5181,1.5181,1.5181,1.5181,1.5181,1.5181,1.5181,1.5181,1.5181,1.5181,1.5181,1.5228,1.5462,1.5603,1.5603,1.5603,1.5884,1.6353,1.6353,1.6634,1.7102,1.7343,1.7569,1.7896,1.8129,1.8223,1.8223,0.0,0.0,0.0,0.0,0.0,0.0,0.0,0.0,0.0,0.0,0.0,0.0,0.0,0.0,0.0,0.0,1.3403,1.3403,1.3403,1.3403,1.3403,1.3403,1.3403,1.3417,1.3458,1.3458,1.3478,1.3512,1.3585,1.3639,1.3646,1.3747,1.368,1.3512,1.3512,1.358,1.3646,1.3722,1.3761,1.3869,1.4068,1.4129,1.4143,1.4258,0.0,0.0,0.0,0.0,0.0,0.0,0.0,0.0,1.4299,1.4299,0.0,0.0,0.0,1.4367,1.4613,1.4785,1.4945,1.5153,1.5275,1.5368,1.5228,1.5181,1.5181,1.5181,1.5181,1.5181,1.5181,1.5181,1.5181,1.5181,1.5181,1.5181,1.5181,1.5181,1.5181,1.5181,1.5215,1.5242,1.5242,1.5276,1.5296,1.5296,1.5262,1.5242,1.5242,1.5201,1.5181,1.5181,1.5181,1.5181,1.5181,1.5221,1.5262,1.5296,1.5296,1.5391,1.5532,1.5821,1.6137,1.6372,1.6187,1.64,1.6868,1.6868,1.7149,1.7616,1.7616,1.7849,1.8223,1.8223,1.8223,1.8223,0.0,0.0,0.0,0.0,0.0,0.0,0.0,0.0,0.0,0.0,0.0,0.0,1.3238,1.3403,1.3403,1.3403,1.3403,1.3403,1.3403,1.3403,1.3403,1.3403,1.3403,0.0,1.3572,1.3572,1.3639,1.3774,1.3781,1.3788,1.3788,1.3795,1.3788,1.3774,1.3774,1.3781,1.3795,1.3987,1.4098,1.4119,0.0,0.0,0.0,0.0,0.0,0.0,0.0,0.0,0.0,0.0,0.0,0.0,0.0,0.0,1.4299,0.0,0.0,0.0,1.4613,1.5052,1.5396,1.5246,1.5509,1.5751,1.5275,1.5181,1.5181,1.5181,1.5181,1.5181,1.5181,1.5181,1.5181,1.5181,1.5181,1.5181,1.5181,1.5181,1.5181,1.5181,1.5309,1.5398,1.5398,1.5479,1.5566,1.5566,1.5479,1.5398,1.5398,1.5262,1.5181,1.5181,1.5181,1.5181,1.5181,1.5323,1.5472,1.5566,1.5566,1.5856,1.6325,1.6223,1.6722,1.756,1.6936,1.6915,1.7343,1.7343,1.7663,1.8176,1.8176,1.8176,1.8223,1.8223,1.8223,1.8223,0.0,0.0,0.0,0.0,0.0,0.0,0.0,0.0,0.0,0.0,0.0,0.0,0.0,1.3403,1.3403,1.3403,1.3403,1.3403,1.3403,1.3492,1.3546,1.3546,1.3592,1.3666,1.372,1.372,1.3747,1.3795,1.3939,1.3987,1.3994,1.4089,1.4136,1.4129,1.3883,1.3856,1.3994,1.4048,1.4173,1.4224,0.0,0.0,0.0,0.0,0.0,0.0,0.0,0.0,0.0,0.0,0.0,0.0,0.0,0.0,0.0,1.4299,1.4367,1.452,1.5087,1.5396,1.5707,1.6061,1.6025,1.5845,1.5704,1.5415,1.5181,1.5181,1.5181,1.5181,1.5181,1.5181,1.5181,1.5181,1.5181,1.5215,1.5316,1.533,1.5364,1.5466,1.552,1.5506,1.5506,1.556,1.5593,1.5593,1.5539,1.5506,1.5506,1.5458,1.5479,1.5479,1.5479,1.5479,1.5479,1.5479,1.5539,1.5593,1.5974,1.6215,1.6401,1.7065,1.7562,1.7897,1.7978,1.797,1.7896,1.7896,1.8036,1.8223,1.8223,1.8223,1.8223,1.8223,1.8223,1.8223,0.0,0.0,0.0,0.0,0.0,0.0,0.0,0.0,0.0,1.0529,0.0,0.0,0.0,0.0,1.3424,1.3471,1.3478,1.3498,1.3546,1.3599,1.366,1.366,1.3747,1.3822,1.3919,1.3919,1.3903,1.395,1.4095,1.415,1.415,1.4251,1.4299,1.4292,1.4089,1.4048,1.415,1.415,1.4204,1.4299,0.0,0.0,1.4299,0.0,0.0,0.0,0.0,0.0,0.0,0.0,0.0,0.0,0.0,0.0,0.0,0.0,1.5155,1.5411,1.6113,1.6483,1.6796,1.7103,1.7055,1.6821,1.6501,1.6025,1.565,1.5462,1.5321,1.5181,1.5181,1.5181,1.5181,1.5181,1.5228,1.5296,1.5398,1.5452,1.5479,1.558,1.5683,1.571,1.571,1.5757,1.5791,1.5791,1.5744,1.571,1.571,1.5621,1.5593,1.5593,1.5593,1.5614,1.571,1.571,1.5834,1.6028,1.6412,1.6753,1.7142,1.7769,1.8182,1.8367,1.8608,1.8582,1.8363,1.8363,1.8363,1.8363,1.8363,1.8363,1.8363,1.8363,1.8363,1.8363,0.0,0.0,0.0,0.0,0.0,0.0,0.0,0.0,0.923,1.057,0.0,0.0,0.0,0.0,0.0,1.3578,1.3592,1.3653,1.3788,1.3802,1.3802,1.3802,1.3808,1.3926,1.4119,1.4125,1.415,1.4299,1.4299,1.4299,1.4299,1.4299,1.4299,1.4299,1.4299,1.4299,1.4299,1.4299,1.4299,1.4299,0.0,1.4299,1.4299,0.0,0.0,0.0,1.4312,1.4357,0.0,0.0,0.0,0.0,0.0,0.0,0.0,0.0,0.0,0.0,0.0,0.0,0.0,1.8406,1.8634,1.8727,1.7709,1.7102,1.6587,1.6032,1.5563,1.5228,1.5228,1.5228,1.5228,1.5228,1.5309,1.5411,1.5418,1.5499,1.56,1.56,1.5778,1.5908,1.5908,1.6044,1.6083,1.6083,1.5996,1.5908,1.5908,1.573,1.56,1.56,1.56,1.5716,1.5908,1.5908,1.6229,1.6913,1.6921,1.7459,1.8499,1.8286,1.8509,1.898,1.8809,1.8736,1.8736,1.868,1.868,1.868,1.868,1.868,1.868,1.868,1.868,1.868,0.0,0.0,0.0,0.0,0.0,0.4917,0.6134,0.8265,1.006,0.0,0.0,0.0,1.3511,1.3612,1.3693,1.3734,1.3741,1.3754,1.3795,1.3946,1.4007,1.4007,1.4116,1.419,1.4238,1.4238,1.4258,1.4299,1.4299,1.4299,1.4299,1.4299,1.4299,1.4299,1.4299,1.4299,1.4299,1.4299,1.4299,1.4299,1.4299,1.4299,0.0,0.0,0.0,0.0,0.0,1.5153,0.0,0.0,1.604,1.6587,0.0,0.0,0.0,0.0,0.0,0.0,1.9788,0.0,0.0,0.0,0.0,0.0,1.9694,1.8634,1.7616,1.711,1.6314,1.5845,1.6213,1.5978,1.5845,1.6213,1.5783,1.5452,1.5512,1.5703,1.5832,1.5947,1.5995,1.6015,1.6015,1.6056,1.6083,1.6083,1.6092,1.6015,1.6015,1.5981,1.5961,1.5961,1.5961,1.5981,1.6015,1.6015,1.6333,1.6913,1.7268,1.7863,1.8507,1.8854,1.9085,1.9232,1.9183,1.911,1.9094,1.8834,1.868,1.868,1.868,1.868,1.868,1.868,1.868,1.868,0.0,0.0,0.0,0.0,0.0,0.5642,0.6888,0.8992,1.0824,0.0,0.0,0.0,1.3666,1.3747,1.3822,1.3933,1.3939,1.3966,1.3984,1.4116,1.4163,1.4163,1.4251,1.4299,1.4299,1.4299,1.4299,1.4299,1.4299,1.4299,1.4299,1.4299,1.4299,1.4299,1.4299,1.4299,1.4299,1.4299,1.4299,0.0,1.4299,0.0,0.0,1.4482,1.455,0.0,0.0,0.0,1.5629,1.6438,1.7506,0.0,0.0,0.0,0.0,0.0,0.0,0.0,0.0,0.0,0.0,0.0,0.0,0.0,2.1767,2.0483,1.9192,1.8494,1.7569,1.6868,1.6962,1.6728,1.6548,1.6681,1.6303,1.5984,1.5953,1.591,1.5956,1.6062,1.6083,1.6083,1.6083,1.6083,1.6083,1.6083,1.6083,1.6083,1.6083,1.6083,1.6083,1.6083,1.6083,1.6083,1.6083,1.6083,1.6481,1.7218,1.7573,1.8118,1.8853,1.9157,1.9306,1.9306,1.9306,1.9306,1.9289,1.9037,1.8948,1.8948,1.8948,1.8948,1.8948,1.8948,1.8948,1.8948,0.0,0.0,0.3458,0.3546,0.5021,0.6557,0.7684,0.9734,1.1518,0.0,1.3294,1.3822,1.3822,1.3835,1.3946,1.4132,1.4139,1.4156,1.4292,1.4299,1.4299,1.4299,1.4299,1.4299,1.4299,1.4299,1.4299,1.4299,1.4299,1.4299,1.4299,1.4299,1.4299,1.4299,1.4299,1.4299,1.4299,1.4299,1.4299,1.4299,1.4299,1.4373,0.0,0.0,1.4624,0.0,1.5406,1.5648,1.5876,1.747,1.9256,0.0,0.0,0.0,0.0,0.0,2.4778,0.0,0.0,0.0,0.0,0.0,0.0,0.0,2.3846,2.2514,2.1223,2.0297,1.9285,1.8363,1.7896,1.7663,1.7429,1.7008,1.6949,1.6814,1.6496,1.6168,1.6033,1.6134,1.6105,1.6062,1.6083,1.6083,1.6083,1.6083,1.6083,1.6083,1.6083,1.6083,1.6083,1.6083,1.6083,1.6083,1.6083,1.6083,1.663,1.7722,1.7722,1.8267,1.9306,1.9306,1.9306,1.9306,1.9306,1.9306,1.9306,1.9306,1.9306,1.9306,1.9306,1.9306,1.9306,1.9306,1.9306,1.9306,0.0,0.3113,0.3721,0.4487,0.6126,0.7808,0.9162,1.1009,1.2392,1.2981,1.3644,1.4027,1.4027,1.4136,1.4224,1.4251,1.4258,1.4272,1.4299,1.4299,1.4299,1.4299,1.4299,1.4299,1.4299,1.4299,1.4299,1.4299,1.4299,1.4299,1.4299,1.4299,1.4299,1.4299,1.4299,1.4299,1.4299,1.4299,1.4299,1.4299,1.4299,0.0,1.4367,1.4559,1.4667,1.4858,1.6024,1.6491,1.6817,0.0,2.0936,2.2502,0.0,0.0,0.0,0.0,0.0,0.0,0.0,0.0,0.0,0.0,0.0,0.0,2.5946,2.4887,2.379,2.279,2.149,2.0473,2.0399,1.9425,1.8587,1.8511,1.7788,1.7169,1.6861,1.6496,1.6362,1.6475,1.6195,1.5996,1.6069,1.6083,1.6083,1.6083,1.6083,1.6083,1.6083,1.6083,1.6083,1.6083,1.6083,1.6083,1.6083,1.6083,1.663,1.7722,1.7722,1.8267,1.9306,1.9306,1.9306,1.9306,1.9306,1.9306,1.9306,1.9306,1.9306,1.9306,1.9306,1.9306,1.9306,1.9306,1.9306,1.9306,0.3059,0.3709,0.4491,0.5423,0.7335,0.9168,1.0391,1.192,1.3158,1.367,1.4005,1.4183,1.4183,1.4251,1.4299,1.4299,1.4299,1.4299,0.0,1.4299,1.4299,1.4299,1.4299,1.4299,1.4299,1.4299,1.4299,1.4299,1.4299,1.4299,1.4299,1.4299,1.4299,1.4299,1.4299,1.4299,1.4299,1.4299,1.434,1.4401,1.4592,0.0,1.4792,1.5286,1.5329,1.5335,1.6359,1.7188,1.8121,2.0399,2.2327,0.0,0.0,2.7054,2.8015,0.0,2.8462,2.8507,0.0,0.0,0.0,2.915,0.0,0.0,0.0,2.664,2.5673,2.4944,2.4019,2.3045,2.233,2.1408,2.0445,1.9442,1.865,1.803,1.7593,1.7044,1.6633,1.6501,1.6279,1.6098,1.6003,1.6017,1.6051,1.6076,1.6083,1.6083,1.6083,1.6083,1.6083,1.6083,1.6083,1.6083,1.6083,1.6083,1.663,1.7722,1.7722,1.8267,1.9306,1.9306,1.9306,1.9306,1.9306,1.9306,1.9306,1.9306,1.9306,1.9306,1.9306,1.9306,1.9306,1.9306,1.9306,1.9306,0.3448,0.4405,0.5493,0.646,0.8552,1.0455,1.1511,1.2754,1.3762,1.4241,1.4299,1.4299,1.4299,1.4299,0.0,0.0,1.4299,1.4299,0.0,0.0,1.4299,1.4299,1.4299,1.4299,1.4299,1.4299,1.4299,1.4299,1.4299,1.4299,1.4299,1.4299,1.4299,1.4299,1.4299,1.4299,1.4299,1.4387,1.4514,1.4682,0.0,1.5312,1.5336,1.5992,1.6048,1.5764,1.6341,1.7515,1.9053,2.0955,0.0,2.5001,2.6867,2.8191,0.0,0.0,0.0,0.0,0.0,0.0,0.0,0.0,0.0,2.9227,0.0,0.0,0.0,2.6821,2.631,2.5491,2.4121,2.3352,2.2294,2.0408,1.9535,1.8883,1.8409,1.7648,1.6989,1.6529,1.6407,1.6222,1.5896,1.5888,1.5969,1.6069,1.6083,1.6083,1.6083,1.6083,1.6083,1.6083,1.6083,1.6083,1.6083,1.6083,1.663,1.7722,1.7722,1.8267,1.9306,1.9306,1.9306,1.9306,1.9404,1.9454,1.9454,1.9553,1.9602,1.9553,1.9355,1.9306,1.9306,1.9306,1.9355,1.9454,0.3488,0.4978,0.6536,0.7525,0.9668,1.1538,1.2585,1.3565,1.4234,1.4299,1.4299,1.4299,1.4299,0.0,0.0,0.0,0.0,0.0,1.4299,0.0,0.0,1.4299,1.4299,1.4299,1.4299,1.4299,1.4299,1.4299,1.4299,1.4299,1.4299,1.4299,1.4299,1.4299,1.4299,1.4299,1.4343,1.4734,1.5047,1.5279,1.6151,1.6107,0.0,1.6215,1.6151,1.5718,1.5928,1.6962,1.8502,0.0,2.2192,2.443,0.0,2.7435,0.0,0.0,0.0,0.0,0.0,0.0,0.0,0.0,2.9869,0.0,0.0,0.0,2.8822,2.8339,0.0,2.7139,2.6128,0.0,0.0,2.1879,2.0501,1.9442,1.8883,1.8387,1.7757,1.6934,1.6481,1.6067,1.5649,1.5778,1.5969,1.6069,1.6083,1.6083,1.6083,1.6083,1.6083,1.6083,1.6083,1.6083,1.6083,1.6083,1.663,1.7722,1.7722,1.8267,1.9306,1.9306,1.9306,1.9306,1.975,1.9939,1.9939,2.0432,2.0629,2.053,1.9651,1.9306,1.9306,1.9306,1.9553,1.9939,0.3971,0.5523,0.7262,0.8498,1.0466,1.2204,1.3141,1.3856,1.4299,1.4299,1.4299,1.4299,0.0,0.0,0.0,0.0,0.0,1.4299,0.0,0.0,0.0,0.0,1.4299,0.0,1.4299,1.4299,1.4299,1.4299,1.4299,1.4299,1.4299,1.4299,1.4299,1.4299,1.4299,1.4299,1.435,1.4921,1.5271,1.5512,0.0,1.6651,0.0,1.7049,1.6872,1.6258,1.6004,1.6681,1.7989,0.0,2.1823,0.0,0.0,0.0,0.0,0.0,0.0,0.0,0.0,0.0,0.0,0.0,0.0,0.0,0.0,0.0,2.9554,0.0,0.0,0.0,0.0,0.0,0.0,0.0,2.2156,2.101,1.9898,1.9851,1.9226,1.7389,1.7021,1.67,1.6139,1.5959,1.5969,1.6069,1.6083,1.6083,1.6083,1.6083,1.6083,1.6083,1.6083,1.6083,1.6083,1.6083,1.663,1.7722,1.7722,1.8267,1.9306,1.9602,1.9701,1.975,2.0579,2.0924,2.0973,2.1848,2.1995,2.1701,2.1612,2.0973,2.0185,2.0185,2.0481,2.0924,0.4263,0.0,0.0,0.9264,1.1094,1.2698,1.3635,1.4078,1.4299,1.4299,1.4299,0.0,1.4299,1.4299,0.0,0.0,1.4299,1.4299,0.0,0.0,1.4299,0.0,0.0,0.0,0.0,1.4299,1.4299,1.4299,1.4299,1.4299,1.4299,1.4299,1.4299,1.4299,1.434,1.436,1.4411,1.5189,1.5617,1.586,1.6942,1.7304,1.7202,1.7312,1.7119,1.6701,1.6184,1.6636,1.7852,1.9713,2.1487,0.0,2.5158,0.0,0.0,0.0,0.0,0.0,2.9689,0.0,0.0,0.0,0.0,0.0,0.0,0.0,0.0,0.0,0.0,0.0,0.0,0.0,0.0,0.0,0.0,2.279,2.1592,2.1463,2.0584,1.8129,1.7709,1.7405,1.6788,1.6431,1.6244,1.6256,1.6155,1.6083,1.6083,1.6083,1.6083,1.6083,1.6083,1.6182,1.6331,1.6331,1.6921,1.8111,1.8111,1.8655,1.975,2.0235,2.0432,2.053,2.1701,2.2289,2.2525,2.3609,2.3902,2.3697,2.4087,2.3551,2.2427,2.1701,2.1799,2.2289,0.4218,0.6589,0.0,0.9798,1.1582,1.3186,1.4122,1.4299,1.4299,1.4299,0.0,0.0,0.0,0.0,0.0,0.0,0.0,1.4299,1.4299,0.0,1.4299,0.0,0.0,1.4299,0.0,0.0,1.4299,1.4299,1.4299,1.4299,1.4299,1.4299,1.4299,1.4306,1.4441,1.4502,1.4561,1.5707,1.6286,1.6535,1.7502,1.8081,1.8278,0.0,1.6408,1.6927,1.6397,0.0,0.0,1.9702,2.0887,0.0,0.0,0.0,0.0,0.0,0.0,0.0,0.0,0.0,0.0,2.9913,0.0,0.0,0.0,0.0,2.9913,0.0,0.0,0.0,0.0,0.0,0.0,0.0,0.0,0.0,0.0,2.3158,2.1638,1.9146,1.8447,1.8062,1.767,1.7315,1.695,1.6587,1.6298,1.6083,1.6083,1.6083,1.6083,1.6083,1.6083,1.6325,1.6871,1.6871,1.7657,1.9133,1.9133,1.9733,2.0776,2.1308,2.1554,2.1603,2.317,2.4136,2.466,2.5739,2.6465,2.6829,2.6877,2.6829,2.6491,2.4038,2.3414,2.3951,0.0,0.0,0.0,0.0,0.0,1.2875,1.4122,1.4299,1.4299,0.0,0.0,0.0,0.0,1.4299,1.4299,0.0,0.0,1.4299,1.4299,1.4299,0.0,0.0,0.0,1.4299,0.0,0.0,0.0,0.0,1.4299,1.4299,1.4299,1.4299,1.4346,1.4441,1.4489,1.457,1.4672,1.5508,0.0,0.0,0.0,1.7418,1.7595,0.0,1.7303,1.7915,1.7601,1.8204,0.0,2.0613,2.1744,2.2799,2.4234,2.5252,2.613,2.7385,2.8239,0.0,0.0,0.0,3.0501,3.0501,0.0,0.0,0.0,0.0,0.0,0.0,0.0,0.0,0.0,0.0,0.0,0.0,0.0,0.0,0.0,2.4933,2.4339,2.3825,2.1619,1.9998,1.9638,1.8733,1.7861,1.7111,1.6778,1.6474,1.6133,1.6083,1.6083,1.6083,1.6424,1.6871,1.7417,1.8103,1.9042,2.0275,2.1005,2.1692,2.2436,2.3258,2.3843,2.4233,2.5496,2.632,2.684,2.7923,2.826,2.8104,2.8452,2.8344,2.7863,2.6309,2.6018,2.6647,0.4888,0.0,0.0,0.0,0.0,1.323,1.4166,1.4299,0.0,0.0,1.4299,0.0,1.4299,0.0,1.4299,0.0,1.4299,1.4299,1.4299,1.4299,0.0,1.4299,1.4299,0.0,0.0,0.0,0.0,0.0,0.0,1.4299,1.4299,1.4353,1.4421,1.4516,1.4624,1.4733,1.4835,1.5486,1.5782,0.0,0.0,1.7356,0.0,0.0,1.8113,1.8525,0.0,1.9479,2.0746,2.1944,2.2924,2.3788,2.4857,2.5647,2.638,2.7462,2.8278,2.8929,2.9592,3.0009,0.0,3.0287,3.0208,0.0,3.0261,0.0,0.0,0.0,0.0,0.0,0.0,0.0,0.0,0.0,0.0,0.0,0.0,2.6628,2.6401,2.6776,2.4202,2.2195,2.1646,2.0307,1.9081,1.814,1.7334,1.6821,1.6679,1.6481,1.6573,1.6921,1.7268,1.7912,1.8803,1.9626,2.066,2.1897,2.2808,2.3502,2.4058,2.4865,2.5545,2.6126,2.7201,2.8019,2.868,2.9567,2.9854,2.9746,3.0093,2.9997,2.9554,2.8296,2.8296,2.9028,0.0,0.0,0.0,1.0505,1.2781,0.0,0.0,0.0,1.4299,0.0,1.4306,1.4312,1.4312,1.4319,1.4319,1.4319,1.4319,0.0,1.4319,1.4319,0.0,0.0,1.4319,1.4319,1.4319,0.0,0.0,0.0,0.0,1.4319,1.4326,1.4462,1.4529,1.455,1.4841,1.5023,1.5037,1.5648,1.5866,1.5981,1.7166,1.7816,1.8151,1.8512,1.8632,1.8768,1.9375,2.0687,2.2278,2.352,2.4271,2.4851,2.5622,2.5891,2.618,2.7357,2.7754,2.7988,2.8967,2.9246,2.9246,2.9246,2.9102,0.0,0.0,0.0,2.9021,0.0,0.0,0.0,0.0,0.0,0.0,0.0,0.0,0.0,0.0,0.0,2.7739,2.7739,2.6095,2.4544,2.349,2.1912,2.0592,1.9558,1.7946,1.7261,1.7764,1.7268,1.7509,1.8556,1.8605,1.9339,2.0924,2.1496,2.2515,2.4048,2.4622,2.5157,2.5615,2.6186,2.6718,2.7297,2.826,2.9267,3.0223,3.0713,3.1249,3.1711,3.1711,3.1711,3.1521,3.0045,3.0093,3.0964,0.5873,0.8818,1.1494,0.0,1.3673,1.4299,0.0,0.0,0.0,0.0,1.4394,1.4455,1.4455,1.4557,1.4579,1.4579,1.4579,0.0,0.0,0.0,0.0,1.4579,1.4579,1.4579,1.4579,1.4579,0.0,1.4579,0.0,1.4579,1.4579,1.462,1.474,1.4901,1.4983,1.5078,1.5187,1.5431,1.5671,1.5974,1.6598,1.7028,1.7287,0.0,1.7943,1.8454,2.005,2.1372,2.2594,2.383,2.4634,2.5137,2.5485,2.5867,2.6242,2.6608,2.7208,2.7878,2.8117,2.8498,2.8772,2.8772,2.902,2.9267,0.0,0.0,0.0,0.0,0.0,0.0,0.0,0.0,0.0,0.0,0.0,0.0,0.0,0.0,0.0,2.8294,0.0,2.6276,2.4589,2.3195,2.1877,2.0601,1.9546,1.8947,1.8837,1.8697,1.8936,1.9577,1.998,2.0964,2.2564,2.3882,2.4903,2.569,2.6996,2.7478,2.7212,2.7791,2.8512,2.9363,2.9602,3.0319,3.1284,3.1426,3.1582,3.1711,3.1711,3.1711,3.1664,3.1236,3.1284,3.1487,0.6496,0.0,0.0,1.3808,0.0,0.0,1.4319,1.4353,0.0,1.4394,1.4523,0.0,1.4611,1.464,1.4694,1.4694,1.4694,0.0,1.4694,0.0,0.0,1.4694,1.4694,1.4694,1.4694,1.4694,0.0,1.4694,0.0,1.4694,1.4694,1.4808,1.4889,1.5023,1.5085,1.5147,1.5296,1.5445,1.5642,1.595,1.6398,1.6729,0.0,1.7363,1.7678,1.8105,1.9418,2.0825,2.2164,2.3457,2.4204,2.466,2.4785,2.5022,2.5264,2.5264,2.5642,2.6078,2.6078,2.6513,2.6888,2.6888,2.7397,2.7878,2.8044,2.8368,2.8606,0.0,0.0,0.0,0.0,0.0,0.0,0.0,0.0,0.0,0.0,0.0,0.0,0.0,2.7954,2.7003,2.5602,2.4387,2.324,2.2173,2.1117,2.0547,2.0611,2.0365,2.071,2.1692,2.1995,2.2916,2.4515,2.5836,2.6811,2.7495,2.8452,2.8861,2.8681,2.862,2.9136,3.008,3.008,3.07,3.1711,3.1711,3.1711,3.1711,3.1711,3.1711,3.1711,3.1711,3.1711,3.1711,0.7463,0.0,0.0,0.0,0.0,0.0,0.0,1.4462,0.0,1.4543,0.0,1.4721,1.4721,1.4741,1.4755,1.4755,0.0,1.4755,1.4755,1.4755,1.4755,1.4755,1.4755,1.4755,1.4755,1.4755,0.0,0.0,0.0,1.4755,1.4755,1.4936,1.5044,1.5051,1.5147,1.5309,1.5479,1.5608,1.575,1.5984,1.6377,1.6651,1.6871,1.7318,1.7474,1.7573,1.8111,1.9478,2.1211,2.237,2.3111,2.3482,2.3482,2.3502,2.3532,2.3532,2.3551,2.3571,2.3571,2.3865,2.4256,2.4364,2.4948,2.5576,2.589,2.6242,2.6563,2.6777,2.7223,2.7731,0.0,0.0,0.0,0.0,0.0,0.0,0.0,0.0,0.0,0.0,0.0,0.0,2.6431,2.542,2.4525,2.3761,2.2625,2.2193,2.2681,2.2329,2.2769,2.4194,2.4194,2.4973,2.6476,2.7525,2.8427,2.9128,2.9488,2.9754,2.9869,2.9127,2.9328,3.0223,3.0223,3.0747,3.1711,3.1711,3.1711,3.1711,3.1711,3.1711,3.1711,3.1711,3.1711,3.1711,0.0,0.0,0.0,0.0,0.0,1.4674,1.4626,1.464,1.4654,1.4654,1.4835,1.493,1.493,1.5031,1.5106,1.5106,1.5106,0.0,0.0,0.0,0.0,1.5106,1.5106,1.5106,1.5106,1.5106,1.5106,0.0,0.0,0.0,1.5106,1.5133,1.5147,1.5153,1.5303,1.552,1.5826,1.5854,1.5956,1.6092,1.6141,1.6205,1.6225,1.6331,1.6381,1.6431,1.697,1.8228,1.9683,2.0357,2.0897,2.1339,2.1339,2.1407,2.1492,2.1492,2.16,2.1667,2.1667,2.1717,2.1917,2.2437,2.301,2.353,2.4028,2.477,2.5303,2.5345,2.6026,2.6573,2.6706,0.0,0.0,0.0,0.0,0.0,0.0,0.0,0.0,0.0,0.0,2.7244,2.6911,2.5985,2.5094,2.4337,2.4043,2.4039,2.4282,2.4633,2.5119,2.5836,2.5884,2.6428,0.0,0.0,2.9541,2.9675,3.0558,3.0812,3.0463,3.0028,3.0188,3.0773,3.0773,3.1093,3.1711,3.1711,3.1711,3.1711,3.1711,3.1711,3.1711,3.1711,3.1711,3.1711,0.0,0.0,0.0,0.0,0.0,0.0,0.0,1.5161,1.51,1.4991,1.5106,1.5228,1.5309,1.5377,1.5418,1.5418,1.5418,1.5418,1.5418,1.5418,1.5418,1.5418,1.5418,0.0,1.5418,1.5418,1.5418,1.5418,0.0,0.0,1.5418,1.5337,1.5343,1.5425,1.5574,1.5765,1.5908,1.599,1.6064,1.6083,1.6083,1.6083,1.6083,1.6083,1.6083,1.6139,1.6471,1.7092,1.7841,1.8631,1.9144,1.9408,1.9408,1.9422,1.9495,1.9495,1.9551,1.9608,1.9608,1.981,2.0064,2.0376,2.1025,2.1724,2.1985,2.2556,2.314,2.345,2.4058,2.4776,2.5505,2.6603,0.0,0.0,0.0,0.0,0.0,0.0,0.0,0.0,0.0,0.0,0.0,0.0,2.6416,2.5641,2.5703,2.5812,2.5944,2.6197,2.6573,2.7056,2.7056,0.0,2.8236,0.0,3.0022,3.0221,3.0805,3.1059,3.0947,3.0351,3.0379,3.0916,3.0916,3.1202,3.1711,3.1711,3.1711,3.1711,3.1711,3.1711,3.1711,3.1711,3.1711,3.1711,0.0,1.399,0.0,0.0,1.5479,1.5593,1.5593,1.5593,1.5506,1.5309,1.5384,1.5458,1.558,1.5593,1.5593,1.5593,1.5593,1.5593,1.5593,1.5593,1.5593,1.5593,1.5593,1.5593,1.5593,1.5593,1.5593,0.0,0.0,0.0,1.5587,1.5465,1.554,1.5689,1.5854,1.5922,1.5956,0.0,1.6083,1.6083,1.6083,1.6083,1.6083,1.6083,1.6103,1.6144,1.6266,1.6347,1.6503,1.7365,1.7727,1.7742,1.7742,1.7771,1.78,1.78,1.7822,1.7851,1.7851,1.8151,1.851,1.8663,1.932,1.9975,2.0077,2.0451,2.0934,2.1399,2.197,2.2785,2.4127,2.5096,0.0,0.0,0.0,0.0,0.0,0.0,0.0,0.0,0.0,0.0,2.7925,2.79,2.7615,2.7083,2.7159,2.726,2.726,2.7357,2.7598,2.7935,2.7983,2.8187,2.862,0.0,3.0344,3.0621,3.0968,3.1255,3.1465,3.0734,3.0665,3.1059,3.1059,3.1297,3.1711,3.1711,3.1711,3.1711,3.1711,3.1711,3.1711,3.1711,3.1711,3.1711,0.0,0.0,0.0,0.0,0.0,1.5593,1.5593,1.5593,1.558,1.5553,1.556,1.5573,1.5587,1.5593,1.5593,1.5593,1.5593,1.5593,1.5593,1.5593,1.5593,1.5593,1.5593,1.5593,1.5593,1.5593,1.5593,0.0,0.0,1.558,0.0,1.558,1.5696,1.5881,1.5894,1.5983,0.0,1.6076,1.6083,1.6083,1.6083,1.6083,1.6083,1.6083,1.6171,1.6293,1.6307,1.6483,1.6655,1.6758,1.6728,1.6677,1.6677,1.6721,1.6831,1.6831,1.6985,1.7095,1.7095,1.7147,1.7304,1.7768,1.7977,1.8179,1.8649,1.9099,1.9403,1.9454,2.0137,2.1067,2.2177,2.3102,2.3839,0.0,0.0,0.0,0.0,0.0,0.0,0.0,0.0,0.0,0.0,2.8151,2.8139,2.8068,2.7878,2.7742,2.7742,2.8187,0.0,2.8524,2.8524,2.8572,2.862,2.99,3.0583,3.0621,3.1548,3.1982,3.1995,3.1702,3.1569,3.1629,3.1629,3.1664,3.1711,3.1711,3.1711,3.1711,3.1711,3.1711,3.1711,3.1711,3.1711,3.1711,0.0,0.0,0.0,0.0,0.0,0.0,0.0,1.5906,1.5906,1.5906,1.5825,1.5805,1.5893,1.5906,1.5906,1.5906,1.5906,1.5906,1.5906,1.5906,1.5906,1.5906,1.5906,1.5906,1.5906,1.5906,1.5906,0.0,0.0,0.0,0.0,0.0,0.0,0.0,0.0,1.6071,1.6083,1.6083,1.6083,1.6083,1.6083,1.6083,1.6083,1.6083,1.6123,1.6185,1.6279,1.6388,1.6446,1.6533,1.6693,1.6795,1.6795,1.6842,1.689,1.689,1.6931,1.6978,1.6978,1.6978,1.7031,1.7293,1.7346,1.7398,1.7601,1.7768,1.7979,1.8291,1.9081,1.9828,2.0296,2.1304,2.2328,0.0,0.0,0.0,0.0,0.0,0.0,0.0,0.0,0.0,0.0,0.0,0.0,0.0,0.0,0.0,0.0,0.0,0.0,2.862,0.0,2.8922,2.91,3.0034,3.0629,3.0798,3.1503,3.1837,3.1837,3.1764,3.1711,3.1711,3.1711,3.1711,3.1711,3.1711,3.1711,3.1711,3.1711,3.1711,3.1711,3.1711,3.1711,3.1711,1.5032,0.0,1.5969,0.0,1.6058,1.6083,1.6083,1.6083,1.6083,1.6083,1.6037,1.601,1.6069,1.6083,1.6083,1.6083,1.6083,1.6083,1.6083,1.6083,1.6083,1.6083,1.6083,0.0,1.6083,1.6083,1.6083,1.6083,1.6024,0.0,0.0,0.0,0.0,0.0,1.6083,1.6083,1.6083,1.6083,1.6083,1.6083,1.6083,1.6083,1.6083,1.6083,1.611,1.6164,1.6273,1.6334,1.6388,1.649,1.6666,1.6849,1.6849,1.6876,1.691,1.691,1.6944,1.6978,1.6978,1.6978,1.6978,1.6978,1.6978,1.6978,1.6978,1.6978,1.7083,1.7503,1.809,1.8633,1.8988,2.0081,2.118,2.2093,0.0,0.0,0.0,0.0,0.0,0.0,0.0,2.8825,2.8753,2.8741,0.0,0.0,0.0,0.0,0.0,0.0,0.0,0.0,0.0,0.0,2.9611,3.0219,3.0664,3.1034,3.1479,3.1711,3.1711,3.1711,3.1711,3.1711,3.1711,3.1711,3.1711,3.1711,3.1711,3.1711,3.1711,3.1711,3.1711,3.1711,3.1711,3.1711,1.5877,1.6076,1.6076,1.6076,1.6083,1.6083,1.6083,1.6083,1.6083,1.6083,1.6083,1.6083,1.6083,1.6083,1.6083,1.6083,1.6083,1.6083,1.6083,1.6083,1.6083,0.0,0.0,1.6083,1.6083,1.6083,1.6083,1.6083,0.0,0.0,1.6083,0.0,1.6083,1.6083,1.6083,1.6083,1.6083,1.6083,1.6083,1.6083,1.6083,1.6083,1.6083,1.6083,1.6178,1.6307,1.6307,1.6402,1.6517,1.6524,1.6524,1.6524,1.6524,1.6581,1.6702,1.6702,1.6863,1.6978,1.6978,1.6978,1.6978,1.6978,1.6978,1.6978,1.6978,1.6978,1.6978,1.7031,1.7031,1.7339,1.8432,1.9381,2.0558,2.2208,0.0,0.0,0.0,0.0,0.0,0.0,2.8751,2.9296,2.9031,2.9006,0.0,0.0,0.0,0.0,0.0,0.0,0.0,2.9006,2.926,0.0,3.0169,3.0408,3.0754,3.1272,3.1572,3.1711,3.1711,3.1711,3.1711,3.1711,3.1711,3.1711,3.1711,3.1711,3.1711,3.1711,3.1711,3.1711,3.1711,3.1711,3.1711,3.1711,1.5983,1.6164,1.6239,1.6239,1.632,1.6381,1.6381,1.6381,1.6381,1.6381,1.6381,1.6347,1.6246,1.6144,1.6083,0.0,1.6083,1.6083,0.0,1.6083,1.6083,1.6083,1.6083,1.6083,1.6083,1.6083,1.6083,1.6083,0.0,0.0,0.0,1.6083,1.6083,1.6083,1.6083,1.6083,1.6083,1.6083,1.6083,1.6083,1.6083,1.6083,1.609,1.6198,1.6266,1.632,1.6422,1.6483,1.6524,1.6524,1.6524,1.6524,1.6524,1.6558,1.654,1.654,1.6625,1.6666,1.6666,1.6666,1.6666,1.6666,1.6748,1.6822,1.6822,1.6904,1.6978,1.6978,1.6978,1.7346,1.838,1.9475,2.0888,2.2903,2.4592,0.0,0.0,0.0,0.0,0.0,2.896,2.9369,2.9284,2.9284,0.0,0.0,0.0,0.0,0.0,0.0,0.0,0.0,2.9884,0.0,3.0734,3.1135,3.148,3.1864,3.1763,3.1711,3.1711,3.1711,3.1711,3.1711,3.1711,3.1711,3.1711,3.1711,3.1711,3.1711,3.1711,3.1711,3.1711,3.1711,3.1711,3.1711,1.6195,1.6327,1.6388,1.6388,1.6463,1.6524,1.6524,1.6524,1.6524,1.6524,1.6524,1.649,1.6402,1.63,0.0,1.609,1.6083,1.6083,1.6083,1.6083,1.6083,1.6083,1.6083,1.6083,1.6083,1.6083,0.0,1.6083,1.6083,1.6083,1.6083,1.6083,1.6083,1.6083,1.6144,1.6171,1.6171,1.6225,1.6246,1.6246,1.6246,1.6246,1.6259,1.6354,1.6388,1.6402,1.649,1.6524,1.6524,1.6524,1.6524,1.6524,1.6524,1.6524,1.653,1.654,1.6646,1.6693,1.6693,1.6693,1.6693,1.6693,1.6768,1.6784,1.6784,1.691,1.6978,1.6978,1.7136,1.7653,1.8746,2.0043,2.1648,2.3874,2.5471,2.671,2.7699,0.0,0.0,0.0,0.0,0.0,0.0,2.955,2.955,0.0,0.0,0.0,0.0,0.0,2.9504,2.9713,3.0169,3.0726,3.1274,3.1464,3.1745,3.2104,3.181,3.1711,3.1711,3.1711,3.1711,3.1711,3.1711,3.1711,3.1711,3.1711,3.1711,3.1711,3.1711,3.1711,3.1711,3.1711,3.1711,3.1711,1.6524,1.653,1.6486,1.6486,1.6544,1.6551,1.6551,1.6551,1.6551,1.6551,1.6551,1.6551,1.6537,1.6486,1.6422,1.6137,0.0,0.0,1.611,1.611,1.611,1.611,1.611,1.611,1.611,1.611,1.611,1.611,1.611,1.611,1.611,1.611,1.611,1.6117,1.6259,1.6327,1.6334,1.6463,1.6524,1.6524,1.6524,1.6524,1.6524,1.653,1.6486,1.6537,1.6551,1.6551,1.6551,1.6551,1.6551,1.6551,1.6551,1.6551,1.6527,1.6648,1.6836,1.6951,1.6951,1.6951,1.6951,1.6951,1.6958,1.6971,1.6978,1.6978,1.7031,1.7031,1.7503,1.823,1.9477,2.1033,2.291,2.5121,2.6354,2.744,2.8586,0.0,0.0,0.0,0.0,0.0,2.9851,2.9803,2.9791,0.0,0.0,0.0,0.0,0.0,2.9689,3.0157,3.0267,3.0747,3.1702,3.1477,3.161,3.2064,3.1797,3.1711,3.1711,3.1711,3.1711,3.1711,3.1711,3.1711,3.1711,3.1711,3.1711,3.1711,3.1711,3.1711,3.1711,3.1711,3.1711,3.1711,1.6524,1.6567,1.6642,1.6642,1.6795,1.687,1.687,1.687,1.687,1.687,1.687,1.6829,1.6655,1.6642,1.6567,1.6435,1.6415,1.6415,1.6415,1.6415,1.6415,1.6415,1.6415,1.6415,1.6415,1.6415,1.6415,1.6415,1.6415,1.6415,1.6415,1.6415,1.6415,1.6422,1.6456,1.6469,1.6476,1.651,1.6524,1.6524,1.6524,1.6524,1.653,1.6601,1.6642,1.6662,1.6829,1.687,1.687,1.687,1.687,1.687,1.687,1.687,1.6836,1.6632,1.6598,1.6632,1.6632,1.6632,1.6632,1.6632,1.672,1.6836,1.6951,1.6978,1.7136,1.7556,1.802,1.9007,2.1041,2.2746,2.4544,2.6764,2.8053,2.9033,2.9706,2.9909,0.0,0.0,3.0112,3.0189,3.0117,2.9924,2.9791,0.0,0.0,2.9429,2.9489,2.964,2.9836,3.0206,3.0599,3.1078,3.1702,3.1864,3.1854,3.177,3.1751,3.1711,3.1711,3.1711,3.1711,3.1711,3.1711,3.1711,3.1711,3.1711,3.1711,3.1711,3.1711,3.1711,3.1711,3.1711,3.1711,3.1711,1.6734,1.6795,1.6856,1.6856,1.6924,1.6978,1.6978,1.6978,1.6978,1.6978,1.6978,1.6951,1.6863,1.6856,1.6822,1.6741,1.6605,1.6524,1.6524,1.6524,1.6524,1.6524,1.6524,1.6524,1.6524,1.6524,1.6524,1.6524,1.6524,1.6524,1.6524,1.6524,1.6524,1.6524,1.654,1.6574,1.6581,1.67,1.6734,1.6734,1.6734,1.6734,1.6741,1.6822,1.6856,1.687,1.6951,1.6978,1.6978,1.6978,1.6978,1.6978,1.6978,1.6978,1.6944,1.6781,1.6734,1.6734,1.6734,1.6734,1.6734,1.6734,1.6795,1.6876,1.6965,1.7188,1.7496,1.8073,1.9007,2.026,2.2029,2.3935,2.5728,2.744,2.8677,2.9545,2.9944,3.002,2.9984,2.9864,2.9851,2.9851,2.9851,2.9707,2.9622,2.9622,2.9381,0.0,2.9224,2.9456,2.9819,3.0301,3.0723,3.1179,3.1711,3.184,3.1824,3.1711,3.1711,3.1711,3.1711,3.1711,3.1711,3.1711,3.1711,3.1711,3.1711,3.1711,3.1711,3.1711,3.1711,3.1711,3.1711,3.1711,3.1711,3.1711,1.6978,1.6978,1.6978,1.6978,1.6978,1.6978,1.6978,1.6978,1.6978,1.6978,1.6978,1.6978,1.6978,1.6978,1.6978,1.6978,1.6741,1.6592,1.6592,1.6592,1.6592,1.6592,1.6592,1.6592,1.6592,1.6592,1.6592,1.6592,1.6592,1.6592,1.6592,1.6592,1.6592,1.6598,1.6675,1.6736,1.6743,1.6924,1.6978,1.6978,1.6978,1.6978,1.6978,1.6978,1.6978,1.6978,1.6978,1.6978,1.6978,1.6978,1.6978,1.6978,1.6978,1.6978,1.6978,1.6978,1.6978,1.6978,1.6978,1.6978,1.6978,1.6978,1.6978,1.6978,1.6978,1.7398,1.7968,1.8589,2.0051,2.1613,2.2962,2.4915,2.6713,2.7798,2.8829,2.9611,2.9837,0.0,2.9779,2.955,2.9489,2.9465,2.9465,2.9393,2.9344,2.9344,2.9103,2.8958,2.8958,2.9223,2.9727,3.04,3.0747,3.1154,3.1664,3.1711,3.1711,3.1711,3.1711,3.1711,3.1711,3.1711,3.1711,3.1711,3.1711,3.1711,3.1711,3.1711,3.1711,3.1711,3.1711,3.1711,3.1711,3.1711,3.1711,3.1711,1.6978,1.6978,1.6978,1.6978,1.6978,1.6978,1.6978,1.6978,1.6978,1.6978,1.6978,1.6978,1.6978,1.6978,1.6978,1.6978,1.6937,1.691,1.691,1.691,1.691,1.691,1.691,1.691,1.691,1.691,1.691,1.691,1.691,1.691,1.691,1.691,1.691,1.691,1.6937,1.6944,1.6944,1.6971,1.6978,1.6978,1.6978,1.6978,1.6978,1.6978,1.6978,1.6978,1.6978,1.6978,1.6978,1.6978,1.6978,1.6978,1.6978,1.6978,1.6978,1.6978,1.6978,1.6978,1.6978,1.6978,1.6978,1.6978,1.6978,1.6978,1.6978,1.7398,1.8125,1.9156,2.0677,2.2495,2.4554,2.6303,2.7798,2.8931,2.9643,3.01,3.0103,0.0,3.0129,3.0093,2.9876,2.9731,2.9731,2.9332,2.9079,2.9079,2.8825,2.8632,2.8632,2.9125,2.9627,3.0143,3.0643,3.1154,3.1664,3.1711,3.1711,3.1711,3.1711,3.1711,3.1711,3.1711,3.1711,3.1711,3.1711,3.1711,3.1711,3.1711,3.1711,3.1711,3.1711,3.1711,3.1711,3.1711,3.1711,3.1711,1.6978,1.6978,1.6978,1.6978,1.6978,1.6978,1.6978,1.6978,1.6978,1.6978,1.6978,1.6978,1.6978,1.6978,1.6978,1.6978,1.6978,1.6978,1.6978,1.6978,1.6978,1.6978,1.6978,1.6978,1.6978,1.6978,1.6978,1.6978,1.6978,1.6978,1.6978,1.6978,1.6978,1.6978,1.6978,1.6978,1.6978,1.6978,1.6978,1.6978,1.6978,1.6978,1.6978,1.6978,1.6978,1.6978,1.6978,1.6978,1.6978,1.6978,1.6978,1.6978,1.6978,1.6978,1.6978,1.6978,1.6978,1.6978,1.6978,1.6978,1.6978,1.6978,1.6978,1.6978,1.6978,1.7398,1.823,1.9634,2.1241,2.3108,2.5337,2.7093,2.8473,2.9288,2.9858,0.0,3.0008,2.9984,2.9936,2.9791,2.967,2.9586,2.9586,2.9236,2.9019,2.9019,2.8765,2.862,2.862,2.91,2.9519,2.971,3.076,3.1426,3.1711,3.1711,3.1711,3.1711,3.1711,3.1711,3.1711,3.1711,3.1711,3.1711,3.1711,3.1711,3.1711,3.1711,3.1711,3.1711,3.1711,3.1711,3.1711,3.1711,3.1711,3.1711,1.6978,1.6978,1.6978,1.6978,1.6978,1.6978,1.6978,1.6978,1.6978,1.6978,1.6978,1.6978,1.6978,1.6978,1.6978,1.6978,1.6978,1.6978,1.6978,1.6978,1.6978,1.6978,1.6978,1.6978,1.6978,1.6978,1.6978,1.6978,1.6978,1.6978,1.6978,1.6978,1.6978,1.6978,1.6978,1.6978,1.6978,1.6978,1.6978,1.6978,1.6978,1.6978,1.6978,1.6978,1.6978,1.6978,1.6978,1.6978,1.6978,1.6978,1.6978,1.6978,1.6978,1.6978,1.6978,1.6978,1.6978,1.6978,1.6978,1.6978,1.6978,1.6978,1.6978,1.6978,1.6978,1.7496,1.8439,2.0007,2.1708,2.3667,2.5851,2.7553,2.8841,2.9491,0.0,3.0141,2.9924,2.9888,2.9815,2.961,2.9538,2.9501,2.9501,2.926,2.9103,2.9103,2.8922,2.8801,2.8801,2.9127,2.9354,2.9388,3.076,3.1582,3.1711,3.1711,3.1711,3.1711,3.1711,3.1711,3.1711,3.1711,3.1711,3.1711,3.1711,3.1711,3.1711,3.1711,3.1711,3.1711,3.1711,3.1711,3.1711,3.1711,3.1711,3.1711,1.6978,1.6978,1.6978,1.6978,1.6978,1.6978,1.6978,1.6978,1.6978,1.6978,1.6978,1.6978,1.6978,1.6978,1.6978,1.6978,1.6978,1.6978,1.6978,1.6978,1.6978,1.6978,1.6978,1.6978,1.6978,1.6978,1.6978,1.6978,1.6978,1.6978,1.6978,1.6978,1.6978,1.6978,1.6978,1.6978,1.6978,1.6978,1.6978,1.6978,1.6978,1.6978,1.6978,1.6978,1.6978,1.6978,1.6978,1.6978,1.6978,1.6978,1.6978,1.6978,1.6978,1.6978,1.6978,1.6978,1.6978,1.6978,1.6978,1.6978,1.6978,1.6978,1.6978,1.6978,1.6978,1.7811,1.8903,2.0059,2.2029,2.4203,2.6405,2.7809,2.8943,2.996,0.0,0.0,3.0189,3.0189,3.0177,3.0153,2.9924,2.9767,2.9767,2.9526,2.9381,2.9381,2.9357,2.9344,2.9344,2.9164,2.9164,2.9388,3.0427,3.1202,3.1711,3.1711,3.1711,3.1711,3.1711,3.1711,3.1711,3.1711,3.1711,3.1711,3.1711,3.1711,3.1711,3.1711,3.1711,3.1711,3.1711,3.1711,3.1711,3.1711,3.1711,3.1711,1.6978,1.6978,1.6978,1.6978,1.6978,1.6978,1.6978,1.6978,1.6978,1.6978,1.6978,1.6978,1.6978,1.6978,1.6978,1.6978,1.6978,1.6978,1.6978,1.6978,1.6978,1.6978,1.6978,1.6978,1.6978,1.6978,1.6978,1.6978,1.6978,1.6978,1.6978,1.6978,1.6978,1.6978,1.6978,1.6978,1.6978,1.6978,1.6978,1.6978,1.6978,1.6978,1.6978,1.6978,1.6978,1.6978,1.6978,1.6978,1.6978,1.6978,1.6978,1.6978,1.6978,1.6978,1.6978,1.6978,1.6978,1.6978,1.6978,1.6978,1.6978,1.6978,1.6978,1.7083,1.7398,1.8073,1.9112,2.0989,2.2547,2.4358,2.6928,2.8065,2.8943,3.0011,0.0,3.0214,3.0214,3.0214,3.0214,3.0214,3.0117,3.0057,3.0057,2.9803,2.9646,2.9646,2.9501,2.9405,2.9405,2.9308,2.9457,2.9896,3.011,3.0558,3.1202,3.1521,3.1711,3.1711,3.1711,3.1711,3.1711,3.1711,3.1711,3.1711,3.1711,3.1711,3.1711,3.1711,3.1711,3.1711,3.1711,3.1711,3.1711,3.1711,3.1711,3.1711,1.6978,1.6978,1.6978,1.6978,1.6978,1.6978,1.6978,1.6978,1.6978,1.6978,1.6978,1.6978,1.6978,1.6978,1.6978,1.6978,1.6978,1.6978,1.6978,1.6978,1.6978,1.6978,1.6978,1.6978,1.6978,1.6978,1.6978,1.6978,1.6978,1.6978,1.6978,1.6978,1.6978,1.6978,1.6978,1.6978,1.6978,1.6978,1.6978,1.6978,1.6978,1.6978,1.6978,1.6978,1.6978,1.6978,1.6978,1.6978,1.6978,1.6978,1.6978,1.6978,1.6978,1.6978,1.6978,1.6978,1.6978,1.6978,1.6978,1.6978,1.6978,1.6978,1.7136,1.7398,1.7915,1.8746,1.9991,2.2072,2.3522,2.5121,2.7542,2.8473,2.9147,3.0061,3.0214,3.0214,3.0214,3.0214,3.0214,3.0214,3.0214,3.0214,3.0214,3.0045,2.9924,2.9924,2.9767,2.9622,2.9538,2.9526,2.9638,2.996,2.9922,3.0259,3.0902,3.1294,3.1521,3.1711,3.1711,3.1711,3.1711,3.1711,3.1711,3.1711,3.1711,3.1711,3.1711,3.1711,3.1711,3.1711,3.1711,3.1711,3.1711,3.1711,3.1711,3.1711,1.6978,1.6978,1.6978,1.6978,1.6978,1.6978,1.6978,1.6978,1.6978,1.6978,1.6978,1.6978,1.6978,1.6978,1.6978,1.6978,1.6978,1.6978,1.6978,1.6978,1.6978,1.6978,1.6978,1.6978,1.6978,1.6978,1.6978,1.6978,1.6978,1.6978,1.6978,1.6978,1.6978,1.6978,1.6978,1.6978,1.6978,1.6978,1.6978,1.6978,1.6978,1.6978,1.6978,1.6978,1.6978,1.6978,1.6978,1.6978,1.6978,1.6978,1.6978,1.6978,1.6978,1.6978,1.6978,1.6978,1.6978,1.6978,1.6978,1.6978,1.7031,1.7031,1.7398,1.7968,1.8484,1.9895,2.1613,2.3254,2.4956,2.661,2.8297,2.9022,2.9593,3.0112,3.0214,3.0214,3.0214,3.0214,3.0214,3.0214,3.0214,3.0214,3.0214,3.0214,3.0214,3.0214,3.0214,3.0093,2.9815,2.9803,2.9682,2.9417,2.991,3.0452,3.0992,3.0963,3.1154,3.1724,3.1711,3.1711,3.1711,3.1711,3.1711,3.1711,3.1711,3.1711,3.1711,3.1711,3.1711,3.1711,3.1711,3.1711,3.1711,3.1711,3.1711,3.1711,1.6978,1.6978,1.6978,1.6978,1.6978,1.6978,1.6978,1.6978,1.6978,1.6978,1.6978,1.6978,1.6978,1.6978,1.6978,1.6978,1.6978,1.6978,1.6978,1.6978,1.6978,1.6978,1.6978,1.6978,1.6978,1.6978,1.6978,1.6978,1.6978,1.6978,1.6978,1.6978,1.6978,1.6978,1.6978,1.6978,1.6978,1.6978,1.6978,1.6978,1.6978,1.6978,1.6978,1.6978,1.6978,1.6978,1.6978,1.6978,1.6978,1.6978,1.6978,1.6978,1.6978,1.6978,1.6978,1.6978,1.6978,1.6978,1.6978,1.7293,1.7549,1.7549,1.7968,1.8693,2.0051,2.1353,2.2858,2.4905,2.6046,2.7174,2.8869,2.9288,2.9593,3.0112,3.0214,3.0214,3.0214,3.0214,3.0214,3.0214,3.0214,3.0214,3.0214,3.0214,3.0214,3.0214,3.0214,3.0177,3.0093,3.0093,3.0057,2.9972,3.0291,3.0739,3.1285,3.1212,3.1443,3.1971,3.177,3.1711,3.1711,3.1711,3.1711,3.1711,3.1711,3.1711,3.1711,3.1711,3.1711,3.1711,3.1711,3.1711,3.1711,3.1711,3.1711,3.1711,1.6978,1.6978,1.6978,1.6978,1.6978,1.6978,1.6978,1.6978,1.6978,1.6978,1.6978,1.6978,1.6978,1.6978,1.6978,1.6978,1.6978,1.6978,1.6978,1.6978,1.6978,1.6978,1.6978,1.6978,1.6978,1.6978,1.6978,1.6978,1.6978,1.6978,1.6978,1.6978,1.6978,1.6978,1.6978,1.6978,1.6978,1.6978,1.6978,1.6978,1.6978,1.6978,1.6978,1.6978,1.6978,1.6978,1.6978,1.6978,1.6978,1.6978,1.6978,1.6978,1.6978,1.6978,1.6978,1.6978,1.7136,1.7346,1.7601,1.8177,1.8903,1.9373,1.9529,2.0103,2.1968,2.3315,2.4657,2.6662,2.7542,2.8257,2.9491,2.9694,2.9796,3.0163,3.0214,3.0214,3.0214,3.0214,3.0214,3.0214,3.0214,3.0214,3.0214,3.0214,3.0214,3.0214,3.0214,3.0214,3.0214,3.0214,3.0315,3.0518,3.0661,3.1114,3.1865,3.1711,3.1864,3.2278,3.1984,3.1837,3.1837,3.1764,3.1711,3.1711,3.1711,3.1711,3.1711,3.1711,3.1711,3.1711,3.1711,3.1711,3.1711,3.1711,3.1711,3.1711,1.6978,1.6978,1.6978,1.6978,1.6978,1.6978,1.6978,1.6978,1.6978,1.6978,1.6978,1.6978,1.6978,1.6978,1.6978,1.6978,1.6978,1.6978,1.6978,1.6978,1.6978,1.6978,1.6978,1.6978,1.6978,1.6978,1.6978,1.6978,1.6978,1.6978,1.6978,1.6978,1.6978,1.6978,1.6978,1.6978,1.6978,1.6978,1.6978,1.6978,1.6978,1.6978,1.6978,1.6978,1.6978,1.6978,1.6978,1.6978,1.6978,1.6978,1.6978,1.6978,1.6978,1.6978,1.7031,1.7083,1.7451,1.802,1.8589,1.9574,2.0772,2.1977,2.1925,2.2072,2.408,2.5419,2.6713,2.8359,2.9072,2.9542,3.0112,3.0214,3.0214,3.0214,3.0214,3.0214,3.0214,3.0214,3.0214,3.0214,3.0214,3.0214,3.0214,3.0214,3.0214,3.0214,3.0214,3.0214,3.0214,3.0214,3.0416,3.091,3.1012,3.1517,3.2511,3.2351,3.2422,3.2634,3.2278,3.2131,3.2091,3.1824,3.1738,3.1711,3.1711,3.1711,3.1711,3.1711,3.1711,3.1711,3.1711,3.1711,3.1711,3.1711,3.1711,3.1711,1.6978,1.6978,1.6978,1.6978,1.6978,1.6978,1.6978,1.6978,1.6978,1.6978,1.6978,1.6978,1.6978,1.6978,1.6978,1.6978,1.6978,1.6978,1.6978,1.6978,1.6978,1.6978,1.6978,1.6978,1.6978,1.6978,1.6978,1.6978,1.6978,1.6978,1.6978,1.6978,1.6978,1.6978,1.6978,1.6978,1.6978,1.6978,1.6978,1.6978,1.6978,1.6978,1.6978,1.6978,1.6978,1.6978,1.6978,1.6978,1.6978,1.6978,1.6978,1.6978,1.6978,1.6978,1.7083,1.7496,1.802,1.8641,1.9678,2.0772,2.2123,2.409,2.4812,2.5121,2.5635,2.6559,2.7696,2.8971,2.9338,2.9542,3.0112,3.0214,3.0214,3.0214,3.0214,3.0214,3.0214,3.0214,3.0214,3.0214,3.0214,3.0214,3.0214,3.0214,3.0214,3.0214,3.0214,3.0214,3.0214,3.0214,3.0264,3.0366,3.1163,3.1769,3.197,3.2747,3.3074,3.2929,3.2634,3.2332,3.2104,3.2038,3.1891,3.1711,3.1711,3.1711,3.1711,3.1711,3.1711,3.1711,3.1711,3.1711,3.1711,3.1711,3.1711,3.1711,1.6978,1.6978,1.6978,1.6978,1.6978,1.6978,1.6978,1.6978,1.6978,1.6978,1.6978,1.6978,1.6978,1.6978,1.6978,1.6978,1.6978,1.6978,1.6978,1.6978,1.6978,1.6978,1.6978,1.6978,1.6978,1.6978,1.6978,1.6978,1.6978,1.6978,1.6978,1.6978,1.6978,1.6978,1.6978,1.6978,1.6978,1.6978,1.6978,1.6978,1.6978,1.6978,1.6978,1.6978,1.6978,1.6978,1.6978,1.6978,1.6978,1.6978,1.6978,1.6978,1.6978,1.7188,1.7556,1.838,1.9164,2.0148,2.1803,2.3099,2.4348,2.6046,2.7071,2.7685,2.7685,2.8104,2.8779,2.9593,2.9796,2.9858,3.0163,3.0214,3.0214,3.0214,3.0214,3.0214,3.0214,3.0214,3.0214,3.0214,3.0214,3.0214,3.0214,3.0214,3.0214,3.0214,3.0214,3.0214,3.0214,3.0214,3.0315,3.0568,3.1365,3.1907,3.2159,3.3013,3.3334,3.3187,3.2942,3.2714,3.2519,3.2372,3.2158,3.1877,3.1877,3.1845,3.1711,3.1711,3.1711,3.1711,3.1711,3.1711,3.1711,3.1711,3.1711,3.1711,1.6978,1.6978,1.6978,1.6978,1.6978,1.6978,1.6978,1.6978,1.6978,1.6978,1.6978,1.6978,1.6978,1.6978,1.6978,1.6978,1.6978,1.6978,1.6978,1.6978,1.6978,1.6978,1.6978,1.6978,1.6978,1.6978,1.6978,1.6978,1.6978,1.6978,1.6978,1.6978,1.6978,1.6978,1.6978,1.6978,1.6978,1.6978,1.6978,1.6978,1.6978,1.6978,1.6978,1.6978,1.6978,1.6978,1.6978,1.6978,1.6978,1.6978,1.7083,1.7136,1.7241,1.7706,1.8432,1.9574,2.0772,2.2123,2.4132,2.5522,2.661,2.7696,2.8728,2.944,2.9542,2.9542,2.9643,3.0112,3.0214,3.0214,3.0214,3.0214,3.0214,3.0214,3.0214,3.0214,3.0214,3.0214,3.0214,3.0214,3.0214,3.0214,3.0214,3.0214,3.0214,3.0214,3.0214,3.0214,3.0214,3.0214,3.0416,3.0872,3.1466,3.2008,3.2461,3.3113,3.3414,3.3414,3.316,3.3026,3.2973,3.2781,3.2514,3.2185,3.2185,3.2038,3.1872,3.1872,3.1872,3.1872,3.1872,3.1831,3.1744,3.1738,3.1711,3.1711,1.6978,1.6978,1.6978,1.6978,1.6978,1.6978,1.6978,1.6978,1.6978,1.6978,1.6978,1.6978,1.6978,1.6978,1.6978,1.6978,1.6978,1.6978,1.6978,1.6978,1.6978,1.6978,1.6978,1.6978,1.6978,1.6978,1.6978,1.6978,1.6978,1.6978,1.6978,1.6978,1.6978,1.6978,1.6978,1.6978,1.6978,1.6978,1.6978,1.6978,1.6978,1.6978,1.6978,1.6978,1.6978,1.6978,1.6978,1.6978,1.6978,1.6978,1.7293,1.7758,1.8222,1.9104,2.02,2.1353,2.2746,2.4235,2.5522,2.6662,2.7747,2.888,2.9288,2.9542,3.0011,3.0112,3.0112,3.0214,3.0214,3.0214,3.0214,3.0214,3.0214,3.0214,3.0214,3.0214,3.0214,3.0214,3.0214,3.0214,3.0214,3.0214,3.0214,3.0214,3.0214,3.0214,3.0214,3.0214,3.0214,3.0214,3.0214,3.0315,3.1264,3.1819,3.192,3.2912,3.3414,3.3414,3.3374,3.3213,3.2973,3.2933,3.2808,3.2541,3.2541,3.2514,3.2474,3.2474,3.2474,3.2474,3.2474,3.2313,3.2011,3.1805,3.1711,3.1711,1.6978,1.6978,1.6978,1.6978,1.6978,1.6978,1.6978,1.6978,1.6978,1.6978,1.6978,1.6978,1.6978,1.6978,1.6978,1.6978,1.6978,1.6978,1.6978,1.6978,1.6978,1.6978,1.6978,1.6978,1.6978,1.6978,1.6978,1.6978,1.6978,1.6978,1.6978,1.6978,1.6978,1.6978,1.6978,1.6978,1.6978,1.6978,1.6978,1.6978,1.6978,1.6978,1.6978,1.6978,1.6978,1.6978,1.6978,1.6978,1.7031,1.7346,1.7811,1.838,1.9261,2.0304,2.1604,2.3315,2.4554,2.5728,2.748,2.8308,2.8829,2.9643,2.9858,2.9909,3.0163,3.0214,3.0214,3.0214,3.0214,3.0214,3.0214,3.0214,3.0214,3.0214,3.0214,3.0214,3.0214,3.0214,3.0214,3.0214,3.0214,3.0214,3.0214,3.0214,3.0214,3.0214,3.0214,3.0214,3.0214,3.0214,3.0214,3.0214,3.0961,3.1517,3.1819,3.2561,3.3113,3.3414,3.3414,3.3347,3.3213,3.3213,3.3066,3.2835,3.2835,3.2741,3.2594,3.2594,3.2594,3.2594,3.2594,3.2514,3.238,3.226,3.2206,3.2206]},{"header":{"parameterUnit":"m.s-1","parameterCategory":1,"la1":30.6,"la2":28.766,"lo1":-90.7593,"lo2":-88.6598,"dy":0.0162,"dx":0.0183,"nx":116,"ny":114,"refTime":"2023-09-29T00:00:00:Z","depth":0,"parameterNumber":3,"parameterNumberName":"V-component_of_WINDS"},"data":[0.0,0.0,0.0,0.0,0.0,0.0,0.0,0.0,0.0,0.0,0.0,0.0,0.0,0.0,0.0,0.0,0.0,0.0,0.0,0.0,0.0,0.0,0.0,0.0,0.0,0.0,0.0,0.0,0.0,0.0,0.0,0.0,0.0,0.0,0.0,0.0,0.0,0.0,0.0,0.0,0.0,0.0,0.0,0.0,0.0,0.0,0.0,0.0,0.0,0.0,0.0,0.0,0.0,0.0,0.0,0.0,0.0,0.0,0.0,0.0,0.0,0.0,0.0,0.0,0.0,0.0,0.0,0.0,0.0,0.0,0.0,0.0,0.0,0.0,0.0,0.0,0.0,0.0,0.0,0.0,0.0,0.0,0.0,0.0,0.0,0.0,0.0,0.0,0.0,0.0,0.0,0.0,0.0,0.0,0.0,0.0,0.0,0.0,0.0,0.0,0.0,0.0,0.0,0.0,0.0,0.0,0.0,0.0,0.0,0.0,0.0,0.0,0.0,0.0,0.0,0.0,0.0,0.0,0.0,0.0,0.0,0.0,0.0,0.0,0.0,0.0,0.0,0.0,0.0,0.0,0.0,0.0,0.0,0.0,0.0,0.0,0.0,0.0,0.0,0.0,0.0,0.0,0.0,0.0,0.0,0.0,0.0,0.0,0.0,0.0,0.0,0.0,0.0,0.0,0.0,0.0,0.0,0.0,0.0,0.0,0.0,0.0,0.0,0.0,0.0,0.0,0.0,0.0,0.0,0.0,0.0,0.0,0.0,0.0,0.0,0.0,0.0,0.0,0.0,0.0,0.0,0.0,0.0,0.0,0.0,0.0,0.0,0.0,0.0,0.0,0.0,0.0,0.0,0.0,0.0,0.0,0.0,0.0,0.0,0.0,0.0,0.0,0.0,0.0,0.0,0.0,0.0,0.0,0.0,0.0,0.0,0.0,0.0,0.0,0.0,0.0,0.0,0.0,0.0,0.0,0.0,0.0,0.0,0.0,0.0,0.0,0.0,0.0,0.0,0.0,0.0,0.0,0.0,0.0,0.0,0.0,0.0,0.0,0.0,0.0,0.0,0.0,0.0,0.0,0.0,0.0,0.0,0.0,0.0,0.0,0.0,0.0,0.0,0.0,0.0,0.0,0.0,0.0,0.0,0.0,0.0,0.0,0.0,0.0,0.0,0.0,0.0,0.0,0.0,0.0,0.0,0.0,0.0,0.0,0.0,0.0,0.0,0.0,0.0,0.0,0.0,0.0,0.0,0.0,0.0,0.0,0.0,0.0,0.0,0.0,0.0,0.0,0.0,0.0,0.0,0.0,0.0,0.0,0.0,0.0,0.0,0.0,0.0,0.0,0.0,0.0,0.0,0.0,0.0,0.0,0.0,0.0,0.0,0.0,0.0,0.0,0.0,0.0,0.0,0.0,0.0,0.0,0.0,0.0,0.0,0.0,0.0,0.0,0.0,0.0,0.0,0.0,0.0,0.0,0.0,0.0,0.0,0.0,0.0,0.0,0.0,0.0,0.0,0.0,0.0,0.0,0.0,0.0,0.0,0.0,0.0,0.0,0.0,0.0,0.0,0.0,0.0,0.0,0.0,0.0,0.0,0.0,0.0,0.0,0.0,0.0,0.0,0.0,0.0,0.0,0.0,0.0,0.0,0.0,0.0,0.0,0.0,0.0,0.0,0.0,0.0,0.0,0.0,0.0,0.0,0.0,0.0,0.0,0.0,0.0,0.0,0.0,0.0,0.0,0.0,0.0,0.0,0.0,0.0,0.0,0.0,0.0,0.0,0.0,0.0,0.0,0.0,0.0,0.0,0.0,0.0,0.0,0.0,0.0,0.0,0.0,0.0,0.0,0.0,0.0,0.0,0.0,0.0,0.0,0.0,0.0,0.0,0.0,0.0,0.0,0.0,0.0,0.0,0.0,0.0,0.0,0.0,0.0,0.0,0.0,0.0,0.0,0.0,0.0,0.0,0.0,0.0,0.0,0.0,0.0,0.0,0.0,0.0,0.0,0.0,0.0,0.0,0.0,0.0,0.0,0.0,0.0,0.0,0.0,0.0,0.0,0.0,0.0,0.0,0.0,0.0,0.0,0.0,0.0,0.0,0.0,0.0,0.0,0.0,0.0,0.0,0.0,0.0,0.0,0.0,0.0,0.0,0.0,0.0,0.0,0.0,0.0,0.0,0.0,0.0,0.0,0.0,0.0,0.0,0.0,0.0,0.0,0.0,0.0,0.0,0.0,0.0,0.0,0.0,0.0,0.0,0.0,0.0,0.0,0.0,0.0,0.0,0.0,0.0,0.0,0.0,0.0,0.0,0.0,0.0,0.0,0.0,0.0,0.0,0.0,0.0,0.0,0.0,0.0,0.0,0.0,0.0,0.0,0.0,0.0,0.0,0.0,0.0,0.0,0.0,0.0,0.0,0.0,0.0,0.0,0.0,0.0,0.0,0.0,0.0,0.0,0.0,0.0,0.0,0.0,0.0,0.0,0.0,0.0,0.0,0.0,0.0,0.0,0.0,0.0,0.0,0.0,0.0,0.0,0.0,0.0,0.0,0.0,0.0,0.0,0.0,0.0,0.0,0.0,0.0,0.0,0.0,0.0,0.0,0.0,0.0,0.0,0.0,0.0,0.0,0.0,0.0,0.0,0.0,0.0,0.0,0.0,0.0,0.0,0.0,0.0,0.0,0.0,0.0,0.0,0.0,0.0,0.0,0.0,0.0,0.0,0.0,0.0,0.0,0.0,0.0,0.0,0.0,0.0,0.0,0.0,0.0,0.0,0.0,0.0,0.0,0.0,0.0,0.0,0.0,0.0,0.0,0.0,0.0,0.0,0.0,0.0,0.0,0.0,0.0,0.0,0.0,0.0,0.0,0.0,0.0,0.0,0.0,0.0,0.0,0.0,0.0,0.0,0.0,0.0,0.0,0.0,0.0,0.0,0.0,0.0,0.0,0.0,0.0,0.0,0.0,0.0,0.0,0.0,0.0,0.0,0.0,0.0,0.0,0.0,0.0,0.0,0.0,0.0,0.0,0.0,0.0,0.0,0.0,0.0,0.0,0.0,0.0,0.0,0.0,0.0,0.0,0.0,0.0,0.0,0.0,0.0,0.0,0.0,0.0,0.0,0.0,0.0,0.0,0.0,0.0,0.0,0.0,0.0,0.0,0.0,0.0,0.0,0.0,0.0,0.0,0.0,0.0,0.0,0.0,0.0,0.0,0.0,0.0,0.0,0.0,0.0,0.0,0.0,0.0,0.0,0.0,0.0,0.0,0.0,0.0,0.0,0.0,0.0,0.0,0.0,0.0,0.0,0.0,0.0,0.0,0.0,0.0,0.0,0.0,0.0,0.0,0.0,0.0,0.0,0.0,0.0,0.0,0.0,0.0,0.0,0.0,0.0,0.0,0.0,0.0,0.0,0.0,0.0,0.0,0.0,0.0,0.0,0.0,0.0,0.0,0.0,0.0,0.0,0.0,0.0,0.0,0.0,0.0,0.0,0.0,0.0,0.0,0.0,0.0,0.0,0.0,0.0,0.0,0.0,0.0,0.0,0.0,0.0,0.0,0.0,0.0,0.0,0.0,0.0,0.0,0.0,0.0,0.0,0.0,0.0,0.0,0.0,0.0,0.0,0.0,0.0,0.0,0.0,0.0,0.0,0.0,0.0,0.0,0.0,0.0,0.0,0.0,0.0,0.0,0.0,0.0,0.0,0.0,0.0,0.0,0.0,0.0,0.0,0.0,0.0,0.0,0.0,0.0,0.0,0.0,0.0,0.0,0.0,0.0,0.0,0.0,0.0,0.0,0.0,0.0,0.0,0.0,0.0,0.0,0.0,0.0,0.0,0.0,0.0,0.0,0.0,0.0,0.0,0.0,0.0,0.0,0.0,0.0,0.0,0.0,0.0,0.0,0.0,0.0,0.0,0.0,0.0,0.0,0.0,0.0,0.0,0.0,0.0,0.0,0.0,0.0,0.0,0.0,0.0,0.0,0.0,0.0,0.0,0.0,0.0,0.0,0.0,0.0,0.0,0.0,0.0,0.0,0.0,0.0,0.0,0.0,0.0,0.0,0.0,0.0,0.0,0.0,0.0,0.0,0.0,0.0,0.0,0.0,0.0,0.0,0.0,0.0,0.0,0.0,0.0,0.0,0.0,0.0,0.0,0.0,0.0,0.0,0.0,0.0,0.0,0.0,0.0,0.0,0.0,0.0,0.0,0.0,0.0,0.0,0.0,0.0,0.0,0.0,0.0,0.0,0.0,0.0,0.0,0.0,0.0,0.0,0.0,0.0,0.0,0.0,0.0,0.0,0.0,0.0,0.0,0.0,0.0,0.0,0.0,0.0,0.0,0.0,0.0,0.0,0.0,0.0,0.0,0.0,0.0,0.0,0.0,0.0,0.0,0.0,0.0,0.0,0.0,0.0,0.0,0.0,0.0,0.0,0.0,0.0,0.0,0.0,0.0,0.0,0.0,0.0,0.0,0.0,0.0,0.0,0.0,0.0,0.0,0.0,0.0,0.0,0.0,0.0,0.0,0.0,0.0,0.0,0.0,0.0,0.0,0.0,0.0,0.0,0.0,0.0,0.0,0.0,0.0,0.0,0.0,0.0,0.0,0.0,0.0,0.0,0.0,0.0,0.0,0.0,0.0,0.0,0.0,0.0,0.0,0.0,0.0,0.0,0.0,0.0,0.0,0.0,0.0,0.0,0.0,0.0,0.0,0.0,0.0,0.0,0.0,0.0,0.0,0.0,0.0,0.0,0.0,0.0,0.0,0.0,0.0,0.0,0.0,0.0,0.0,0.0,0.0,0.0,0.0,0.0,0.0,0.0,0.0,0.0,0.0,0.0,0.0,0.0,0.0,0.0,0.0,0.0,0.0,0.0,0.0,0.0,0.0,0.0,0.0,0.0,0.0,0.0,0.0,0.0,0.0,0.0,0.0,0.0,0.0,0.0,0.0,0.0,0.0,0.0,0.0,0.0,0.0,0.0,0.0,0.0,0.0,0.0,0.0,0.0,0.0,0.0,0.0,0.0,0.0,0.0,0.0,0.0,0.0,0.0,0.0,0.0,0.0,0.0,0.0,0.0,0.0,0.0,0.0,0.0,0.0,0.0,0.0,0.0,0.0,0.0,0.0,0.0,0.0,0.0,0.0,0.0,0.0,0.0,0.0,0.0,0.0,0.0,0.0,0.0,0.0,0.0,0.0,0.0,0.0,0.0,0.0,0.0,0.0,0.0,0.0,0.0,0.0,0.0,0.0,0.0,0.0,0.0,0.0,0.0,0.0,0.0,0.0,0.0,0.0,0.0,0.0,0.0,0.0,0.0,0.0,0.0,0.0,0.0,0.0,0.0,0.0,0.0,0.0,0.0,0.0,0.0,0.0,0.0,0.0,0.0,0.0,0.0,0.0,0.0,0.0,0.0,0.0,0.0,0.0,0.0,0.0,0.0,0.0,0.0,0.0,0.0,0.0,0.0,0.0,0.0,0.0,0.0,0.0,0.0,0.0,0.0,0.0,0.0,0.0,0.0,0.0,0.0,0.0,0.0,0.0,0.0,0.0,0.0,0.0,0.0,0.0,0.0,0.0,0.0,0.0,0.0,0.0,0.0,0.0,0.0,0.0,0.0,0.0,0.0,0.0,0.0,0.0,0.0,0.0,0.0,0.0,0.0,0.0,0.0,0.0,0.0,0.0,0.0,0.0,0.0,0.0,0.0,0.0,0.0,0.0,0.0,0.0,0.0,0.0,0.0,0.0,0.0,0.0,0.0,0.0,0.0,0.0,0.0,0.0,0.0,0.0,0.0,0.0,0.0,0.0,0.0,0.0,0.0,0.0,0.0,0.0,0.0,0.0,0.0,0.0,0.0,0.0,0.0,0.0,0.0,0.0,0.0,0.0,0.0,0.0,0.0,0.0,0.0,0.0,0.0,0.0,0.0,0.0,0.0,0.0,0.0,0.0,0.0,0.0,0.0,0.0,0.0,0.0,0.0,0.0,0.0,0.0,0.0,0.0,0.0,0.0,0.0,0.0,0.0,0.0,0.0,0.0,0.0,0.0,0.0,0.0,0.0,0.0,0.0,0.0,0.0,0.0,0.0,0.0,0.0,0.0,5.9977,0.0,0.0,0.0,0.0,0.0,0.0,0.0,0.0,0.0,0.0,0.0,0.0,0.0,0.0,0.0,0.0,0.0,0.0,0.0,0.0,0.0,0.0,0.0,0.0,0.0,0.0,0.0,0.0,0.0,0.0,0.0,0.0,0.0,0.0,0.0,0.0,0.0,0.0,5.929,5.929,5.929,5.929,5.9391,5.9463,5.9508,0.0,0.0,0.0,0.0,0.0,0.0,0.0,0.0,0.0,0.0,0.0,0.0,0.0,0.0,0.0,0.0,0.0,0.0,0.0,0.0,0.0,0.0,0.0,0.0,0.0,0.0,0.0,0.0,0.0,0.0,0.0,0.0,0.0,0.0,0.0,0.0,0.0,0.0,0.0,0.0,0.0,0.0,0.0,0.0,0.0,0.0,0.0,0.0,0.0,0.0,0.0,0.0,0.0,0.0,0.0,0.0,0.0,0.0,0.0,0.0,0.0,0.0,0.0,0.0,0.0,0.0,0.0,0.0,0.0,0.0,0.0,6.0681,0.0,0.0,0.0,0.0,0.0,0.0,0.0,0.0,0.0,0.0,0.0,0.0,0.0,0.0,0.0,0.0,0.0,0.0,0.0,0.0,0.0,0.0,0.0,5.8952,5.8801,5.8604,5.8667,5.8807,5.892,0.0,0.0,0.0,0.0,0.0,5.929,5.9272,5.9272,5.929,5.929,5.929,5.929,5.929,5.929,5.929,5.929,0.0,0.0,0.0,0.0,0.0,0.0,0.0,0.0,0.0,0.0,0.0,0.0,0.0,0.0,0.0,0.0,0.0,0.0,0.0,0.0,0.0,0.0,0.0,0.0,0.0,0.0,0.0,0.0,0.0,0.0,0.0,0.0,0.0,0.0,0.0,0.0,0.0,0.0,0.0,0.0,0.0,0.0,0.0,0.0,0.0,0.0,0.0,0.0,0.0,0.0,0.0,0.0,0.0,0.0,0.0,0.0,0.0,0.0,0.0,0.0,0.0,0.0,0.0,6.2969,6.3073,6.2485,6.2506,6.182,6.0675,6.128,6.114,6.0555,6.203,0.0,0.0,0.0,0.0,0.0,0.0,0.0,0.0,0.0,0.0,0.0,0.0,0.0,0.0,0.0,0.0,0.0,0.0,0.0,5.9272,5.9177,5.9071,5.8952,5.8859,5.8859,5.892,5.8965,0.0,0.0,0.0,0.0,5.9244,5.929,5.9244,5.9244,5.929,5.929,5.929,5.929,5.929,5.929,5.929,5.929,5.929,5.929,0.0,0.0,0.0,0.0,0.0,0.0,0.0,0.0,0.0,0.0,0.0,0.0,0.0,0.0,0.0,0.0,0.0,0.0,0.0,0.0,0.0,0.0,0.0,0.0,0.0,0.0,0.0,0.0,0.0,0.0,0.0,0.0,0.0,0.0,0.0,0.0,0.0,0.0,0.0,0.0,0.0,5.9518,5.9786,0.0,0.0,0.0,0.0,0.0,0.0,0.0,0.0,0.0,0.0,0.0,0.0,0.0,6.0465,6.0825,6.1056,6.1272,6.1438,6.1666,6.1738,6.1674,6.1786,6.1724,6.1556,6.17,0.0,6.0576,6.082,0.0,0.0,0.0,0.0,0.0,0.0,0.0,0.0,0.0,0.0,0.0,0.0,0.0,0.0,0.0,0.0,0.0,0.0,0.0,0.0,0.0,5.9187,5.912,5.9051,5.9079,5.9061,5.9119,5.9158,0.0,0.0,5.9253,5.929,5.929,5.9253,5.929,5.929,5.929,5.929,5.929,5.929,5.929,5.929,5.929,5.929,5.929,5.929,0.0,0.0,0.0,0.0,0.0,0.0,0.0,0.0,0.0,0.0,0.0,0.0,0.0,0.0,0.0,0.0,0.0,0.0,0.0,0.0,0.0,0.0,0.0,0.0,0.0,0.0,0.0,0.0,0.0,0.0,0.0,0.0,0.0,0.0,0.0,0.0,0.0,0.0,0.0,6.1081,6.1033,6.0688,6.0346,6.0053,0.0,0.0,0.0,0.0,0.0,0.0,0.0,0.0,0.0,6.1886,6.2181,6.2387,6.2569,6.2705,6.2811,6.2901,6.3014,6.284,6.2381,6.2478,6.2235,6.1757,6.1796,6.1581,6.1318,6.1806,6.1919,6.1816,0.0,0.0,0.0,0.0,6.0989,6.1741,0.0,0.0,0.0,0.0,0.0,0.0,0.0,0.0,0.0,0.0,0.0,0.0,5.929,5.929,5.9262,5.9234,5.9225,5.9225,5.9225,5.9225,5.9244,5.9253,5.9234,5.9225,5.9253,5.9281,5.929,5.929,5.929,5.929,5.929,5.929,5.929,5.929,5.929,5.929,5.929,5.929,5.929,5.929,0.0,0.0,0.0,0.0,0.0,0.0,0.0,0.0,0.0,0.0,0.0,0.0,0.0,0.0,0.0,0.0,0.0,0.0,0.0,0.0,0.0,0.0,0.0,0.0,0.0,0.0,0.0,0.0,0.0,0.0,0.0,0.0,0.0,0.0,0.0,0.0,0.0,6.262,6.2385,6.1792,6.1496,6.1267,0.0,0.0,0.0,0.0,0.0,0.0,6.2683,6.3026,6.3301,6.3519,6.3769,6.3888,6.3921,6.4079,6.4162,6.4162,6.4254,6.3994,6.3421,6.3421,6.3045,6.2454,6.2454,6.2454,6.2454,6.267,6.2369,6.1816,6.1816,6.145,6.0868,6.0229,6.0792,6.1817,0.0,0.0,0.0,0.0,0.0,0.0,0.0,0.0,0.0,0.0,0.0,5.929,5.929,5.929,5.929,5.929,5.9281,5.9281,5.9281,5.9281,5.9281,5.9196,5.9063,5.9053,5.9196,5.9281,5.929,5.929,5.929,5.929,5.929,5.929,5.929,5.929,5.929,5.929,5.929,5.929,5.929,5.929,5.929,0.0,0.0,0.0,0.0,0.0,0.0,0.0,0.0,0.0,0.0,0.0,0.0,0.0,0.0,0.0,0.0,0.0,0.0,0.0,0.0,0.0,0.0,0.0,0.0,0.0,0.0,0.0,0.0,0.0,0.0,0.0,0.0,0.0,0.0,0.0,0.0,0.0,0.0,6.3691,6.3512,0.0,0.0,0.0,0.0,6.2962,6.3154,6.3299,6.3347,6.3624,6.3812,6.3857,6.4011,6.4152,6.4264,6.4284,6.4284,6.4284,6.4294,6.4294,6.4257,6.4257,6.4219,6.4182,6.4182,6.4182,6.4069,6.2492,6.1853,6.1816,6.1816,6.1864,6.1911,6.1874,6.2003,6.2173,0.0,0.0,0.0,0.0,0.0,0.0,0.0,0.0,6.1037,6.1037,6.0943,6.0905,6.0905,6.0905,6.0905,6.0905,6.0905,6.0905,6.0905,6.0905,6.0857,6.075,6.0779,6.0818,6.0857,6.0895,6.0905,6.0905,6.0905,6.0905,6.0905,6.0905,6.0905,6.0905,6.0905,6.0905,6.083,5.9741,5.929,5.929,5.929,5.929,0.0,0.0,0.0,0.0,0.0,0.0,0.0,0.0,0.0,0.0,0.0,0.0,0.0,0.0,0.0,0.0,0.0,0.0,0.0,0.0,0.0,0.0,0.0,0.0,0.0,0.0,0.0,0.0,0.0,0.0,0.0,0.0,0.0,0.0,0.0,0.0,0.0,6.4145,6.4,0.0,6.384,6.3694,6.3617,6.3617,6.3698,6.3753,6.384,6.3953,6.4058,6.4135,6.4213,6.4507,6.5073,6.5073,6.5336,6.5909,6.5336,6.5073,6.5035,6.4557,6.4294,6.4294,6.4294,6.4324,6.4309,6.3822,6.3248,6.272,6.2843,6.2577,6.214,6.2263,6.269,6.3175,0.0,0.0,0.0,0.0,0.0,0.0,0.0,6.24,6.2151,6.2153,6.2033,6.193,6.193,6.1902,6.1864,6.1864,6.1835,6.1816,6.1816,6.1816,6.1767,6.1649,6.1718,6.1767,6.1767,6.1796,6.1816,6.1816,6.1816,6.1816,6.1816,6.1816,6.1816,6.1816,6.1816,6.1816,6.1741,6.0604,6.0154,6.0154,6.0154,6.0154,6.0154,0.0,0.0,0.0,0.0,0.0,0.0,0.0,0.0,0.0,0.0,0.0,0.0,0.0,0.0,0.0,0.0,0.0,0.0,0.0,0.0,0.0,0.0,0.0,0.0,0.0,0.0,0.0,0.0,0.0,0.0,0.0,0.0,0.0,0.0,6.4344,6.4334,6.4294,6.4224,6.4172,6.4172,6.4111,6.4021,6.4021,6.4283,6.4352,6.4172,6.4708,6.4926,6.4697,6.5008,6.5383,6.5936,6.5936,6.6247,6.6773,6.621,6.5936,6.5899,6.5113,6.4758,6.4768,6.4536,6.4453,6.4521,6.4689,6.4403,6.3893,6.3955,6.3676,6.3221,6.3378,6.3846,6.4367,0.0,0.0,0.0,0.0,0.0,0.0,6.3802,6.3093,6.2558,6.2505,6.2373,6.2284,6.2275,6.2172,6.209,6.2081,6.1958,6.19,6.1891,6.1891,6.1852,6.1791,6.1781,6.1781,6.1781,6.1842,6.1891,6.1891,6.1891,6.1891,6.1891,6.1891,6.1891,6.1891,6.1891,6.1891,6.1891,6.1891,6.1891,6.1891,6.1816,6.1816,6.1816,0.0,0.0,0.0,0.0,0.0,0.0,0.0,0.0,0.0,0.0,0.0,0.0,0.0,0.0,0.0,0.0,0.0,0.0,0.0,0.0,0.0,0.0,0.0,0.0,0.0,0.0,0.0,0.0,0.0,0.0,0.0,0.0,0.0,6.4463,6.4405,6.4376,6.4324,6.4342,6.4342,6.4342,6.4379,6.4379,6.4379,6.512,6.5185,6.4407,6.5909,6.6397,6.5561,6.636,6.681,6.6848,6.6848,6.6848,6.6896,6.6858,6.6858,6.6831,6.6106,6.5742,6.5724,6.5058,6.4801,6.4828,6.5069,6.5226,6.5282,6.5082,6.5115,6.5229,6.5284,6.5448,6.5635,0.0,0.0,0.0,0.0,0.0,0.0,6.5082,6.478,6.4519,6.4432,6.4351,6.4276,6.4246,6.4194,6.4107,6.3962,6.3935,6.3851,6.3689,6.3679,6.3678,6.3578,6.3498,6.3488,6.3578,6.3608,6.3618,6.3618,6.3618,6.3618,6.3618,6.3618,6.3618,6.3618,6.3618,6.3618,6.3618,6.365,6.3679,6.3566,6.241,6.1958,6.1977,0.0,0.0,0.0,0.0,0.0,0.0,0.0,0.0,0.0,0.0,0.0,0.0,0.0,0.0,0.0,0.0,0.0,0.0,0.0,0.0,0.0,0.0,0.0,0.0,0.0,0.0,0.0,0.0,0.0,0.0,0.0,6.7245,6.6543,6.5066,6.4716,6.4624,6.4596,6.5058,6.5387,6.5387,6.5962,6.6339,6.6339,6.6448,6.6407,6.6219,6.6599,6.6698,6.6435,6.666,6.7073,6.7664,6.7664,6.8017,6.8665,6.8101,6.7871,6.7994,6.7155,6.6881,6.6982,6.6809,6.68,6.6975,6.714,6.7293,6.7319,6.5946,6.5501,6.5569,6.5698,6.5832,6.5978,0.0,0.0,0.0,0.0,0.0,0.0,6.575,6.5631,6.5517,6.547,6.5397,6.5314,6.5267,6.5196,6.506,6.4917,6.4877,6.4779,6.4661,6.4615,6.4606,6.4549,6.4491,6.4462,6.4453,6.4453,6.4443,6.4354,6.4354,6.4334,6.4294,6.4334,6.4354,6.4354,6.4415,6.4453,6.4463,6.4549,6.4615,6.4585,6.3648,6.3243,6.318,6.3303,6.3389,6.3432,6.3516,6.3853,6.4271,6.4351,0.0,0.0,0.0,0.0,0.0,0.0,0.0,0.0,0.0,0.0,0.0,0.0,0.0,0.0,0.0,0.0,0.0,0.0,0.0,0.0,0.0,0.0,0.0,0.0,6.8354,6.7704,6.6636,6.62,6.5962,6.5874,6.6236,6.6502,6.6502,6.6957,6.7259,6.7259,6.7505,6.7495,6.7145,6.7728,6.7914,6.7575,6.8254,6.8819,6.931,6.9659,7.0105,7.0667,6.9828,6.9529,6.9607,6.8487,6.8043,6.8151,6.7883,6.7843,6.7982,6.8136,6.8281,0.0,0.0,0.0,0.0,0.0,6.7183,6.7255,0.0,0.0,0.0,0.0,0.0,0.0,6.6082,6.5993,6.5931,6.5813,6.5788,6.5723,6.5649,6.5485,6.5329,6.5268,6.5155,6.5048,6.5023,6.4967,6.4915,6.4915,6.4915,6.488,6.477,6.4752,6.4652,6.4463,6.4453,6.4443,6.4364,6.4443,6.4453,6.4473,6.4661,6.4752,6.477,6.4897,6.4984,6.5048,6.5109,6.5035,6.4882,6.5023,6.5123,6.5174,6.5245,6.5276,6.5284,6.5405,0.0,0.0,0.0,0.0,0.0,0.0,0.0,0.0,0.0,0.0,0.0,0.0,0.0,0.0,0.0,0.0,0.0,0.0,0.0,0.0,0.0,0.0,0.0,0.0,6.9149,6.879,6.8935,6.8618,6.8155,6.7626,6.7668,6.7697,6.7697,6.7888,6.7964,6.7964,6.8716,6.8823,6.8041,6.9341,0.0,0.0,0.0,7.1266,7.1266,7.2044,7.2433,7.2443,7.1721,7.1397,7.1387,7.0078,6.954,6.9574,6.8989,6.8712,6.8692,6.8892,6.8975,6.8911,6.8648,6.8633,6.874,6.88,6.8868,6.891,0.0,0.0,0.0,0.0,0.0,0.0,6.7209,6.6608,6.6102,6.5984,6.5961,6.5931,6.5832,6.5801,6.5737,6.5604,6.5544,6.5375,6.5174,6.5085,6.5073,6.5073,6.5073,6.5035,6.501,6.4981,6.492,6.4886,6.4844,6.479,6.4781,6.479,6.4844,6.4886,6.492,6.4981,6.5019,6.5101,6.5182,6.5276,6.5419,6.5382,6.5214,6.5397,6.5544,6.5583,6.5651,6.5678,6.5685,6.5698,6.5691,6.5793,6.6491,6.683,0.0,0.0,0.0,0.0,0.0,0.0,0.0,0.0,0.0,0.0,0.0,0.0,0.0,0.0,0.0,0.0,0.0,0.0,0.0,7.1026,7.0866,7.1021,7.1777,7.1765,7.0748,6.8279,6.8556,6.8938,6.8938,7.017,7.0964,7.0956,7.1663,7.2007,7.1767,7.1954,7.1985,7.1832,7.2137,7.2289,7.2289,7.2479,7.2639,7.2711,0.0,0.0,7.2799,7.2587,7.2551,7.2738,7.2572,7.2225,7.176,7.1833,7.1516,7.0792,6.9377,6.8845,6.8864,6.8883,6.8919,6.8963,0.0,0.0,0.0,0.0,0.0,0.0,6.8258,6.7837,6.7527,6.7472,6.7441,6.7249,6.677,6.6653,6.6435,6.5915,6.5808,6.5665,6.552,6.5477,6.5654,6.6076,6.6114,6.6252,6.6643,6.659,6.6504,6.6461,6.637,6.6303,6.6251,6.6303,6.6379,6.647,6.6512,6.6598,6.6651,6.6756,6.6828,6.6905,6.7011,6.7044,6.6897,6.6077,6.5808,6.5909,6.6375,6.6542,6.6619,6.7043,6.7197,6.7274,6.7698,6.816,6.8667,0.0,0.0,0.0,0.0,0.0,0.0,0.0,0.0,0.0,0.0,0.0,0.0,0.0,0.0,7.1828,7.1898,0.0,7.2551,7.2649,7.2659,7.283,7.3282,7.3339,7.2684,7.1088,7.1253,7.1503,7.1503,7.2265,7.2766,7.2759,7.307,7.325,7.3215,7.3139,7.3116,7.3116,7.353,7.376,7.376,7.4144,7.439,7.4467,7.4127,7.4007,7.4084,7.3735,7.3606,7.3766,7.3766,7.3585,7.3323,7.3379,7.3142,7.2739,7.1874,7.1016,7.0256,7.0244,7.027,7.0287,0.0,0.0,0.0,0.0,0.0,0.0,6.9263,6.9067,6.895,6.8919,6.8921,6.8646,6.7861,6.7727,6.7365,6.661,6.6487,6.6435,6.6369,6.6363,6.6671,6.7371,6.7409,6.7692,6.8264,6.8222,6.8126,6.8049,6.7967,6.789,6.7765,6.7875,6.7944,6.8005,6.8122,6.822,6.8263,6.8392,6.8488,6.855,6.855,6.8616,6.8547,6.7022,6.6509,6.662,6.7326,6.7597,6.7712,6.8407,6.8639,6.8683,6.8849,6.9357,6.9975,7.0141,7.0682,0.0,0.0,0.0,0.0,0.0,0.0,0.0,0.0,7.1716,7.1644,7.181,7.239,7.2893,7.2904,7.3488,7.3945,7.3945,7.3985,7.4092,7.4286,7.4286,7.4281,7.4298,7.3976,7.3727,7.3727,7.3882,7.3998,7.3998,7.4152,7.42,7.4139,7.4139,7.4139,7.4139,7.4822,7.5208,7.5208,7.5813,7.6154,7.616,7.5573,7.5294,7.5261,7.4629,7.4381,7.4434,7.4289,7.4247,7.4291,7.4173,7.4109,7.4114,7.4188,7.332,7.2086,7.1935,7.1831,7.1831,0.0,0.0,0.0,0.0,0.0,0.0,0.0,0.0,6.9055,6.8985,6.9002,6.8942,6.8776,6.8728,6.8665,6.8495,6.8485,6.846,6.8364,6.8397,6.8436,6.8513,6.8513,6.8552,6.8624,6.8569,6.854,6.8523,6.8464,6.8397,6.8328,6.8341,6.8379,6.8418,6.843,6.8474,6.858,6.8586,6.8621,6.8679,6.8679,6.8712,6.8761,6.8557,6.848,6.8485,6.8601,6.864,6.864,6.8756,6.8794,6.8921,6.967,7.0,7.0238,7.1097,7.1378,7.1455,7.1455,7.1455,7.1654,7.2439,7.2061,7.1872,0.0,7.3151,7.2851,7.3636,7.3878,7.3965,7.4006,7.4097,7.4179,7.4179,7.4183,7.446,7.5236,7.5314,7.5582,7.6297,7.4901,7.3877,7.3877,7.458,7.5044,7.5039,7.573,7.6173,7.6076,7.6076,7.6076,7.6076,7.6192,7.6225,7.6225,7.6302,7.638,7.638,7.6322,7.6311,7.6311,7.6299,7.6317,7.6332,7.5637,7.531,7.5275,7.4503,7.4192,7.4192,7.42,7.408,7.3803,7.3031,7.2759,7.2642,0.0,0.0,0.0,0.0,0.0,0.0,0.0,0.0,7.0645,7.0628,7.0586,7.0388,6.9842,6.9304,6.8928,6.8878,6.8873,6.8864,6.8801,6.8801,6.9033,6.9537,6.9576,6.9808,7.0307,7.0261,7.0235,7.0235,7.0176,7.0137,7.0069,7.0069,7.0125,7.0192,7.0192,7.0225,7.0279,7.0279,7.0295,7.0315,7.0315,7.0364,7.0379,7.0379,7.0379,7.0297,6.9693,6.9512,0.0,7.0129,7.0295,7.0382,7.0787,7.1271,7.1741,7.2148,7.2585,7.2934,7.2934,7.2604,7.2467,7.3326,7.2917,7.2625,7.3833,7.3872,7.3721,7.4093,7.4563,7.4921,7.4939,7.5327,7.5634,7.5634,7.5634,7.5793,7.6143,7.6182,7.6337,7.6644,7.6011,7.5547,7.5547,7.5857,7.6051,7.609,7.6395,7.658,7.656,7.656,7.656,7.656,7.656,7.656,7.656,7.656,7.656,7.656,7.658,7.6628,7.6628,7.6652,7.6676,7.6694,7.6328,7.6182,7.6182,7.5793,7.5634,7.5634,7.5634,7.5634,7.5478,7.4162,7.3657,7.3618,0.0,0.0,0.0,0.0,0.0,0.0,0.0,0.0,0.0,0.0,7.178,7.1508,7.0874,7.018,6.9764,6.9682,6.9717,6.9717,6.9717,6.9717,6.9989,7.0606,7.0645,7.0951,7.1556,7.1525,7.1493,7.1465,7.1426,7.1391,7.1361,7.1361,7.1415,7.1435,7.1435,7.1455,7.1489,7.1489,7.1489,7.1489,7.1489,7.1489,7.1489,7.1489,7.1489,7.1407,7.0674,7.0411,7.0537,7.1193,7.159,7.1799,7.1848,7.2449,7.3152,7.3166,7.3442,7.3752,7.3985,7.3465,7.31,7.4191,7.3864,7.3536,7.4628,7.4706,7.4628,7.4822,7.5405,7.5832,7.5832,7.6298,7.6682,7.6682,7.6682,7.6682,7.6682,7.6682,7.6682,7.6682,7.6682,7.6682,7.6682,7.6682,7.6682,7.6682,7.6682,7.6682,7.6682,7.6682,7.6682,7.6682,7.6682,7.6682,7.6682,7.6682,7.6682,7.6682,7.6682,7.6682,7.6682,7.6682,7.6682,7.6682,7.6682,7.6691,7.6743,7.6743,7.6756,7.6777,7.6777,7.6746,7.6603,7.5401,7.4794,7.4528,0.0,0.0,0.0,0.0,0.0,0.0,0.0,0.0,0.0,0.0,0.0,7.1849,7.1785,7.1736,7.1723,7.1697,7.1694,7.1694,7.1694,7.1694,7.1733,7.1733,7.1733,7.1758,7.1806,7.1806,7.1771,7.1692,7.1692,7.1649,7.1598,7.1598,7.1571,7.1489,7.1489,7.1489,7.1489,7.1489,7.1489,7.1489,7.1489,7.1489,7.1489,7.1489,7.1489,7.1489,7.1489,7.1451,7.1451,7.1489,7.2076,7.2745,7.2753,7.3353,7.4061,7.4144,7.3575,7.3104,7.3963,7.3575,7.3303,7.5016,7.4783,7.4589,7.6255,7.6026,7.5677,7.6449,7.6644,7.6644,7.6644,7.6682,7.6682,7.6682,7.6682,7.6682,7.6682,7.6682,7.6682,7.6682,7.6682,7.6682,7.6682,7.6682,7.6682,7.6682,7.6682,7.6682,7.6682,7.6682,7.6682,7.6682,7.6682,7.6682,7.6682,7.6682,7.6682,7.6682,7.6682,7.6682,7.6682,7.6682,7.6682,7.6682,7.6682,7.6747,7.6789,7.6789,7.6836,7.69,7.69,7.6885,7.6876,7.6838,7.6228,7.535,0.0,0.0,0.0,0.0,0.0,0.0,0.0,0.0,0.0,0.0,0.0,0.0,0.0,0.0,0.0,0.0,7.3512,7.3278,7.2691,7.2652,7.2418,7.183,7.1791,7.1787,7.1819,7.1801,7.1783,7.1761,7.1782,7.1758,7.1735,7.1735,7.1728,7.1718,7.1718,7.1718,7.1718,7.1718,7.1718,7.1718,7.1718,7.1704,7.1761,7.2344,7.2543,7.2569,0.0,7.2901,7.2434,7.3049,7.3408,7.365,7.3695,7.4334,7.5154,7.5711,7.5634,7.5478,7.5789,7.5249,7.49,7.6026,7.5677,7.5366,7.6449,7.6488,7.6376,7.6644,7.6682,7.6682,7.6682,7.6682,7.6682,7.6682,7.6682,7.6682,7.6682,7.6682,7.6682,7.6682,7.6682,7.6915,7.7503,7.7032,7.6682,7.6682,7.6682,7.6682,7.6682,7.6682,7.6682,7.6682,7.6682,7.6682,7.6682,7.6682,7.6682,7.6682,7.6756,7.6797,7.6812,7.6812,7.6827,7.6812,7.6812,7.6858,7.6871,7.6855,7.6879,7.69,7.6958,7.697,7.698,7.698,7.6778,7.6451,0.0,0.0,0.0,0.0,0.0,0.0,0.0,0.0,0.0,0.0,0.0,0.0,0.0,0.0,0.0,0.0,0.0,7.4219,7.3632,7.3593,7.3359,7.2772,7.2772,7.2771,7.2765,7.2748,7.2615,7.2288,7.2305,7.2131,7.1807,7.1807,7.1807,7.1807,7.1807,7.1807,7.1807,7.1807,7.1965,7.2277,7.2277,7.2464,7.2799,7.3334,7.3538,0.0,7.4456,7.4367,7.3863,7.4058,7.4355,7.4554,7.4287,7.4829,7.5708,7.6521,7.6572,7.6428,7.668,7.6175,7.5743,7.6523,7.6363,7.6087,7.657,7.6682,7.6682,7.6682,7.6954,7.7149,7.7149,7.7149,7.7157,7.7214,7.6942,7.676,7.675,7.703,7.7233,7.7249,7.7521,7.791,7.8497,7.8027,7.7691,7.7624,7.7619,7.7619,7.7619,7.7632,7.7645,7.7645,7.7675,7.7691,7.7691,7.7707,7.7715,7.7715,7.7757,7.7803,7.7806,7.7506,7.7364,7.7345,7.7072,7.6958,7.6929,7.6958,7.6938,7.6993,7.7012,7.7022,7.7027,7.7027,7.7033,7.7034,0.0,0.0,0.0,0.0,0.0,0.0,0.0,0.0,0.0,0.0,0.0,0.0,0.0,0.0,0.0,0.0,0.0,0.0,7.457,7.457,7.4531,7.4492,7.4492,7.4492,7.4491,7.4526,7.4086,7.3283,7.3268,7.2821,7.194,7.194,7.194,7.194,7.194,7.194,7.194,7.194,7.2411,7.3154,7.3154,7.3661,7.44,7.4457,7.4487,7.4597,7.5466,7.5764,7.5627,7.4662,7.4878,7.543,7.4612,7.4948,7.5823,7.6641,7.6358,7.5911,7.6693,7.6294,7.5852,7.6591,7.6805,7.6793,7.6708,7.6696,7.6696,7.6696,7.7395,7.8017,7.8017,7.8055,7.8107,7.8154,7.7423,7.6906,7.7021,7.7696,7.8222,7.8252,7.8996,7.9502,7.9541,7.958,7.9526,7.9446,7.9351,7.9308,7.9308,7.9351,7.9415,7.9415,7.9453,7.9491,7.9494,7.9487,7.9502,7.9505,7.9497,7.9513,7.9476,7.8644,7.8267,7.8228,7.7484,7.7104,7.7082,7.7061,7.7083,7.71,7.7105,7.7108,7.7109,7.7109,7.7109,7.7109,0.0,0.0,0.0,0.0,0.0,0.0,0.0,0.0,0.0,0.0,0.0,0.0,0.0,0.0,0.0,0.0,0.0,0.0,7.5579,7.554,7.5267,7.4603,7.4564,7.4564,7.4565,7.4569,7.4453,7.4258,7.4178,7.4058,7.3823,7.3823,7.3823,7.3823,7.3823,7.3823,7.3823,7.3823,7.394,7.4135,7.4135,7.4289,7.4557,7.5211,7.5427,7.5482,7.6357,7.665,7.6627,7.6316,7.6365,7.6489,7.6286,7.6384,7.6635,7.6892,7.6824,7.6712,7.6939,7.6765,7.663,7.6807,7.6861,7.6881,7.6833,7.6868,7.6861,7.683,7.7531,7.8146,7.8077,7.8618,7.9057,7.9138,7.8426,7.8066,7.8734,7.8486,7.8426,7.9098,7.9371,7.9759,8.042,8.0459,8.0719,8.1352,8.0176,7.9445,7.9445,7.9455,7.9471,7.9457,7.9472,7.9494,7.9518,7.9486,7.9537,7.9552,7.9574,7.9598,7.9658,7.9435,7.9326,7.9291,7.9096,7.8627,7.8042,7.8046,7.7656,7.7109,7.7107,7.7104,7.7103,7.7103,7.7103,7.7103,0.0,0.0,0.0,0.0,0.0,0.0,0.0,0.0,0.0,0.0,0.0,0.0,0.0,0.0,0.0,0.0,0.0,0.0,0.0,7.6421,7.6226,7.5718,7.5718,7.5718,7.5718,7.5688,7.5497,7.5145,7.5113,7.4919,7.4529,7.4529,7.4529,7.4529,7.4529,7.4529,7.4529,7.4529,7.4763,0.0,0.0,7.5311,7.5703,7.6171,7.6364,7.6397,7.6856,7.7043,7.7035,7.7017,7.6708,7.6437,7.6813,7.6714,7.6498,7.6906,7.7033,7.7037,7.703,7.7017,7.6999,7.694,7.6958,7.7051,7.7394,7.747,7.7581,7.7958,7.8723,7.9331,7.927,7.9695,7.9903,7.9583,7.9118,7.8844,7.8991,7.9247,7.9572,8.0085,8.0516,8.0905,8.1411,8.145,8.1645,8.2152,8.123,8.0628,8.0628,8.0638,8.0659,8.0645,8.0665,8.0688,8.0711,8.0711,8.0753,8.0798,8.0769,8.0815,8.0819,8.0429,8.0272,8.0232,0.0,7.9411,7.8982,7.8976,7.866,7.823,7.8221,7.8256,7.8256,7.8256,7.8256,7.8255,0.0,0.0,0.0,0.0,0.0,0.0,0.0,0.0,0.0,0.0,0.0,0.0,0.0,0.0,0.0,0.0,0.0,0.0,0.0,0.0,7.7101,7.7101,7.7101,7.7101,7.7101,7.7114,7.6729,7.5987,7.6035,7.5688,7.4946,7.4946,7.4946,7.4946,7.4946,7.4946,7.4946,7.4946,7.5376,7.6079,7.6079,7.6469,7.7096,0.0,7.7104,7.7105,7.7108,7.7109,7.7109,7.7109,7.6553,7.6004,7.676,7.6544,7.6127,7.6873,7.7109,7.7109,7.7108,7.7106,7.71,7.7043,7.7026,7.7245,7.805,7.8244,7.8478,7.9334,8.0211,8.0815,8.0812,8.081,8.0622,8.0023,7.975,7.9468,7.8976,8.0076,8.1015,8.1328,8.1914,8.2343,8.2461,8.2382,8.2304,8.2304,8.2198,8.2148,8.2142,8.2119,8.2136,8.2113,8.2173,8.2224,8.2304,8.2304,8.2304,8.2304,8.2302,8.23,8.2261,8.1512,8.1156,8.1117,8.0375,7.9984,7.9866,7.9857,7.9814,7.9696,7.9682,7.9717,7.9717,7.9717,7.9717,7.9717,0.0,0.0,0.0,0.0,0.0,0.0,0.0,0.0,0.0,0.0,7.7084,7.7101,0.0,0.0,0.0,0.0,0.0,0.0,0.0,0.0,0.0,7.7101,7.7101,7.7101,7.7101,7.7104,7.7027,7.6871,7.6873,7.6796,7.6679,7.6679,7.6679,7.6679,7.6679,7.6679,7.6679,7.6679,7.6757,7.6874,7.6874,7.6993,7.7111,7.7085,0.0,0.0,7.7099,7.7101,7.7101,7.7101,7.6991,7.6873,7.7031,7.6992,7.6913,7.7066,7.7103,7.7102,7.7103,7.7106,7.7109,7.7109,7.707,7.7302,7.8161,7.8356,7.8629,7.9484,8.0374,8.0949,8.0898,8.0894,8.1056,8.1656,8.0578,8.0156,8.1445,8.1246,8.1516,8.2999,8.2648,8.257,8.3311,8.2726,8.2296,8.2296,8.2263,8.2265,8.2262,8.2263,8.2264,8.2265,8.2263,8.2299,8.2296,8.2296,8.2296,8.2296,8.2287,8.2282,8.2281,8.2152,8.2067,8.2067,8.1911,0.0,8.078,8.0777,8.0346,7.9681,7.9717,7.9717,7.9717,7.9717,7.9717,7.9717,0.0,0.0,0.0,0.0,0.0,0.0,0.0,7.5971,7.6443,7.6885,7.6997,7.7065,7.7085,7.7087,7.7092,0.0,0.0,0.0,0.0,0.0,0.0,7.7101,7.7101,7.7101,7.7101,7.7101,7.7101,7.7101,0.0,7.7101,7.7101,7.7101,7.7101,7.7101,7.7101,7.7101,7.7101,7.7101,7.7101,7.7101,7.7101,7.7101,7.7101,7.711,0.0,0.0,7.7627,7.7786,7.7864,7.8293,7.8456,7.8385,7.7916,7.7487,7.7173,7.7633,7.7473,7.7083,7.7083,7.709,7.7097,7.7097,7.7103,7.7458,7.8785,7.9098,7.945,8.078,8.1406,8.1679,8.1638,8.1247,8.1091,8.1522,8.0897,8.0655,8.1511,8.201,8.247,8.2861,8.29,8.2901,8.2939,8.2548,8.2472,8.2901,8.2901,8.2755,8.2301,8.2299,8.2295,8.2291,8.2282,8.2511,8.2901,8.2901,8.3135,8.3603,8.3595,8.3592,8.3591,8.3585,8.358,8.358,8.358,8.3346,8.2996,8.2996,8.245,8.1669,8.1669,8.1435,8.1044,8.1044,8.1044,8.1044,0.0,0.0,0.0,0.0,0.0,0.0,0.0,7.53,7.5808,7.6706,7.6897,7.6983,7.704,7.7063,7.7082,0.0,0.0,0.0,0.0,0.0,0.0,0.0,0.0,0.0,7.7101,0.0,0.0,7.7101,7.7101,0.0,0.0,0.0,0.0,0.0,7.7101,7.7101,7.7101,7.7101,7.7101,0.0,0.0,7.7101,7.7101,0.0,0.0,0.0,0.0,7.8391,7.8547,7.9405,7.9717,7.9601,7.9105,7.8367,7.7741,7.8238,7.7921,7.7335,7.714,7.711,7.7118,7.7118,7.7086,7.7561,7.9318,7.9708,8.0177,8.1935,8.2293,8.2298,8.2298,8.1595,8.1048,8.1243,8.1114,8.1062,8.1255,8.2418,8.3074,8.2606,8.2957,8.3152,8.2877,8.2684,8.2918,8.3738,8.3777,8.3514,8.2872,8.2824,8.2857,8.2857,8.2846,8.3152,8.3777,8.3777,8.4128,8.479,8.479,8.479,8.479,8.479,8.479,8.479,8.479,8.479,8.479,8.479,8.4401,8.3777,8.3777,8.3386,8.2838,8.2838,8.2838,8.2799,0.0,0.0,0.0,0.0,0.0,0.0,0.0,7.4645,7.5498,7.6482,7.6687,7.6766,7.6881,7.7027,7.7082,0.0,0.0,0.0,0.0,0.0,0.0,0.0,0.0,0.0,0.0,0.0,0.0,7.7101,7.7101,0.0,0.0,0.0,0.0,0.0,0.0,7.7101,7.7101,7.7101,0.0,0.0,0.0,0.0,0.0,0.0,0.0,0.0,0.0,7.8391,7.8547,7.9405,7.9717,7.9834,8.0538,8.0149,7.9328,7.8625,7.8352,7.8118,7.7335,7.7103,7.7103,7.7103,7.7104,7.7574,7.9292,7.9682,8.019,8.1945,8.2309,8.2318,8.2318,8.1577,8.1264,8.2044,8.1526,8.1281,8.2061,8.2293,8.2645,8.3308,8.2801,8.2995,8.4439,8.3855,8.3738,8.4634,8.4673,8.4636,8.4561,8.4559,8.4559,8.4559,8.4558,8.4595,8.4673,8.4673,8.4712,8.479,8.479,8.479,8.479,8.479,8.479,8.479,8.479,8.479,0.0,8.479,8.4751,8.4673,8.4673,8.4634,8.4556,8.4556,8.4556,8.4478,0.0,0.0,0.0,0.0,0.0,0.0,7.2629,7.3536,7.4503,7.552,7.6149,7.6579,7.6751,7.6878,7.696,7.708,0.0,0.0,0.0,0.0,0.0,0.0,0.0,0.0,0.0,0.0,7.7101,7.7101,7.7101,0.0,0.0,0.0,0.0,0.0,0.0,7.7101,7.7101,7.7101,0.0,0.0,0.0,0.0,0.0,0.0,0.0,0.0,0.0,0.0,8.0109,8.0966,8.1277,8.1317,8.1669,8.1552,8.1005,7.96,7.8819,7.8196,7.7335,7.7101,7.7101,7.7101,7.7101,7.757,7.9287,7.9717,8.0185,8.194,8.2298,8.2302,8.2302,8.16,8.1289,8.2146,8.1556,8.1317,8.2176,8.2723,8.2957,8.2801,8.3385,8.3853,8.4011,8.4167,8.4636,8.5534,8.6078,8.6352,8.6352,8.5376,8.479,8.479,8.479,8.5064,8.5573,8.5573,8.5846,8.6352,8.6352,8.6352,8.6352,8.6352,8.6352,8.6352,8.6352,8.6352,0.0,8.6352,8.6078,8.5573,8.5573,8.526,8.479,8.479,8.479,8.4751,0.0,0.0,0.0,0.0,0.0,7.096,7.1872,7.2775,7.3756,7.4777,7.574,7.6394,7.6612,7.6691,7.6837,7.7027,7.7049,0.0,0.0,0.0,0.0,0.0,0.0,0.0,0.0,0.0,7.7101,7.7101,7.7101,7.7101,0.0,0.0,7.7101,7.7101,0.0,0.0,0.0,0.0,0.0,0.0,0.0,0.0,0.0,0.0,0.0,0.0,0.0,0.0,0.0,0.0,0.0,8.2292,8.2292,8.2292,8.194,8.0224,7.9287,7.8546,7.7414,7.7101,7.7101,7.7101,7.7296,7.7882,7.9366,7.9912,8.0498,8.198,8.2292,8.2292,8.2292,8.1786,8.1591,8.2215,8.1786,8.1669,8.2528,8.3152,8.3386,8.3073,8.4088,8.4673,8.4284,8.5065,8.5805,8.6431,8.7054,8.7406,8.7406,8.6235,8.5571,8.5571,8.5571,8.5844,8.6471,8.6471,8.6783,8.7406,8.7406,8.7406,8.7406,8.7406,8.7406,8.7406,8.7406,8.7406,0.0,8.7406,8.7054,8.6471,8.6471,8.6119,8.5571,8.5571,8.5571,8.5532,0.0,0.0,0.0,0.0,0.0,0.0,7.1649,7.2553,7.3491,7.4577,7.5516,7.6205,7.646,7.6555,7.67,7.6865,7.6975,0.0,0.0,0.0,0.0,0.0,0.0,0.0,0.0,0.0,7.7101,7.7101,7.7101,7.7101,7.7101,7.7101,7.7101,7.7101,0.0,0.0,0.0,0.0,0.0,0.0,0.0,0.0,7.7101,0.0,0.0,0.0,0.0,0.0,0.0,0.0,0.0,0.0,0.0,8.2292,8.194,8.0224,7.9678,7.9326,7.757,7.7101,7.7101,7.7101,7.7765,7.8625,7.9483,8.0381,8.1239,8.2137,8.2292,8.2292,8.2292,8.2292,8.2292,8.2292,8.2292,8.2567,8.3386,8.3504,8.3816,8.4673,8.479,8.5142,8.6002,8.6859,8.7367,8.7406,8.7406,8.7406,8.7406,8.7367,8.7367,8.7367,8.7367,8.7367,8.7406,8.7406,8.7406,8.7406,8.7406,8.7406,8.7406,8.7406,8.7406,8.7406,8.7406,8.7406,0.0,8.7406,8.7406,8.7406,8.7406,8.7367,8.7367,8.7367,8.7367,8.725,0.0,0.0,0.0,0.0,0.0,0.0,0.0,7.1625,7.2555,7.3538,7.4509,7.5456,7.626,7.6472,7.6589,7.6821,7.6923,0.0,0.0,0.0,0.0,0.0,0.0,0.0,0.0,0.0,7.7101,7.7101,7.7101,7.7101,7.7101,7.7101,7.7101,7.7101,7.7101,7.7101,0.0,0.0,0.0,0.0,0.0,7.7101,7.7101,0.0,0.0,0.0,0.0,0.0,0.0,0.0,0.0,0.0,0.0,0.0,0.0,8.0927,8.0576,8.0341,7.9209,7.8897,7.8897,7.8897,7.9092,7.9522,8.0381,8.081,8.1239,8.2137,8.2292,8.2292,8.2292,8.2292,8.2292,8.2292,8.2292,8.2567,8.3386,8.3504,8.3816,8.4712,8.5338,8.6041,8.6898,8.725,8.7406,8.7406,8.7406,8.7406,8.7406,8.7406,8.7406,8.7406,8.7406,8.7406,8.7406,8.7406,8.7406,8.7406,8.7406,8.7406,8.7406,8.7406,8.7406,8.7406,8.7406,8.7406,8.7406,8.7406,8.7406,8.7406,8.7406,8.7406,8.7406,8.7406,8.7406,8.7367,0.0,0.0,0.0,0.0,0.0,0.0,0.0,7.129,7.2157,7.3124,7.4066,7.5057,7.616,7.638,7.6547,7.6752,7.6869,0.0,0.0,0.0,0.0,0.0,0.0,0.0,7.7101,7.7101,7.7101,7.7101,7.7101,7.7101,7.7101,7.7101,7.7101,7.7101,7.7101,7.7101,0.0,0.0,0.0,0.0,7.7101,7.7101,7.7101,0.0,0.0,0.0,0.0,0.0,0.0,0.0,0.0,0.0,0.0,0.0,0.0,0.0,8.1474,8.1239,8.0029,7.9717,7.9717,7.9717,7.9951,8.0341,8.089,8.1239,8.163,8.2176,8.2292,8.2292,8.2292,8.2292,8.2292,8.2292,8.2292,8.2684,8.3816,8.3972,8.4441,8.5649,8.6274,8.6783,8.7367,8.7406,8.7406,8.7406,8.7406,8.7406,8.7406,8.7406,8.7406,8.7406,8.7406,8.7406,8.7406,8.7406,8.7406,8.7406,8.7406,8.7406,8.7406,8.7406,8.7406,8.7406,8.7406,8.7406,0.0,8.7406,8.7406,8.7406,8.7399,8.7395,8.7395,8.7388,8.7345,8.7345,0.0,0.0,0.0,0.0,0.0,0.0,0.0,7.1329,7.2157,7.3076,7.3982,7.4916,7.5972,7.6275,7.645,7.6655,0.0,0.0,0.0,0.0,0.0,0.0,0.0,0.0,7.7101,7.7101,7.7101,7.7101,7.7101,7.7101,7.7101,7.7101,7.7101,7.7101,7.7101,7.71,0.0,0.0,0.0,0.0,7.7098,7.7098,0.0,0.0,0.0,0.0,0.0,0.0,0.0,0.0,0.0,0.0,0.0,0.0,0.0,0.0,0.0,0.0,0.0,7.987,7.9873,7.9873,8.0498,8.1085,8.1085,8.1708,0.0,8.2292,8.2292,8.229,8.229,8.229,8.2328,8.2367,8.2328,8.2913,8.4631,8.4943,8.5568,8.7209,8.7402,8.7402,8.7402,8.7402,8.7402,8.7402,8.7402,8.7402,8.7402,8.7402,8.7402,8.7402,8.7402,8.7402,8.7406,8.7406,8.7406,8.7404,8.7404,8.7404,8.7402,8.7402,8.7402,0.0,8.7402,8.7402,8.7402,8.7402,8.7402,8.7401,8.7382,8.7373,8.7371,8.7302,8.7292,8.7292,0.0,0.0,0.0,0.0,0.0,0.0,0.0,0.0,0.0,0.0,7.3181,7.4105,7.5025,7.5858,7.637,0.0,0.0,0.0,0.0,0.0,0.0,0.0,0.0,0.0,7.7101,7.7101,7.7101,7.7101,7.7101,7.7101,7.7101,7.7101,7.7101,7.7101,7.7101,7.7094,0.0,0.0,0.0,0.0,7.702,7.702,0.0,0.0,0.0,0.0,7.9632,8.0735,0.0,0.0,0.0,0.0,0.0,0.0,0.0,0.0,8.2222,8.213,8.17,0.0,8.1706,8.1706,8.1825,8.1981,0.0,8.2137,8.2292,8.2292,8.2243,8.2232,8.2232,8.222,8.2442,8.3105,8.2676,8.3027,8.5407,8.6304,8.6896,8.7345,8.7369,8.7319,8.7319,8.7319,8.7319,8.7319,8.7319,8.7319,8.7319,8.7319,8.7319,8.7319,8.7319,8.7336,8.7406,8.7406,8.7399,8.7386,8.7386,8.7375,8.7319,8.7319,8.7319,8.7319,8.7319,8.7319,8.7319,8.7319,8.7319,8.7316,8.7331,8.732,8.7315,8.7176,8.7149,8.7146,0.0,0.0,0.0,0.0,0.0,0.0,0.0,0.0,0.0,0.0,0.0,7.385,7.4696,7.5652,0.0,0.0,0.0,0.0,0.0,0.0,0.0,0.0,0.0,7.7094,7.7101,7.7101,7.7097,7.7089,7.7089,7.7085,7.7039,7.7039,7.7039,7.7039,7.7039,7.7065,0.0,0.0,0.0,7.6913,7.6913,0.0,0.0,0.0,0.0,0.0,7.9366,8.0407,0.0,8.2038,8.221,8.2267,0.0,0.0,0.0,0.0,8.2128,8.2095,8.2095,8.2185,8.2267,8.2267,8.2267,8.2267,8.2267,8.2267,8.2267,8.2267,8.2212,8.2155,8.2155,8.2123,8.2368,8.3223,8.2989,8.3468,8.5679,8.6724,8.7273,8.7343,8.7267,8.7199,8.7199,8.7186,8.7176,8.7176,8.7176,8.7176,8.7176,8.7176,8.7176,8.7176,8.7176,8.7223,8.7338,8.7341,8.7369,8.7346,8.7346,8.7284,8.7199,8.7199,8.7192,8.7176,8.7176,8.7176,8.7176,8.7176,8.7176,8.7173,8.7178,8.7113,8.7051,8.6977,8.6937,8.6914,0.0,0.0,0.0,0.0,0.0,0.0,0.0,0.0,0.0,0.0,0.0,0.0,0.0,0.0,0.0,0.0,0.0,0.0,0.0,0.0,0.0,0.0,7.7055,7.7075,7.7094,7.7094,7.7085,7.7063,7.7063,7.7053,7.699,7.699,7.6988,7.6983,7.6983,7.6968,0.0,0.0,0.0,7.6763,7.6756,0.0,0.0,0.0,0.0,0.0,0.0,0.0,0.0,8.1772,8.2106,8.2167,8.2167,0.0,0.0,0.0,0.0,0.0,8.1925,8.2036,8.2106,8.2164,8.2167,8.2167,8.2167,8.2167,8.2167,8.2167,8.2106,8.2044,8.2038,8.21,8.24,8.3209,8.3603,8.4334,8.5728,8.665,8.7188,8.7219,8.7121,8.7032,8.7024,8.6994,8.6934,8.6934,8.6934,8.6934,8.6934,8.6934,8.6934,8.6934,8.6934,8.7044,8.7208,8.7228,8.7262,8.7231,8.7225,8.7149,8.7032,8.7028,8.7007,8.6934,0.0,0.0,8.6934,8.6934,8.6934,8.6964,8.6952,8.687,8.6786,8.6755,8.6737,8.6651,0.0,0.0,0.0,0.0,0.0,0.0,0.0,0.0,0.0,0.0,0.0,0.0,0.0,0.0,0.0,0.0,0.0,0.0,0.0,0.0,0.0,7.6672,7.687,7.7029,7.7014,7.7016,7.7004,7.7017,7.7017,7.6952,7.6819,7.6819,7.6842,7.6812,7.6812,7.6791,7.6751,0.0,0.0,7.6621,7.6575,0.0,0.0,0.0,0.0,0.0,0.0,0.0,0.0,8.1566,8.1875,8.1948,8.1948,0.0,0.0,0.0,0.0,0.0,8.1693,8.1698,8.1723,8.1913,8.1948,8.1948,8.1948,8.1948,8.1948,8.1948,8.1878,8.1838,8.1761,8.2363,8.3087,8.3822,8.5251,8.6117,8.5709,8.6413,8.6918,8.6889,8.687,8.6814,8.6771,8.6755,8.6755,8.6755,8.6755,8.6755,8.6755,8.6755,8.6755,8.6755,8.6755,8.6771,8.6803,8.6977,8.7066,8.702,8.6946,8.6856,8.683,8.6787,8.676,8.6755,0.0,8.6755,8.6755,8.6755,8.6755,8.6749,8.6681,8.6651,8.6627,8.6578,8.6524,8.651,0.0,0.0,0.0,0.0,0.0,0.0,0.0,0.0,0.0,0.0,0.0,0.0,0.0,0.0,0.0,0.0,0.0,0.0,0.0,0.0,7.6405,7.6477,7.6596,7.6758,7.6873,7.6876,7.6861,7.6823,7.6802,7.6766,7.6707,7.6643,7.6657,7.6639,7.6639,7.6607,7.6555,7.6492,7.6475,7.6433,0.0,0.0,0.0,0.0,0.0,0.0,0.0,0.0,0.0,0.0,8.1684,8.1723,8.1723,0.0,0.0,0.0,0.0,0.0,8.1508,8.1477,8.1477,8.1552,8.1677,8.1723,8.1723,8.1723,8.1723,8.1723,8.2067,8.2326,8.23,8.2958,8.3739,8.4565,8.5791,8.6499,8.6173,8.6504,8.6731,8.6688,8.6645,8.6649,8.6578,8.6539,8.6558,8.6558,8.6558,8.6558,8.6558,8.6558,8.6558,8.6558,8.6558,8.6558,8.6558,8.6641,8.6698,8.6766,8.6705,8.6681,8.6655,8.6591,8.6552,8.6558,0.0,8.6558,8.6558,8.6558,8.6558,8.6512,8.6517,8.6437,8.6394,8.6315,8.6269,8.6262,0.0,0.0,0.0,0.0,0.0,0.0,0.0,0.0,0.0,0.0,0.0,0.0,0.0,0.0,0.0,0.0,0.0,0.0,0.0,7.6212,7.6262,7.632,7.6338,7.6475,7.6715,7.6719,7.6699,7.6613,7.6573,7.656,7.654,7.6443,7.6416,7.6416,7.6416,7.6389,7.6343,7.6326,7.6305,7.6257,0.0,0.0,0.0,0.0,0.0,0.0,0.0,0.0,0.0,0.0,0.0,0.0,0.0,0.0,0.0,8.1439,8.1395,8.134,8.1326,8.1277,8.1234,8.1234,8.1395,8.1529,8.1529,8.1529,8.1606,8.18,8.2339,8.2793,8.2973,8.3641,8.4407,8.5263,8.5972,8.6454,8.6487,8.6544,8.6531,8.6494,8.6444,8.6404,8.6421,8.6361,8.6323,8.6323,8.6323,8.6323,8.6323,8.6323,8.6323,8.6323,8.6323,8.6323,8.6323,8.6323,8.6397,8.6565,8.6507,8.6485,8.6411,8.639,8.6384,8.6323,8.6323,8.6323,8.6323,8.6323,8.6323,8.6323,8.6323,8.6285,8.6183,8.6118,8.6094,8.6077,0.0,0.0,0.0,0.0,0.0,0.0,0.0,0.0,0.0,0.0,0.0,0.0,0.0,0.0,0.0,0.0,0.0,0.0,0.0,7.6069,7.6118,7.6125,7.6185,7.6305,7.6516,7.6516,7.6491,7.6433,7.6427,7.6366,7.6326,7.6257,7.6225,7.6225,7.6225,7.6225,7.6212,7.6152,7.6118,7.6104,7.6034,0.0,0.0,0.0,0.0,0.0,0.0,0.0,0.0,0.0,0.0,0.0,0.0,0.0,8.1298,8.1227,8.1236,8.1214,8.1139,8.1116,8.1108,8.1108,8.1236,8.1319,8.1319,8.1319,8.1551,8.2361,8.2586,8.2834,8.3494,8.4296,8.5079,8.5887,8.6153,8.6208,8.6223,8.6361,8.6376,8.6231,8.6215,8.6215,8.6126,8.611,8.611,8.611,8.611,8.611,8.611,8.611,8.611,8.611,8.611,8.611,8.611,8.611,8.6238,8.6406,8.63,8.6215,8.62,8.6159,8.6118,8.611,8.611,8.611,8.611,8.611,8.611,8.611,8.611,8.611,8.6102,8.6094,8.6094,8.6077,0.0,0.0,0.0,0.0,0.0,0.0,0.0,0.0,0.0,0.0,0.0,0.0,0.0,0.0,0.0,0.0,0.0,0.0,0.0,7.6005,7.602,7.602,7.6048,7.6111,7.6186,7.6268,7.6293,7.6268,7.6231,7.6166,7.6104,7.6076,7.6062,7.6062,7.6062,7.6062,7.6062,7.6034,7.602,7.6058,7.6029,7.6015,0.0,0.0,0.0,0.0,0.0,0.0,0.0,0.0,8.1184,8.1184,8.1184,8.1184,8.1177,8.1147,8.1139,8.1131,8.11,8.1093,8.1093,8.1093,8.1524,8.1801,8.13,8.1184,8.1415,8.2224,8.284,8.3641,8.495,8.5417,8.5747,8.6055,8.6118,8.6143,8.6143,8.6167,8.6175,8.6143,8.6143,8.6126,8.6094,8.6094,8.6094,8.6094,8.6094,8.6094,8.6094,8.6094,8.6094,8.6094,8.6094,8.6094,8.6094,8.6094,8.6126,8.623,8.6159,8.6143,8.6143,8.611,8.6094,8.6094,8.6094,8.6094,8.6094,8.6094,8.6094,8.6094,8.6094,8.6094,8.6094,8.6094,8.6094,8.6069,0.0,0.0,0.0,0.0,0.0,0.0,0.0,0.0,0.0,0.0,0.0,0.0,0.0,0.0,0.0,0.0,0.0,0.0,7.6015,7.6015,7.6015,7.6015,7.6015,7.6015,7.6015,7.6076,7.6125,7.6125,7.6083,7.6027,7.6015,7.6015,7.6015,7.6015,7.6015,7.6015,7.6015,7.6015,7.6015,7.6015,7.6015,7.6015,0.0,0.0,0.0,0.0,0.0,0.0,0.0,0.0,8.1093,8.1093,8.1093,8.1093,8.1093,8.1093,8.1093,8.1093,8.1093,8.1093,8.117,8.14,8.19,8.2247,8.1939,8.19,8.2131,8.2939,8.3785,8.4747,8.5901,8.6094,8.6094,8.6094,8.6094,8.6094,8.6094,8.6094,8.6094,8.6094,8.6094,8.6094,8.6094,8.6094,8.6094,8.6094,8.6094,8.6094,8.6094,8.6094,8.6094,8.6094,8.6094,8.6094,8.6094,8.6094,8.6094,8.6094,8.6094,8.6094,8.6094,8.6094,8.6094,8.6094,8.6094,8.6094,8.6094,8.6094,8.6094,8.6094,8.6094,8.6094,8.6094,8.6094,8.6094,8.6069,0.0,0.0,0.0,0.0,0.0,0.0,0.0,0.0,0.0,0.0,0.0,0.0,0.0,0.0,0.0,0.0,0.0,0.0,7.6015,7.6015,7.6015,7.6015,7.6015,7.6015,7.6015,7.6015,7.6015,7.6015,7.6015,7.6015,7.6015,7.6015,7.6015,7.6015,7.6015,7.6015,7.6015,7.6015,7.6015,7.6015,7.6015,7.6015,7.6015,0.0,0.0,0.0,0.0,0.0,0.0,0.0,8.1093,8.1093,8.1093,8.1093,8.1093,8.1093,8.1093,8.1093,8.1093,8.1093,8.1285,8.2093,8.2324,8.2554,8.3409,8.3601,8.387,8.4709,8.5547,8.6094,8.6094,8.6094,8.6094,8.6094,8.6094,8.6094,8.6094,8.6094,8.6094,8.6094,8.6094,8.6094,8.6094,8.6094,8.6094,8.6094,8.6094,8.6094,8.6094,8.6094,8.6094,8.6094,8.6094,8.6094,8.6094,8.6094,8.6094,8.6094,8.6094,8.6094,8.6094,8.6094,8.6094,8.6094,8.6094,8.6094,8.6094,8.6094,8.6094,8.6094,8.6094,8.6094,8.6094,8.6094,8.6094,8.6077,0.0,0.0,0.0,0.0,0.0,0.0,0.0,0.0,0.0,0.0,0.0,0.0,0.0,0.0,0.0,0.0,0.0,0.0,7.6015,7.6015,7.6015,7.6015,7.6015,7.6015,7.6015,7.6015,7.6015,7.6015,7.6015,7.6015,7.6015,7.6015,7.6015,7.6015,7.6015,7.6015,7.6015,7.6015,7.6015,7.6015,7.6015,7.6015,0.0,0.0,0.0,0.0,0.0,0.0,0.0,0.0,0.0,0.0,8.1093,8.1093,8.1093,8.1093,8.1093,8.1093,8.1093,8.1093,8.1285,8.2093,8.2747,8.3439,8.4324,8.4055,8.387,8.4709,8.5547,8.6094,8.6094,8.6094,8.6094,8.6094,8.6094,8.6094,8.6094,8.6094,8.6094,8.6094,8.6094,8.6094,8.6094,8.6094,8.6094,8.6094,8.6094,8.6094,8.6094,8.6094,8.6094,8.6094,8.6094,8.6094,8.6094,8.6094,8.6094,8.6094,8.6094,8.6094,8.6094,8.6094,8.6094,8.6094,8.6094,8.6094,8.6094,8.6094,8.6094,8.6094,8.6094,8.6094,8.6094,8.6094,8.6094,8.6069,0.0,0.0,0.0,0.0,0.0,0.0,0.0,0.0,0.0,0.0,7.1371,7.2058,0.0,0.0,0.0,0.0,0.0,0.0,0.0,7.6015,7.6015,7.6015,7.6015,7.6015,7.6015,7.6015,7.6015,7.6015,7.6015,7.6015,7.6015,7.6015,7.6015,7.6015,7.6015,7.6015,7.6015,7.6015,7.6015,7.6015,7.6015,7.6207,7.6553,0.0,0.0,0.0,0.0,0.0,0.0,0.0,0.0,0.0,8.1093,8.1093,8.1093,8.1093,8.1093,8.1093,8.1093,8.1093,8.1362,8.2516,8.3216,8.3909,8.5093,8.4978,8.4747,8.5286,8.5747,8.6094,8.6094,8.6094,8.6094,8.6094,8.6094,8.6094,8.6094,8.6094,8.6094,8.6094,8.6094,8.6094,8.6094,8.6094,8.6094,8.6094,8.6094,8.6094,8.6094,8.6094,8.6094,8.6094,8.6094,8.6094,8.6094,8.6094,8.6094,8.6094,8.6094,8.6094,8.6094,8.6094,8.6094,8.6094,8.6094,8.6094,8.6094,8.6094,8.6094,8.6094,8.6094,8.6094,8.6085,8.6052,8.6043,8.6056,0.0,0.0,0.0,0.0,0.0,0.0,0.0,0.0,0.0,0.0,7.1965,7.2739,0.0,0.0,0.0,0.0,0.0,0.0,0.0,7.6015,7.6015,7.6015,7.6015,7.6015,7.6015,7.6015,7.6015,7.6015,7.6015,7.6015,7.6015,7.6015,7.6015,7.6015,7.6015,7.6015,7.6015,7.6015,7.6015,7.6015,7.6015,7.6515,7.733,7.7369,0.0,0.0,0.0,0.0,0.0,0.0,0.0,0.0,8.1093,8.1093,8.1093,8.1093,8.1093,8.1093,8.1093,8.1131,8.1593,8.3216,8.3717,8.4209,8.5747,8.6094,8.6094,8.6094,8.6094,8.6094,8.6094,8.6094,8.6094,8.6094,8.6094,8.6094,8.6094,8.6094,8.6094,8.6094,8.6094,8.6094,8.6094,8.6094,8.6094,8.6094,8.6094,8.6094,8.6094,8.6094,8.6094,8.6094,8.6094,8.6094,8.6094,8.6094,8.6094,8.6094,8.6094,8.6094,8.6094,8.6094,8.6094,8.6094,8.6094,8.6094,8.6094,8.6094,8.6094,8.6094,8.6085,8.6077,8.6069,8.6022,8.5987,8.5979,0.0,0.0,0.0,0.0,0.0,0.0,0.0,0.0,0.0,0.0,0.0,0.0,0.0,0.0,0.0,0.0,0.0,0.0,0.0,7.6015,7.6015,7.6015,7.6015,7.6015,7.6015,7.6015,7.6015,7.6015,7.6015,7.6015,7.6015,7.6015,7.6015,7.6015,7.6015,7.6015,7.6015,7.6015,7.6015,7.6015,7.6015,7.6515,7.7369,7.7984,7.89,0.0,0.0,0.0,0.0,0.0,0.0,0.0,8.1093,8.1093,8.1093,8.1093,8.1093,8.1093,8.1093,8.1554,8.2285,8.3332,8.4593,8.567,8.6017,8.6094,8.6094,8.6094,8.6094,8.6094,8.6094,8.6094,8.6094,8.6094,8.6094,8.6094,8.6094,8.6094,8.6094,8.6094,8.6094,8.6094,8.6094,8.6094,8.6094,8.6094,8.6094,8.6094,8.6094,8.6094,8.6094,8.6094,8.6094,8.6094,8.6094,8.6094,8.6094,8.6094,8.6094,8.6094,8.6094,8.6094,8.6094,8.6094,8.6094,8.6094,8.6094,8.6094,8.6094,8.6085,8.6056,8.6031,8.6022,8.5879,8.5843,8.5834,0.0,0.0,0.0,0.0,0.0,0.0,0.0,0.0,0.0,0.0,0.0,0.0,0.0,0.0,0.0,0.0,0.0,0.0,0.0,0.0,7.6015,7.6015,7.6015,7.6015,7.6015,7.6015,7.6015,7.6015,7.6015,7.6015,7.6015,7.6015,7.6015,7.6015,7.6015,7.6015,7.6015,7.6015,7.6015,7.6053,7.6438,7.713,7.7984,7.8784,7.9669,8.0477,8.0939,0.0,0.0,0.0,0.0,0.0,0.0,0.0,8.1093,8.1093,8.1093,8.1093,8.1093,8.1708,8.2593,8.3901,8.517,8.6094,8.6094,8.6094,8.6094,8.6094,8.6094,8.6094,8.6094,8.6094,8.6094,8.6094,8.6094,8.6094,8.6094,8.6094,8.6094,8.6094,8.6094,8.6094,8.6094,8.6094,8.6094,8.6094,8.6094,8.6094,8.6094,8.6094,8.6094,8.6094,8.6094,8.6094,8.6094,8.6094,8.6094,8.6094,8.6094,8.6094,8.6094,8.6094,8.6094,8.6094,8.6094,8.6094,8.6094,8.6094,8.6069,8.6065,8.6022,8.597,8.5879,8.5779,8.5742,8.5733,0.0,0.0,0.0,0.0,0.0,0.0,0.0,0.0,0.0,0.0,0.0,0.0,0.0,0.0,0.0,0.0,0.0,0.0,0.0,0.0,0.0,7.6015,7.6015,7.6015,7.6015,7.6015,7.6015,7.6015,7.6015,7.6015,7.6015,7.6015,7.6015,7.6015,7.6015,7.6015,7.6015,7.6169,7.6207,7.6284,7.7176,7.7984,7.8792,7.9515,8.0323,8.1093,8.1093,8.1093,8.1093,8.1093,0.0,0.0,0.0,0.0,8.1093,8.1093,8.1093,8.1093,8.1093,8.1785,8.2939,8.467,8.5624,8.6094,8.6094,8.6094,8.6094,8.6094,8.6094,8.6094,8.6094,8.6094,8.6094,8.6094,8.6094,8.6094,8.6094,8.6094,8.6094,8.6094,8.6094,8.6094,8.6094,8.6094,8.6094,8.6094,8.6094,8.6094,8.6094,8.6094,8.6094,8.6094,8.6094,8.6094,8.6094,8.6094,8.6094,8.6094,8.6094,8.6094,8.6094,8.6094,8.6094,8.6094,8.6094,8.6085,8.6069,8.6069,8.6056,8.5979,8.5961,8.5861,8.5779,8.5686,8.5686,8.5628,0.0,0.0,0.0,0.0,0.0,0.0,0.0,0.0,0.0,0.0,7.5033,0.0,0.0,0.0,0.0,0.0,0.0,0.0,7.6015,0.0,0.0,7.6015,7.6015,7.6015,7.6015,7.6015,7.6015,7.6015,7.6015,7.6015,7.6015,7.6015,7.6015,7.6015,7.6015,7.6015,7.6053,7.683,7.7138,7.7215,7.8023,7.8861,7.9631,7.9738,8.0323,8.1093,8.1093,8.1093,8.1093,8.1093,8.1093,0.0,0.0,0.0,8.1093,8.1093,8.1093,8.1093,8.1093,8.2247,8.3832,8.5517,8.6017,8.6094,8.6094,8.6094,8.6094,8.6094,8.6094,8.6094,8.6094,8.6094,8.6094,8.6094,8.6094,8.6094,8.6094,8.6094,8.6094,8.6094,8.6094,8.6094,8.6094,8.6094,8.6094,8.6094,8.6094,8.6094,8.6094,8.6094,8.6094,8.6094,8.6094,8.6094,8.6094,8.6094,8.6094,8.6094,8.6094,8.6094,8.6094,8.6094,8.6094,8.6094,8.6094,8.609,8.6022,8.6022,8.5923,8.5825,8.5742,8.5743,8.5714,8.557,8.5531,8.5531,0.0,0.0,0.0,0.0,0.0,0.0,0.0,0.0,0.0,0.0,0.0,7.5857,0.0,0.0,0.0,7.6015,7.6015,7.6015,7.6015,7.6015,7.6015,7.6015,7.6015,7.6015,7.6015,7.6015,7.6015,7.6015,7.6476,7.6746,7.6746,7.7169,7.6899,7.6015,7.6015,7.6284,7.6746,7.7138,7.7561,7.8061,7.89,7.9477,7.9854,8.0323,8.0785,0.0,0.0,0.0,0.0,8.1093,8.1093,8.1093,8.1093,0.0,0.0,0.0,8.1093,8.1285,8.2247,8.3024,8.3986,8.567,8.6094,8.6094,8.6094,8.6094,8.6094,8.6094,8.6094,8.6094,8.6094,8.6094,8.6094,8.6094,8.6094,8.6094,8.6094,8.6094,8.6094,8.6094,8.6094,8.6094,8.6094,8.6094,8.6094,8.6094,8.6094,8.6094,8.6094,8.6094,8.6094,8.6094,8.6094,8.6094,8.6094,8.6094,8.6094,8.6094,8.6094,8.6094,8.6085,8.6043,8.6018,8.6018,8.6018,8.5966,8.5879,8.5879,8.5825,8.5733,8.5724,8.5638,8.557,8.5521,8.5501,8.5501,0.0,0.0,0.0,0.0,0.0,0.0,0.0,0.0,0.0,0.0,0.0,0.0,0.0,0.0,0.0,0.0,7.6015,7.6015,7.6015,7.6015,7.6015,7.6015,7.6015,7.6092,7.6322,7.6322,7.6438,7.663,7.7292,7.7599,7.7638,7.8215,7.783,7.663,7.663,7.7015,7.7638,7.7823,7.8292,7.8907,7.9785,8.0131,8.0208,8.0862,0.0,0.0,0.0,0.0,0.0,0.0,0.0,0.0,8.1093,8.1093,0.0,0.0,0.0,8.1477,8.3139,8.3585,8.3953,8.5662,8.6077,8.606,8.6085,8.6094,8.6094,8.6094,8.6094,8.6094,8.6094,8.6094,8.6094,8.6094,8.6094,8.6094,8.6094,8.6094,8.6094,8.6094,8.6286,8.644,8.644,8.6632,8.6748,8.6748,8.6555,8.644,8.644,8.6209,8.6094,8.6094,8.6094,8.6094,8.6094,8.6324,8.6555,8.6748,8.6748,8.6731,8.6705,8.6415,8.6277,8.6233,8.6029,8.587,8.5779,8.5779,8.5723,8.5628,8.5628,8.558,8.5501,8.5501,8.5501,8.5501,0.0,0.0,0.0,0.0,0.0,0.0,0.0,0.0,0.0,0.0,0.0,0.0,7.6044,7.6015,7.6015,7.6015,7.6015,7.6015,7.6015,7.6015,7.6015,7.6015,7.6015,0.0,7.7215,7.7215,7.7599,7.8369,7.8407,7.8446,7.8446,7.8484,7.8446,7.8369,7.8369,7.8407,7.8484,7.9323,7.97,7.9815,0.0,0.0,0.0,0.0,0.0,0.0,0.0,0.0,0.0,0.0,0.0,0.0,0.0,0.0,8.1093,0.0,0.0,0.0,8.3139,8.3498,8.3832,8.5646,8.6035,8.6031,8.6077,8.6094,8.6094,8.6094,8.6094,8.6094,8.6094,8.6094,8.6094,8.6094,8.6094,8.6094,8.6094,8.6094,8.6094,8.6094,8.6824,8.7325,8.7325,8.8064,8.8564,8.8564,8.7786,8.7325,8.7325,8.6555,8.6094,8.6094,8.6094,8.6094,8.6094,8.6901,8.7748,8.8564,8.8564,8.8513,8.8348,8.7533,8.7041,8.6796,8.6124,8.577,8.5724,8.5724,8.5619,8.5511,8.5511,8.5511,8.5501,8.5501,8.5501,8.5501,0.0,0.0,0.0,0.0,0.0,0.0,0.0,0.0,0.0,0.0,0.0,0.0,0.0,7.6015,7.6015,7.6015,7.6015,7.6015,7.6015,7.6515,7.6823,7.6823,7.733,7.7753,7.8061,7.8061,7.8215,7.8484,7.9054,7.9323,7.9361,7.99,8.0169,8.0131,7.8984,7.883,7.9361,7.9669,8.0123,8.0669,0.0,0.0,0.0,0.0,0.0,0.0,0.0,0.0,0.0,0.0,0.0,0.0,0.0,0.0,0.0,8.1093,8.1477,8.2085,8.3174,8.3832,8.449,8.5616,8.594,8.6014,8.6039,8.6052,8.6094,8.6094,8.6094,8.6094,8.6094,8.6094,8.6094,8.6094,8.6094,8.6286,8.6863,8.694,8.7132,8.7709,8.8017,8.8218,8.8218,8.8526,8.8718,8.8718,8.841,8.8218,8.8218,8.7948,8.7786,8.7786,8.7786,8.7786,8.7786,8.8064,8.841,8.8718,8.8611,8.8567,8.8493,8.8049,8.7792,8.7724,8.7388,8.6632,8.557,8.557,8.5541,8.5501,8.5501,8.5501,8.5501,8.5501,8.5501,8.5501,0.0,0.0,0.0,0.0,0.0,0.0,0.0,0.0,0.0,7.6426,0.0,0.0,0.0,0.0,7.613,7.6399,7.6438,7.6553,7.6823,7.7369,7.7715,7.7715,7.8215,7.8638,7.8938,7.8938,7.91,7.9369,7.9939,8.0246,8.0246,8.0823,8.1093,8.1054,7.99,7.9669,8.0246,8.0246,8.0554,8.1093,0.0,0.0,8.1093,0.0,0.0,0.0,0.0,0.0,0.0,0.0,0.0,0.0,0.0,0.0,0.0,0.0,8.1771,8.2399,8.3379,8.4063,8.4678,8.5493,8.5742,8.5788,8.589,8.594,8.6009,8.6043,8.6069,8.6094,8.6094,8.6094,8.6094,8.6094,8.6363,8.6748,8.7325,8.7632,8.8064,8.8641,8.894,8.9094,8.9094,8.9363,8.9556,8.9556,8.9286,8.9094,8.9094,8.8872,8.8718,8.8718,8.8718,8.8833,8.9094,8.9094,8.9231,8.9474,8.9365,8.9301,8.9227,8.8826,8.8623,8.8545,8.8255,8.7422,8.639,8.639,8.639,8.639,8.639,8.639,8.639,8.639,8.639,8.639,0.0,0.0,0.0,0.0,0.0,0.0,0.0,0.0,7.6555,7.6421,0.0,0.0,0.0,0.0,0.0,7.7253,7.733,7.7676,7.8446,7.8523,7.8523,7.8523,7.8561,7.8977,7.9815,7.9854,8.0246,8.1093,8.1093,8.1093,8.1093,8.1093,8.1093,8.1093,8.1093,8.1093,8.1093,8.1093,8.1093,8.1093,0.0,8.1093,8.1093,0.0,0.0,0.0,8.117,8.1162,0.0,0.0,0.0,0.0,0.0,0.0,0.0,0.0,0.0,0.0,0.0,0.0,0.0,8.5222,8.5373,8.5352,8.5609,8.5733,8.5834,8.5979,8.6065,8.6085,8.6085,8.6085,8.6085,8.6085,8.6824,8.7401,8.744,8.8179,8.8756,8.8756,8.9479,8.9932,8.9932,9.0701,9.121,9.121,9.0432,8.9932,8.9932,8.921,8.8756,8.8756,8.8756,8.9133,8.9932,8.9932,9.0311,9.098,9.1018,9.0877,9.0671,8.9877,8.9473,8.9294,8.8492,8.8148,8.8148,8.812,8.812,8.812,8.812,8.812,8.812,8.812,8.812,8.812,0.0,0.0,0.0,0.0,0.0,7.6952,7.6865,7.6626,7.6411,0.0,0.0,0.0,7.6868,7.7445,7.7907,7.8138,7.8176,7.8253,7.8484,7.9092,7.9438,7.9438,8.0054,8.0477,8.0746,8.0746,8.0862,8.1093,8.1093,8.1093,8.1093,8.1093,8.1093,8.1093,8.1093,8.1093,8.1093,8.1093,8.1093,8.1093,8.1093,8.1093,0.0,0.0,0.0,0.0,0.0,8.2765,0.0,0.0,8.204,8.2449,0.0,0.0,0.0,0.0,0.0,0.0,8.3628,0.0,0.0,0.0,0.0,0.0,8.5094,8.5373,8.5628,8.5771,8.5926,8.6014,8.5905,8.5949,8.6014,8.5905,8.674,8.7632,8.8256,8.9056,8.9787,9.0441,9.071,9.0825,9.0825,9.1056,9.121,9.121,9.097,9.0825,9.0825,9.0633,9.0517,9.0517,9.0517,9.0633,9.0825,9.0825,9.0888,9.098,9.0953,9.0838,9.0709,9.0398,9.027,9.0239,9.0009,8.9905,8.9829,8.8606,8.812,8.812,8.812,8.812,8.812,8.812,8.812,8.812,0.0,0.0,0.0,0.0,0.0,7.7059,7.7272,7.7055,7.7016,0.0,0.0,0.0,7.7753,7.8215,7.8638,7.9015,7.9054,7.9208,7.9561,8.0054,8.0323,8.0323,8.0823,8.1093,8.1093,8.1093,8.1093,8.1093,8.1093,8.1093,8.1093,8.1093,8.1093,8.1093,8.1093,8.1093,8.1093,8.1093,8.1093,0.0,8.1093,0.0,0.0,8.2131,8.2516,0.0,0.0,0.0,8.3312,8.2639,8.2579,0.0,0.0,0.0,0.0,0.0,0.0,0.0,0.0,0.0,0.0,0.0,0.0,0.0,8.4547,8.4908,8.5249,8.5403,8.5638,8.5779,8.576,8.5806,8.5881,8.5815,8.6643,8.7576,8.8495,8.9376,9.0201,9.1095,9.121,9.121,9.121,9.121,9.121,9.121,9.121,9.121,9.121,9.121,9.121,9.121,9.121,9.121,9.121,9.121,9.1139,9.0963,9.0935,9.0827,9.0638,9.0614,9.0583,9.0583,9.0583,9.0583,9.0506,8.9561,8.9141,8.9141,8.9141,8.9141,8.9141,8.9141,8.9141,8.9141,0.0,0.0,7.7266,7.734,7.7259,7.7379,7.8021,7.787,7.7942,0.0,7.865,7.8638,7.8638,7.8715,7.9092,7.9892,7.9931,8.0285,8.1054,8.1093,8.1093,8.1093,8.1093,8.1093,8.1093,8.1093,8.1093,8.1093,8.1093,8.1093,8.1093,8.1093,8.1093,8.1093,8.1093,8.1093,8.1093,8.1093,8.1093,8.1093,8.1093,8.1516,0.0,0.0,8.2939,0.0,8.3632,8.3666,8.3623,8.3305,8.279,0.0,0.0,0.0,0.0,0.0,8.2492,0.0,0.0,0.0,0.0,0.0,0.0,0.0,8.4025,8.4392,8.4726,8.4952,8.5228,8.5471,8.557,8.5619,8.5667,8.5751,8.644,8.7262,8.8197,8.9131,9.0068,9.0923,9.1047,9.1095,9.121,9.121,9.121,9.121,9.121,9.121,9.121,9.121,9.121,9.121,9.121,9.121,9.121,9.121,9.1112,9.0906,9.0906,9.0798,9.0583,9.0583,9.0583,9.0583,9.0583,9.0583,9.0583,9.0583,9.0583,9.0583,9.0583,9.0583,9.0583,9.0583,9.0583,9.0583,0.0,7.8141,7.8349,7.9013,7.8942,7.8833,7.8884,7.8647,7.852,7.8623,7.9145,7.9554,7.9554,8.0169,8.0669,8.0823,8.0862,8.0939,8.1093,8.1093,8.1093,8.1093,8.1093,8.1093,8.1093,8.1093,8.1093,8.1093,8.1093,8.1093,8.1093,8.1093,8.1093,8.1093,8.1093,8.1093,8.1093,8.1093,8.1093,8.1093,8.1093,0.0,8.1477,8.2832,8.3447,8.3731,8.4907,8.5335,8.5271,0.0,8.3388,8.2008,0.0,0.0,0.0,0.0,0.0,0.0,0.0,0.0,0.0,0.0,0.0,0.0,8.3401,8.3682,8.4001,8.4318,8.4618,8.487,8.4968,8.5196,8.5383,8.5479,8.5752,8.6317,8.7253,8.8197,8.9096,8.9988,9.0119,9.0432,9.1133,9.121,9.121,9.121,9.121,9.121,9.121,9.121,9.121,9.121,9.121,9.121,9.121,9.121,9.1112,9.0906,9.0906,9.0798,9.0583,9.0583,9.0583,9.0583,9.0583,9.0583,9.0583,9.0583,9.0583,9.0583,9.0583,9.0583,9.0583,9.0583,9.0583,9.0583,7.8964,7.9014,7.9091,7.9424,7.9349,7.9315,7.9598,7.9462,7.9425,7.9814,8.0192,8.0439,8.0439,8.0823,8.1093,8.1093,8.1093,8.1093,0.0,8.1093,8.1093,8.1093,8.1093,8.1093,8.1093,8.1093,8.1093,8.1093,8.1093,8.1093,8.1093,8.1093,8.1093,8.1093,8.1093,8.1093,8.1093,8.1093,8.1323,8.167,8.1199,0.0,8.1798,8.2979,8.3725,8.428,8.54,8.5676,8.5483,8.4968,8.3876,0.0,0.0,8.2802,8.2234,0.0,8.2659,8.2643,0.0,0.0,0.0,8.246,0.0,0.0,0.0,8.3223,8.3485,8.3706,8.3936,8.4167,8.4441,8.4679,8.4957,8.5272,8.5449,8.5742,8.6231,8.7177,8.8132,8.903,8.919,8.958,9.047,9.0547,9.074,9.1171,9.121,9.121,9.121,9.121,9.121,9.121,9.121,9.121,9.121,9.121,9.1112,9.0906,9.0906,9.0798,9.0583,9.0583,9.0583,9.0583,9.0583,9.0583,9.0583,9.0583,9.0583,9.0583,9.0583,9.0583,9.0583,9.0583,9.0583,9.0583,7.9965,7.9878,7.9811,7.9856,7.9698,7.9747,8.0312,8.0243,8.0353,8.1023,8.1093,8.1093,8.1093,8.1093,0.0,0.0,8.1093,8.1093,0.0,0.0,8.1093,8.1093,8.1093,8.1093,8.1093,8.1093,8.1093,8.1093,8.1093,8.1093,8.1093,8.1093,8.1093,8.1093,8.1093,8.1093,8.1093,8.1077,8.1531,8.2215,0.0,8.1623,8.2493,8.3243,8.4028,8.4797,8.5563,8.5609,8.528,8.4833,0.0,8.373,8.315,8.2752,0.0,0.0,0.0,0.0,0.0,0.0,0.0,0.0,0.0,8.2391,0.0,0.0,0.0,8.3165,8.3287,8.3541,8.3947,8.4205,8.4491,8.5006,8.5251,8.5398,8.5461,8.626,8.7148,8.8111,8.8253,8.8605,8.9577,8.9816,9.0278,9.1133,9.121,9.121,9.121,9.121,9.121,9.121,9.121,9.121,9.121,9.121,9.1112,9.0906,9.0906,9.0798,9.0583,9.0583,9.0583,9.0583,9.0561,9.0551,9.0551,9.053,9.0519,9.053,9.0572,9.0583,9.0583,9.0583,9.0572,9.0551,8.0901,8.0667,8.0791,8.1411,8.1302,8.1137,8.1178,8.106,8.0985,8.1093,8.1093,8.1093,8.1093,0.0,0.0,0.0,0.0,0.0,8.1093,0.0,0.0,8.1093,8.1093,8.1093,8.1093,8.1093,8.1093,8.1093,8.1093,8.1093,8.1093,8.1093,8.1093,8.1093,8.1093,8.1093,8.1085,8.0975,8.1434,8.2185,8.1899,8.2385,0.0,8.4155,8.4565,8.4806,8.568,8.576,8.5441,0.0,8.4477,8.3817,0.0,8.3046,0.0,0.0,0.0,0.0,0.0,0.0,0.0,0.0,8.2203,0.0,0.0,0.0,8.2534,8.2742,0.0,8.3062,8.3344,0.0,0.0,8.4599,8.4984,8.5272,8.5398,8.5586,8.6078,8.7119,8.7325,8.776,8.8748,8.9479,9.0278,9.1133,9.121,9.121,9.121,9.121,9.121,9.121,9.121,9.121,9.121,9.121,9.1112,9.0906,9.0906,9.0798,9.0583,9.0583,9.0583,9.0583,9.0487,9.0405,9.0405,9.0295,9.025,9.0273,9.0508,9.0583,9.0583,9.0583,9.053,9.0405,8.1739,8.1532,8.1474,8.1708,8.1558,8.1355,8.1249,8.1169,8.1093,8.1093,8.1093,8.1093,0.0,0.0,0.0,0.0,0.0,8.1093,0.0,0.0,0.0,0.0,8.1093,0.0,8.1093,8.1093,8.1093,8.1093,8.1093,8.1093,8.1093,8.1093,8.1093,8.1093,8.1093,8.1093,8.1123,8.1497,8.2147,8.2937,0.0,8.395,0.0,8.4508,8.4822,8.538,8.5825,8.5815,8.5551,0.0,8.4573,0.0,0.0,0.0,0.0,0.0,0.0,0.0,0.0,0.0,0.0,0.0,0.0,0.0,0.0,0.0,8.2316,0.0,0.0,0.0,0.0,0.0,0.0,0.0,8.4527,8.4859,8.5127,8.5138,8.5401,8.6193,8.6306,8.6926,8.8422,8.9367,9.0278,9.1133,9.121,9.121,9.121,9.121,9.121,9.121,9.121,9.121,9.121,9.121,9.1112,9.0906,9.0906,9.0798,9.0583,9.0519,9.0497,9.0487,9.0262,9.0182,9.0171,8.9923,8.9887,8.9958,9.002,9.0171,9.0351,9.0351,9.0284,9.0182,8.2194,0.0,0.0,8.1703,8.1514,8.1319,8.1207,8.1131,8.1093,8.1093,8.1093,0.0,8.1093,8.1093,0.0,0.0,8.1093,8.1093,0.0,0.0,8.1093,0.0,0.0,0.0,0.0,8.1093,8.1093,8.1093,8.1093,8.1093,8.1093,8.1093,8.1093,8.1093,8.1323,8.1439,8.1469,8.2202,8.2996,8.3785,8.4211,8.5054,8.5991,8.5092,8.5331,8.617,8.6268,8.6341,8.6298,8.5812,8.5385,0.0,8.409,0.0,0.0,0.0,0.0,0.0,8.2267,0.0,0.0,0.0,0.0,0.0,0.0,0.0,0.0,0.0,0.0,0.0,0.0,0.0,0.0,0.0,0.0,8.4318,8.4633,8.4706,8.4924,8.5521,8.5609,8.6269,8.7903,8.8924,8.9832,9.0743,9.1038,9.121,9.121,9.121,9.121,9.121,9.121,9.1192,9.1166,9.1166,9.1018,9.0789,9.0789,9.0679,9.0487,9.034,9.0295,9.0273,8.9958,8.9814,8.9715,8.9476,8.9399,8.9413,8.9309,8.9452,8.974,8.9958,8.9935,8.9814,8.2196,8.2001,0.0,8.164,8.1446,8.1241,8.1124,8.1093,8.1093,8.1093,0.0,0.0,0.0,0.0,0.0,0.0,0.0,8.1093,8.1093,0.0,8.1093,0.0,0.0,8.1093,0.0,0.0,8.1093,8.1093,8.1093,8.1093,8.1093,8.1093,8.1093,8.1131,8.19,8.2247,8.2316,8.2979,8.3783,8.457,8.4376,8.5292,8.6688,0.0,8.6425,8.7081,8.7142,0.0,0.0,8.7737,8.7422,0.0,0.0,0.0,0.0,0.0,0.0,0.0,0.0,0.0,0.0,8.2186,0.0,0.0,0.0,0.0,8.2186,0.0,0.0,0.0,0.0,0.0,0.0,0.0,0.0,0.0,0.0,8.4218,8.4621,8.5259,8.5413,8.5895,8.6853,8.7801,8.8747,8.9769,9.0695,9.121,9.121,9.121,9.121,9.121,9.121,9.1127,9.1028,9.1028,9.0839,9.0499,9.0499,9.041,9.0216,9.0052,8.9994,8.9982,8.9591,8.9295,8.9111,8.8847,8.8633,8.8442,8.8427,8.8442,8.8544,8.9322,8.9528,8.9386,0.0,0.0,0.0,0.0,0.0,8.1291,8.1124,8.1093,8.1093,0.0,0.0,0.0,0.0,8.1093,8.1093,0.0,0.0,8.1093,8.1093,8.1093,0.0,0.0,0.0,8.1093,0.0,0.0,0.0,0.0,8.1093,8.1093,8.1093,8.1093,8.1362,8.19,8.217,8.2631,8.3208,8.3931,0.0,0.0,0.0,8.6825,8.7705,0.0,8.625,8.6843,8.627,8.6104,0.0,8.6483,8.6407,8.6216,8.6108,8.5937,8.5633,8.4912,8.4549,0.0,0.0,0.0,8.3801,8.3801,0.0,0.0,0.0,0.0,0.0,0.0,0.0,0.0,0.0,0.0,0.0,0.0,0.0,0.0,0.0,8.3669,8.3843,8.395,8.4545,8.5344,8.635,8.7429,8.8529,8.9591,9.0528,9.11,9.1201,9.121,9.121,9.121,9.1109,9.1028,9.0925,9.0751,9.0558,9.029,9.0083,8.992,8.9778,8.9528,8.9374,8.9269,8.8917,8.8676,8.8479,8.8225,8.8118,8.8127,8.8056,8.805,8.8203,8.8639,8.8724,8.8538,8.212,0.0,0.0,0.0,0.0,8.1234,8.1116,8.1093,0.0,0.0,8.1093,0.0,8.1093,0.0,8.1093,0.0,8.1093,8.1093,8.1093,8.1093,0.0,8.1093,8.1093,0.0,0.0,0.0,0.0,0.0,0.0,8.1093,8.1093,8.14,8.1785,8.2324,8.2939,8.3555,8.4132,8.4848,8.5151,0.0,0.0,8.7753,0.0,0.0,8.6842,8.7154,0.0,8.6305,8.6412,8.7002,8.7072,8.688,8.6865,8.6757,8.6455,8.579,8.5442,8.5224,8.5037,8.4891,0.0,8.4792,8.4571,0.0,8.4719,0.0,0.0,0.0,0.0,0.0,0.0,0.0,0.0,0.0,0.0,0.0,0.0,8.3186,8.3258,8.3179,8.3883,8.4678,8.5425,8.6877,8.8114,8.891,9.0225,9.1037,9.1103,9.1139,9.1082,9.1018,9.0953,9.0828,9.0648,9.0394,9.0163,8.9911,8.9603,8.9464,8.9397,8.9095,8.8903,8.8733,8.8451,8.8195,8.7941,8.773,8.7632,8.7628,8.7551,8.7583,8.7693,8.8066,8.8066,8.7868,0.0,0.0,0.0,8.1513,8.1267,0.0,0.0,0.0,8.1093,0.0,8.1131,8.117,8.117,8.1208,8.1208,8.1208,8.1208,0.0,8.1208,8.1208,0.0,0.0,8.1208,8.1208,8.1208,0.0,0.0,0.0,0.0,8.1208,8.1246,8.2016,8.2401,8.2516,8.417,8.4931,8.5008,8.5732,8.6129,8.6227,8.6795,8.8059,8.9466,8.8514,8.813,8.8061,8.7849,8.8071,8.8529,8.9137,8.9218,8.8856,8.7904,8.7581,8.7332,8.611,8.5737,8.5661,8.5334,8.5239,8.5239,8.5239,8.4669,0.0,0.0,0.0,8.4284,0.0,0.0,0.0,0.0,0.0,0.0,0.0,0.0,0.0,0.0,0.0,8.2904,8.2904,8.3395,8.3865,8.4166,8.6083,8.7452,8.7769,8.9707,9.0915,9.0858,9.0953,9.0867,9.0699,9.0689,9.0496,9.0182,8.9968,8.9678,8.9359,8.9163,8.9013,8.8964,8.8757,8.8598,8.8421,8.8118,8.7789,8.7464,8.7335,8.7186,8.6978,8.6978,8.6978,8.7046,8.7567,8.7551,8.7288,8.2056,8.1752,8.1459,0.0,8.1161,8.1093,0.0,0.0,0.0,0.0,8.1631,8.1977,8.1977,8.2554,8.2947,8.2947,8.2947,0.0,0.0,0.0,0.0,8.2947,8.2947,8.2947,8.2947,8.2947,0.0,8.2947,0.0,8.2947,8.2947,8.3178,8.3593,8.4239,8.47,8.5239,8.5854,8.6684,8.7752,8.8888,8.9012,8.9687,9.0512,0.0,8.9189,8.8965,8.7938,8.7546,8.7561,8.8164,8.8267,8.8207,8.8513,8.8565,8.8414,8.806,8.7794,8.7584,8.7508,8.7384,8.7253,8.7253,8.7048,8.6841,0.0,0.0,0.0,0.0,0.0,0.0,0.0,0.0,0.0,0.0,0.0,0.0,0.0,0.0,0.0,8.2758,0.0,8.3338,8.3852,8.526,8.6535,8.749,8.8852,8.986,9.0561,9.063,9.0541,9.0404,9.0356,9.0133,8.9665,8.9323,8.9044,8.8861,8.8473,8.8324,8.8488,8.8308,8.8078,8.7757,8.7676,8.7431,8.7132,8.7081,8.7066,8.6978,8.6978,8.6978,8.6995,8.7149,8.7132,8.71,8.1969,0.0,0.0,8.1693,0.0,0.0,8.1208,8.14,0.0,8.1631,8.2362,0.0,8.2862,8.3293,8.3601,8.3601,8.3601,0.0,8.3601,0.0,0.0,8.3601,8.3601,8.3601,8.3601,8.3601,0.0,8.3601,0.0,8.3601,8.3601,8.3978,8.4439,8.4931,8.5277,8.5901,8.6748,8.7594,8.8709,8.9885,8.9844,9.026,0.0,9.0378,9.0158,8.9994,8.92,8.844,8.7873,8.8507,8.8589,8.8544,8.8996,8.9092,8.9023,8.9023,8.8875,8.8748,8.8748,8.8619,8.8465,8.8465,8.8063,8.7748,8.8105,8.7796,8.739,0.0,0.0,0.0,0.0,0.0,0.0,0.0,0.0,0.0,0.0,0.0,0.0,0.0,8.3697,8.3886,8.4732,8.5577,8.6543,8.7709,8.8813,8.9668,9.0174,9.023,9.0152,8.992,8.9887,8.9616,8.9152,8.8819,8.8733,8.8891,8.8221,8.817,8.8598,8.8248,8.7874,8.7514,8.7514,8.7298,8.6978,8.6978,8.6978,8.6978,8.6978,8.6978,8.6978,8.6978,8.6978,8.6978,8.2201,0.0,0.0,0.0,0.0,0.0,0.0,8.2016,0.0,8.2477,0.0,8.3755,8.3755,8.387,8.3947,8.3947,0.0,8.3947,8.3947,8.3947,8.3947,8.3947,8.3947,8.3947,8.3947,8.3947,0.0,0.0,0.0,8.3947,8.3947,8.4709,8.5047,8.5085,8.5901,8.6824,8.7786,8.8517,8.9325,9.0077,9.0006,9.0393,9.1028,9.0944,9.0954,9.0935,9.0789,8.9946,8.8991,8.9513,8.9566,8.9389,8.9389,8.9464,8.9578,8.9578,8.9653,8.9729,8.9729,8.9651,8.9546,8.9557,8.8829,8.8284,8.9006,8.8414,8.791,8.8621,8.8526,8.8286,0.0,0.0,0.0,0.0,0.0,0.0,0.0,0.0,0.0,0.0,0.0,0.0,8.5949,8.6335,8.6959,8.8102,8.9086,8.9637,8.9716,8.9764,8.9654,8.932,8.932,8.9105,8.8671,8.8473,8.8639,8.9151,8.8291,8.8285,8.8947,8.8329,8.781,8.7464,8.7464,8.7281,8.6978,8.6978,8.6978,8.6978,8.6978,8.6978,8.6978,8.6978,8.6978,8.6978,0.0,0.0,0.0,0.0,0.0,8.3486,8.3216,8.3293,8.337,8.337,8.4132,8.467,8.467,8.5247,8.567,8.567,8.567,0.0,0.0,0.0,0.0,8.567,8.567,8.567,8.567,8.567,8.567,0.0,0.0,0.0,8.567,8.5824,8.5901,8.594,8.6786,8.8017,8.947,8.9624,9.0201,9.097,9.0962,9.103,9.1145,9.1166,9.1157,9.1148,9.1009,9.0606,9.0181,9.0192,9.0068,8.9965,8.9965,9.047,9.1052,9.1052,9.1508,9.2015,9.2015,9.2003,9.1955,9.191,9.1648,9.1394,9.1467,9.0661,8.9905,9.0056,8.9292,8.8642,8.8561,0.0,0.0,0.0,0.0,0.0,0.0,0.0,0.0,0.0,0.0,8.4793,8.5841,8.6167,8.6797,8.7944,8.8187,8.8553,8.9256,8.92,8.9064,8.8819,8.8804,8.8685,0.0,0.0,8.8933,8.9012,8.8589,8.8542,8.8786,8.7986,8.7518,8.7355,8.7355,8.72,8.6978,8.6978,8.6978,8.6978,8.6978,8.6978,8.6978,8.6978,8.6978,8.6978,0.0,0.0,0.0,0.0,0.0,0.0,0.0,8.6256,8.5909,8.5016,8.567,8.6363,8.6824,8.7209,8.744,8.744,8.744,8.744,8.744,8.744,8.744,8.744,8.744,0.0,8.744,8.744,8.744,8.744,0.0,0.0,8.744,8.6978,8.7017,8.7478,8.8325,8.9124,8.9932,9.0393,9.0816,9.121,9.121,9.121,9.121,9.121,9.121,9.124,9.1657,9.1662,9.1519,9.1322,9.1535,9.1799,9.1799,9.2115,9.2459,9.2459,9.2727,9.2994,9.2994,9.2951,9.2897,9.2869,9.2684,9.2483,9.2461,9.1961,9.1534,9.1496,9.0974,9.0295,8.9686,8.8918,0.0,0.0,0.0,0.0,0.0,0.0,0.0,0.0,0.0,0.0,0.0,0.0,8.7424,8.7614,8.8003,8.8378,8.8828,8.8794,8.8642,8.8495,8.8495,0.0,8.8208,0.0,8.8442,8.8869,8.8213,8.8166,8.8619,8.7833,8.7452,8.7305,8.7305,8.7203,8.6978,8.6978,8.6978,8.6978,8.6978,8.6978,8.6978,8.6978,8.6978,8.6978,0.0,8.5899,0.0,0.0,8.7786,8.8718,8.8718,8.8718,8.8218,8.6824,8.7248,8.7948,8.8641,8.8718,8.8718,8.8718,8.8718,8.8718,8.8718,8.8718,8.8718,8.8718,8.8718,8.8718,8.8718,8.8718,8.8718,0.0,0.0,0.0,8.8679,8.7987,8.8132,8.8979,8.9624,9.0009,9.0201,0.0,9.121,9.121,9.121,9.121,9.121,9.121,9.1325,9.1556,9.2249,9.271,9.3,9.2843,9.3093,9.3448,9.3448,9.3601,9.3755,9.3755,9.387,9.4023,9.4023,9.3926,9.3856,9.3826,9.3653,9.3475,9.3453,9.3212,9.2985,9.2919,9.2625,9.2026,9.1037,8.9923,0.0,0.0,0.0,0.0,0.0,0.0,0.0,0.0,0.0,0.0,8.7897,8.7987,8.7749,8.722,8.7973,8.8473,8.8473,8.8444,8.8369,8.8263,8.8247,8.8223,8.8084,0.0,8.8125,8.8773,8.7908,8.7806,8.8395,8.77,8.7352,8.7254,8.7254,8.7169,8.6978,8.6978,8.6978,8.6978,8.6978,8.6978,8.6978,8.6978,8.6978,8.6978,0.0,0.0,0.0,0.0,0.0,8.8718,8.8718,8.8718,8.8641,8.8487,8.8526,8.8603,8.8679,8.8718,8.8718,8.8718,8.8718,8.8718,8.8718,8.8718,8.8718,8.8718,8.8718,8.8718,8.8718,8.8718,8.8718,0.0,0.0,8.8641,0.0,8.8641,8.9017,8.9778,8.9855,9.0355,0.0,9.1171,9.121,9.121,9.121,9.121,9.121,9.121,9.171,9.2402,9.2479,9.348,9.4758,9.474,9.4269,9.3683,9.3683,9.4231,9.4846,9.4846,9.5414,9.6029,9.6029,9.602,9.5992,9.5867,9.5828,9.575,9.566,9.4934,9.4314,9.4303,9.3481,9.2634,9.2375,9.1383,9.0547,0.0,0.0,0.0,0.0,0.0,0.0,0.0,0.0,0.0,0.0,8.6963,8.6926,8.6867,8.7748,8.8323,8.8323,8.8223,0.0,8.8115,8.8115,8.81,8.8084,8.84,8.8662,8.8773,8.8324,8.8168,8.8204,8.7396,8.7029,8.7049,8.7049,8.6995,8.6978,8.6978,8.6978,8.6978,8.6978,8.6978,8.6978,8.6978,8.6978,8.6978,0.0,0.0,0.0,0.0,0.0,0.0,0.0,9.021,9.021,9.021,8.9748,8.9633,9.0133,9.021,9.021,9.021,9.021,9.021,9.021,9.021,9.021,9.021,9.021,9.021,9.021,9.021,9.021,0.0,0.0,0.0,0.0,0.0,0.0,0.0,0.0,9.0855,9.121,9.121,9.121,9.121,9.121,9.121,9.121,9.121,9.1441,9.1787,9.2326,9.2941,9.3566,9.4066,9.4672,9.5249,9.5249,9.5518,9.5788,9.5788,9.6019,9.6288,9.6288,9.6288,9.6279,9.6232,9.6222,9.6213,9.6136,9.5867,9.555,9.549,9.4579,9.3786,9.3726,9.274,9.1897,0.0,0.0,0.0,0.0,0.0,0.0,0.0,0.0,0.0,0.0,0.0,0.0,0.0,0.0,0.0,0.0,0.0,0.0,8.8084,0.0,8.852,8.7927,8.8479,8.8481,8.7885,8.7593,8.7472,8.7472,8.7124,8.6978,8.6978,8.6978,8.6978,8.6978,8.6978,8.6978,8.6978,8.6978,8.6978,8.6978,8.6978,8.6978,8.6978,8.9528,0.0,9.0278,0.0,9.0778,9.121,9.121,9.121,9.121,9.121,9.0663,9.0509,9.1133,9.121,9.121,9.121,9.121,9.121,9.121,9.121,9.121,9.121,9.121,0.0,9.121,9.121,9.121,9.121,9.0586,0.0,0.0,0.0,0.0,0.0,9.121,9.121,9.121,9.121,9.121,9.121,9.121,9.121,9.121,9.121,9.1364,9.1672,9.2287,9.2633,9.2941,9.3518,9.4518,9.5557,9.5557,9.5711,9.5903,9.5903,9.6095,9.6288,9.6288,9.6288,9.6288,9.6288,9.6288,9.6288,9.6288,9.6288,9.6269,9.6194,9.5568,9.5026,9.4916,9.3972,9.313,9.2917,0.0,0.0,0.0,0.0,0.0,0.0,0.0,8.8716,8.8493,8.8455,0.0,0.0,0.0,0.0,0.0,0.0,0.0,0.0,0.0,0.0,8.8498,8.8705,8.8428,8.7636,8.7228,8.6978,8.6978,8.6978,8.6978,8.6978,8.6978,8.6978,8.6978,8.6978,8.6978,8.6978,8.6978,8.6978,8.6978,8.6978,8.6978,8.6978,9.1206,9.1171,9.1171,9.1171,9.121,9.121,9.121,9.121,9.121,9.121,9.121,9.121,9.121,9.121,9.121,9.121,9.121,9.121,9.121,9.121,9.121,0.0,0.0,9.121,9.121,9.121,9.121,9.121,0.0,0.0,9.121,0.0,9.121,9.121,9.121,9.121,9.121,9.121,9.121,9.121,9.121,9.121,9.121,9.121,9.1748,9.2479,9.2479,9.3018,9.3672,9.371,9.371,9.371,9.371,9.4335,9.5027,9.5027,9.5634,9.6288,9.6288,9.6288,9.6288,9.6288,9.6288,9.6288,9.6288,9.6288,9.6288,9.6279,9.6279,9.6184,9.5941,9.4996,9.4189,9.3853,0.0,0.0,0.0,0.0,0.0,0.0,9.0668,9.0164,8.9347,8.9273,0.0,0.0,0.0,0.0,0.0,0.0,0.0,8.9273,9.0053,0.0,9.0165,8.9259,8.8686,8.8463,8.7485,8.6978,8.6978,8.6978,8.6978,8.6978,8.6978,8.6978,8.6978,8.6978,8.6978,8.6978,8.6978,8.6978,8.6978,8.6978,8.6978,8.6978,9.1227,9.1672,9.2095,9.2095,9.2556,9.2903,9.2903,9.2903,9.2903,9.2903,9.2903,9.271,9.2133,9.1556,9.121,0.0,9.121,9.121,0.0,9.121,9.121,9.121,9.121,9.121,9.121,9.121,9.121,9.121,0.0,0.0,0.0,9.121,9.121,9.121,9.121,9.121,9.121,9.121,9.121,9.121,9.121,9.121,9.1248,9.1864,9.2249,9.2556,9.3133,9.348,9.371,9.371,9.371,9.371,9.371,9.3903,9.4104,9.4104,9.4287,9.4518,9.4518,9.4518,9.4518,9.4518,9.498,9.5403,9.5403,9.5865,9.6288,9.6288,9.6288,9.6222,9.5951,9.5455,9.4956,9.449,9.3823,0.0,0.0,0.0,0.0,0.0,9.0642,9.0387,9.0127,9.0127,0.0,0.0,0.0,0.0,0.0,0.0,0.0,0.0,9.0794,0.0,9.0056,8.9629,8.9052,8.8293,8.7416,8.6978,8.6978,8.6978,8.6978,8.6978,8.6978,8.6978,8.6978,8.6978,8.6978,8.6978,8.6978,8.6978,8.6978,8.6978,8.6978,8.6978,9.2142,9.2595,9.2941,9.2941,9.3364,9.371,9.371,9.371,9.371,9.371,9.371,9.3518,9.3018,9.2441,0.0,9.1248,9.121,9.121,9.121,9.121,9.121,9.121,9.121,9.121,9.121,9.121,0.0,9.121,9.121,9.121,9.121,9.121,9.121,9.121,9.1556,9.171,9.171,9.2018,9.2133,9.2133,9.2133,9.2133,9.221,9.2749,9.2941,9.3018,9.3518,9.371,9.371,9.371,9.371,9.371,9.371,9.371,9.3749,9.4104,9.4403,9.4672,9.4672,9.4672,9.4672,9.4672,9.5095,9.5489,9.5489,9.5903,9.6288,9.6288,9.626,9.6127,9.588,9.5577,9.5186,9.4653,9.4235,9.3729,9.2953,0.0,0.0,0.0,0.0,0.0,0.0,9.0945,9.0945,0.0,0.0,0.0,0.0,0.0,9.0467,9.0439,9.0823,9.0678,8.987,8.9472,8.8875,8.8206,8.7399,8.6978,8.6978,8.6978,8.6978,8.6978,8.6978,8.6978,8.6978,8.6978,8.6978,8.6978,8.6978,8.6978,8.6978,8.6978,8.6978,8.6978,9.371,9.3749,9.3796,9.3796,9.3826,9.3864,9.3864,9.3864,9.3864,9.3864,9.3864,9.3864,9.3787,9.3796,9.3133,9.1518,0.0,0.0,9.1364,9.1364,9.1364,9.1364,9.1364,9.1364,9.1364,9.1364,9.1364,9.1364,9.1364,9.1364,9.1364,9.1364,9.1364,9.1402,9.221,9.2595,9.2633,9.3364,9.371,9.371,9.371,9.371,9.371,9.3749,9.3796,9.3787,9.3864,9.3864,9.3864,9.3864,9.3864,9.3864,9.3864,9.3864,9.4027,9.472,9.548,9.6134,9.6134,9.6134,9.6134,9.6134,9.6172,9.6249,9.6288,9.6288,9.6279,9.6279,9.6194,9.6019,9.5734,9.5364,9.4971,9.437,9.4033,9.3762,9.3501,0.0,0.0,0.0,0.0,0.0,9.1873,9.1725,9.1688,0.0,0.0,0.0,0.0,0.0,9.0365,9.0292,9.0296,9.0093,8.9679,8.8888,8.8343,8.8096,8.7362,8.6978,8.6978,8.6978,8.6978,8.6978,8.6978,8.6978,8.6978,8.6978,8.6978,8.6978,8.6978,8.6978,8.6978,8.6978,8.6978,8.6978,9.371,9.4258,9.4681,9.4681,9.5249,9.5672,9.5672,9.5672,9.5672,9.5672,9.5672,9.5441,9.4758,9.4681,9.4258,9.321,9.3095,9.3095,9.3095,9.3095,9.3095,9.3095,9.3095,9.3095,9.3095,9.3095,9.3095,9.3095,9.3095,9.3095,9.3095,9.3095,9.3095,9.3133,9.3326,9.3403,9.3441,9.3633,9.371,9.371,9.371,9.371,9.3749,9.445,9.4681,9.4797,9.5441,9.5672,9.5672,9.5672,9.5672,9.5672,9.5672,9.5672,9.548,9.4326,9.4134,9.4326,9.4326,9.4326,9.4326,9.4326,9.4826,9.548,9.6134,9.6288,9.626,9.6184,9.6058,9.5828,9.5402,9.497,9.4481,9.3917,9.3581,9.3322,9.3151,9.3086,0.0,0.0,9.3021,9.2914,9.2691,9.2096,9.1688,0.0,0.0,9.0573,9.0759,8.9887,8.9658,9.0276,9.0143,8.9938,8.9679,8.875,8.7965,8.7288,8.7088,8.6978,8.6978,8.6978,8.6978,8.6978,8.6978,8.6978,8.6978,8.6978,8.6978,8.6978,8.6978,8.6978,8.6978,8.6978,8.6978,8.6978,9.4903,9.5249,9.5595,9.5595,9.598,9.6288,9.6288,9.6288,9.6288,9.6288,9.6288,9.6134,9.5634,9.5595,9.5403,9.4941,9.4172,9.371,9.371,9.371,9.371,9.371,9.371,9.371,9.371,9.371,9.371,9.371,9.371,9.371,9.371,9.371,9.371,9.371,9.4104,9.4296,9.4335,9.4711,9.4903,9.4903,9.4903,9.4903,9.4941,9.5403,9.5595,9.5672,9.6134,9.6288,9.6288,9.6288,9.6288,9.6288,9.6288,9.6288,9.6095,9.5172,9.4903,9.4903,9.4903,9.4903,9.4903,9.4903,9.5249,9.5711,9.6211,9.6251,9.6155,9.6049,9.5828,9.5571,9.5179,9.4677,9.4166,9.3762,9.3432,9.2997,9.25,9.2393,9.2282,9.191,9.1873,9.1873,9.1873,9.1428,9.1167,9.1167,9.0424,0.0,8.9942,8.9002,8.8799,8.9584,8.9069,8.8662,8.8473,8.7928,8.7435,8.6978,8.6978,8.6978,8.6978,8.6978,8.6978,8.6978,8.6978,8.6978,8.6978,8.6978,8.6978,8.6978,8.6978,8.6978,8.6978,8.6978,8.6978,8.6978,9.6288,9.6288,9.6288,9.6288,9.6288,9.6288,9.6288,9.6288,9.6288,9.6288,9.6288,9.6288,9.6288,9.6288,9.6288,9.6288,9.4941,9.4095,9.4095,9.4095,9.4095,9.4095,9.4095,9.4095,9.4095,9.4095,9.4095,9.4095,9.4095,9.4095,9.4095,9.4095,9.4095,9.4134,9.4874,9.522,9.5258,9.598,9.6288,9.6288,9.6288,9.6288,9.6288,9.6288,9.6288,9.6288,9.6288,9.6288,9.6288,9.6288,9.6288,9.6288,9.6288,9.6288,9.6288,9.6288,9.6288,9.6288,9.6288,9.6288,9.6288,9.6288,9.6288,9.6288,9.6288,9.6213,9.6068,9.591,9.5615,9.5274,9.4958,9.4424,9.3932,9.3657,9.3385,9.2854,9.2001,0.0,9.165,9.0945,9.0759,9.0685,9.0685,9.0462,9.0313,9.0313,8.957,8.9124,8.9124,8.8297,8.8046,8.8601,8.7737,8.722,8.6995,8.6978,8.6978,8.6978,8.6978,8.6978,8.6978,8.6978,8.6978,8.6978,8.6978,8.6978,8.6978,8.6978,8.6978,8.6978,8.6978,8.6978,8.6978,8.6978,8.6978,8.6978,9.6288,9.6288,9.6288,9.6288,9.6288,9.6288,9.6288,9.6288,9.6288,9.6288,9.6288,9.6288,9.6288,9.6288,9.6288,9.6288,9.6057,9.5903,9.5903,9.5903,9.5903,9.5903,9.5903,9.5903,9.5903,9.5903,9.5903,9.5903,9.5903,9.5903,9.5903,9.5903,9.5903,9.5903,9.6057,9.6095,9.6095,9.6249,9.6288,9.6288,9.6288,9.6288,9.6288,9.6288,9.6288,9.6288,9.6288,9.6288,9.6288,9.6288,9.6288,9.6288,9.6288,9.6288,9.6288,9.6288,9.6288,9.6288,9.6288,9.6288,9.6288,9.6288,9.6288,9.6288,9.6288,9.6213,9.6039,9.5759,9.5482,9.507,9.4519,9.4047,9.3657,9.3354,9.313,9.2984,9.2819,0.0,9.2728,9.2616,9.1948,9.1502,9.1502,9.0276,8.9496,8.9496,8.8716,8.8285,8.8285,8.8001,8.775,8.7698,8.7442,8.722,8.6995,8.6978,8.6978,8.6978,8.6978,8.6978,8.6978,8.6978,8.6978,8.6978,8.6978,8.6978,8.6978,8.6978,8.6978,8.6978,8.6978,8.6978,8.6978,8.6978,8.6978,8.6978,9.6288,9.6288,9.6288,9.6288,9.6288,9.6288,9.6288,9.6288,9.6288,9.6288,9.6288,9.6288,9.6288,9.6288,9.6288,9.6288,9.6288,9.6288,9.6288,9.6288,9.6288,9.6288,9.6288,9.6288,9.6288,9.6288,9.6288,9.6288,9.6288,9.6288,9.6288,9.6288,9.6288,9.6288,9.6288,9.6288,9.6288,9.6288,9.6288,9.6288,9.6288,9.6288,9.6288,9.6288,9.6288,9.6288,9.6288,9.6288,9.6288,9.6288,9.6288,9.6288,9.6288,9.6288,9.6288,9.6288,9.6288,9.6288,9.6288,9.6288,9.6288,9.6288,9.6288,9.6288,9.6288,9.6213,9.6019,9.5702,9.5318,9.4883,9.4352,9.3904,9.3495,9.3243,9.3103,0.0,9.2356,9.2282,9.2133,9.1688,9.1316,9.1056,9.1056,8.9979,8.931,8.931,8.853,8.8084,8.8084,8.7927,8.7746,8.7681,8.7318,8.7081,8.6978,8.6978,8.6978,8.6978,8.6978,8.6978,8.6978,8.6978,8.6978,8.6978,8.6978,8.6978,8.6978,8.6978,8.6978,8.6978,8.6978,8.6978,8.6978,8.6978,8.6978,8.6978,9.6288,9.6288,9.6288,9.6288,9.6288,9.6288,9.6288,9.6288,9.6288,9.6288,9.6288,9.6288,9.6288,9.6288,9.6288,9.6288,9.6288,9.6288,9.6288,9.6288,9.6288,9.6288,9.6288,9.6288,9.6288,9.6288,9.6288,9.6288,9.6288,9.6288,9.6288,9.6288,9.6288,9.6288,9.6288,9.6288,9.6288,9.6288,9.6288,9.6288,9.6288,9.6288,9.6288,9.6288,9.6288,9.6288,9.6288,9.6288,9.6288,9.6288,9.6288,9.6288,9.6288,9.6288,9.6288,9.6288,9.6288,9.6288,9.6288,9.6288,9.6288,9.6288,9.6288,9.6288,9.6288,9.6155,9.5979,9.5664,9.5213,9.4704,9.4213,9.377,9.3423,9.3179,0.0,9.2765,9.2096,9.1985,9.1762,9.113,9.0907,9.0796,9.0796,9.0053,8.957,8.957,8.9013,8.8641,8.8641,8.8329,8.8048,8.7831,8.7318,8.7066,8.6978,8.6978,8.6978,8.6978,8.6978,8.6978,8.6978,8.6978,8.6978,8.6978,8.6978,8.6978,8.6978,8.6978,8.6978,8.6978,8.6978,8.6978,8.6978,8.6978,8.6978,8.6978,9.6288,9.6288,9.6288,9.6288,9.6288,9.6288,9.6288,9.6288,9.6288,9.6288,9.6288,9.6288,9.6288,9.6288,9.6288,9.6288,9.6288,9.6288,9.6288,9.6288,9.6288,9.6288,9.6288,9.6288,9.6288,9.6288,9.6288,9.6288,9.6288,9.6288,9.6288,9.6288,9.6288,9.6288,9.6288,9.6288,9.6288,9.6288,9.6288,9.6288,9.6288,9.6288,9.6288,9.6288,9.6288,9.6288,9.6288,9.6288,9.6288,9.6288,9.6288,9.6288,9.6288,9.6288,9.6288,9.6288,9.6288,9.6288,9.6288,9.6288,9.6288,9.6288,9.6288,9.6288,9.6288,9.6098,9.5849,9.5653,9.5179,9.465,9.4018,9.3694,9.3391,9.307,0.0,0.0,9.2914,9.2914,9.2876,9.2802,9.2096,9.1613,9.1613,9.087,9.0424,9.0424,9.035,9.0313,9.0313,8.9591,8.8769,8.7831,8.7435,8.7203,8.6978,8.6978,8.6978,8.6978,8.6978,8.6978,8.6978,8.6978,8.6978,8.6978,8.6978,8.6978,8.6978,8.6978,8.6978,8.6978,8.6978,8.6978,8.6978,8.6978,8.6978,8.6978,9.6288,9.6288,9.6288,9.6288,9.6288,9.6288,9.6288,9.6288,9.6288,9.6288,9.6288,9.6288,9.6288,9.6288,9.6288,9.6288,9.6288,9.6288,9.6288,9.6288,9.6288,9.6288,9.6288,9.6288,9.6288,9.6288,9.6288,9.6288,9.6288,9.6288,9.6288,9.6288,9.6288,9.6288,9.6288,9.6288,9.6288,9.6288,9.6288,9.6288,9.6288,9.6288,9.6288,9.6288,9.6288,9.6288,9.6288,9.6288,9.6288,9.6288,9.6288,9.6288,9.6288,9.6288,9.6288,9.6288,9.6288,9.6288,9.6288,9.6288,9.6288,9.6288,9.6288,9.6269,9.6213,9.6049,9.5807,9.5414,9.5058,9.461,9.3911,9.3618,9.3391,9.3054,0.0,9.2988,9.2988,9.2988,9.2988,9.2988,9.2691,9.2505,9.2505,9.1725,9.1242,9.1242,9.0796,9.0499,9.0499,9.0202,8.9824,8.935,8.8701,8.7968,8.7203,8.7046,8.6978,8.6978,8.6978,8.6978,8.6978,8.6978,8.6978,8.6978,8.6978,8.6978,8.6978,8.6978,8.6978,8.6978,8.6978,8.6978,8.6978,8.6978,8.6978,8.6978,9.6288,9.6288,9.6288,9.6288,9.6288,9.6288,9.6288,9.6288,9.6288,9.6288,9.6288,9.6288,9.6288,9.6288,9.6288,9.6288,9.6288,9.6288,9.6288,9.6288,9.6288,9.6288,9.6288,9.6288,9.6288,9.6288,9.6288,9.6288,9.6288,9.6288,9.6288,9.6288,9.6288,9.6288,9.6288,9.6288,9.6288,9.6288,9.6288,9.6288,9.6288,9.6288,9.6288,9.6288,9.6288,9.6288,9.6288,9.6288,9.6288,9.6288,9.6288,9.6288,9.6288,9.6288,9.6288,9.6288,9.6288,9.6288,9.6288,9.6288,9.6288,9.6288,9.626,9.6213,9.6078,9.588,9.5588,9.5129,9.4781,9.437,9.3732,9.3495,9.3328,9.3037,9.2988,9.2988,9.2988,9.2988,9.2988,9.2988,9.2988,9.2988,9.2988,9.2468,9.2096,9.2096,9.1613,9.1167,9.0907,9.087,9.071,9.0358,8.9753,8.898,8.8179,8.746,8.7046,8.6978,8.6978,8.6978,8.6978,8.6978,8.6978,8.6978,8.6978,8.6978,8.6978,8.6978,8.6978,8.6978,8.6978,8.6978,8.6978,8.6978,8.6978,8.6978,9.6288,9.6288,9.6288,9.6288,9.6288,9.6288,9.6288,9.6288,9.6288,9.6288,9.6288,9.6288,9.6288,9.6288,9.6288,9.6288,9.6288,9.6288,9.6288,9.6288,9.6288,9.6288,9.6288,9.6288,9.6288,9.6288,9.6288,9.6288,9.6288,9.6288,9.6288,9.6288,9.6288,9.6288,9.6288,9.6288,9.6288,9.6288,9.6288,9.6288,9.6288,9.6288,9.6288,9.6288,9.6288,9.6288,9.6288,9.6288,9.6288,9.6288,9.6288,9.6288,9.6288,9.6288,9.6288,9.6288,9.6288,9.6288,9.6288,9.6288,9.6279,9.6279,9.6213,9.6068,9.5931,9.5648,9.5274,9.4807,9.4373,9.3961,9.3466,9.3285,9.3146,9.3021,9.2988,9.2988,9.2988,9.2988,9.2988,9.2988,9.2988,9.2988,9.2988,9.2988,9.2988,9.2988,9.2988,9.2616,9.1762,9.1725,9.1353,9.0536,9.0374,9.0193,9.0009,8.8199,8.722,8.7014,8.6978,8.6978,8.6978,8.6978,8.6978,8.6978,8.6978,8.6978,8.6978,8.6978,8.6978,8.6978,8.6978,8.6978,8.6978,8.6978,8.6978,8.6978,9.6288,9.6288,9.6288,9.6288,9.6288,9.6288,9.6288,9.6288,9.6288,9.6288,9.6288,9.6288,9.6288,9.6288,9.6288,9.6288,9.6288,9.6288,9.6288,9.6288,9.6288,9.6288,9.6288,9.6288,9.6288,9.6288,9.6288,9.6288,9.6288,9.6288,9.6288,9.6288,9.6288,9.6288,9.6288,9.6288,9.6288,9.6288,9.6288,9.6288,9.6288,9.6288,9.6288,9.6288,9.6288,9.6288,9.6288,9.6288,9.6288,9.6288,9.6288,9.6288,9.6288,9.6288,9.6288,9.6288,9.6288,9.6288,9.6288,9.6232,9.6146,9.6146,9.6068,9.589,9.5615,9.5333,9.4983,9.4387,9.4119,9.3799,9.3332,9.3243,9.3146,9.3021,9.2988,9.2988,9.2988,9.2988,9.2988,9.2988,9.2988,9.2988,9.2988,9.2988,9.2988,9.2988,9.2988,9.2876,9.2616,9.2616,9.2505,9.2245,9.1524,9.1044,9.0858,8.9064,8.8029,8.7839,8.7288,8.6978,8.6978,8.6978,8.6978,8.6978,8.6978,8.6978,8.6978,8.6978,8.6978,8.6978,8.6978,8.6978,8.6978,8.6978,8.6978,8.6978,9.6288,9.6288,9.6288,9.6288,9.6288,9.6288,9.6288,9.6288,9.6288,9.6288,9.6288,9.6288,9.6288,9.6288,9.6288,9.6288,9.6288,9.6288,9.6288,9.6288,9.6288,9.6288,9.6288,9.6288,9.6288,9.6288,9.6288,9.6288,9.6288,9.6288,9.6288,9.6288,9.6288,9.6288,9.6288,9.6288,9.6288,9.6288,9.6288,9.6288,9.6288,9.6288,9.6288,9.6288,9.6288,9.6288,9.6288,9.6288,9.6288,9.6288,9.6288,9.6288,9.6288,9.6288,9.6288,9.6288,9.626,9.6222,9.6136,9.6029,9.5849,9.5755,9.5723,9.5604,9.5153,9.4832,9.4492,9.3946,9.3732,9.3519,9.3179,9.3114,9.3082,9.3004,9.2988,9.2988,9.2988,9.2988,9.2988,9.2988,9.2988,9.2988,9.2988,9.2988,9.2988,9.2988,9.2988,9.2988,9.2988,9.2988,9.2955,9.2888,9.2306,9.1825,9.1567,9.0172,8.9206,8.8683,8.7876,8.7472,8.7472,8.7124,8.6978,8.6978,8.6978,8.6978,8.6978,8.6978,8.6978,8.6978,8.6978,8.6978,8.6978,8.6978,8.6978,8.6978,9.6288,9.6288,9.6288,9.6288,9.6288,9.6288,9.6288,9.6288,9.6288,9.6288,9.6288,9.6288,9.6288,9.6288,9.6288,9.6288,9.6288,9.6288,9.6288,9.6288,9.6288,9.6288,9.6288,9.6288,9.6288,9.6288,9.6288,9.6288,9.6288,9.6288,9.6288,9.6288,9.6288,9.6288,9.6288,9.6288,9.6288,9.6288,9.6288,9.6288,9.6288,9.6288,9.6288,9.6288,9.6288,9.6288,9.6288,9.6288,9.6288,9.6288,9.6288,9.6288,9.6288,9.6288,9.6279,9.6269,9.6203,9.6058,9.591,9.5674,9.5421,9.5191,9.5203,9.5129,9.46,9.4249,9.3932,9.3488,9.3269,9.3163,9.3021,9.2988,9.2988,9.2988,9.2988,9.2988,9.2988,9.2988,9.2988,9.2988,9.2988,9.2988,9.2988,9.2988,9.2988,9.2988,9.2988,9.2988,9.2988,9.2988,9.2922,9.2717,9.2684,9.2513,9.2127,9.1355,9.0459,8.951,8.8683,8.828,8.8169,8.7435,8.7051,8.6978,8.6978,8.6978,8.6978,8.6978,8.6978,8.6978,8.6978,8.6978,8.6978,8.6978,8.6978,8.6978,9.6288,9.6288,9.6288,9.6288,9.6288,9.6288,9.6288,9.6288,9.6288,9.6288,9.6288,9.6288,9.6288,9.6288,9.6288,9.6288,9.6288,9.6288,9.6288,9.6288,9.6288,9.6288,9.6288,9.6288,9.6288,9.6288,9.6288,9.6288,9.6288,9.6288,9.6288,9.6288,9.6288,9.6288,9.6288,9.6288,9.6288,9.6288,9.6288,9.6288,9.6288,9.6288,9.6288,9.6288,9.6288,9.6288,9.6288,9.6288,9.6288,9.6288,9.6288,9.6288,9.6288,9.6288,9.6269,9.6155,9.6058,9.59,9.5653,9.5421,9.5117,9.4638,9.4451,9.437,9.4231,9.3975,9.3687,9.3301,9.3227,9.3163,9.3021,9.2988,9.2988,9.2988,9.2988,9.2988,9.2988,9.2988,9.2988,9.2988,9.2988,9.2988,9.2988,9.2988,9.2988,9.2988,9.2988,9.2988,9.2988,9.2988,9.2971,9.2938,9.2633,9.2427,9.2357,9.1836,9.1179,9.0317,8.951,8.883,8.8206,8.8023,8.7619,8.6978,8.6978,8.6978,8.6978,8.6978,8.6978,8.6978,8.6978,8.6978,8.6978,8.6978,8.6978,8.6978,9.6288,9.6288,9.6288,9.6288,9.6288,9.6288,9.6288,9.6288,9.6288,9.6288,9.6288,9.6288,9.6288,9.6288,9.6288,9.6288,9.6288,9.6288,9.6288,9.6288,9.6288,9.6288,9.6288,9.6288,9.6288,9.6288,9.6288,9.6288,9.6288,9.6288,9.6288,9.6288,9.6288,9.6288,9.6288,9.6288,9.6288,9.6288,9.6288,9.6288,9.6288,9.6288,9.6288,9.6288,9.6288,9.6288,9.6288,9.6288,9.6288,9.6288,9.6288,9.6288,9.6288,9.6251,9.6184,9.5951,9.5797,9.5555,9.5151,9.4845,9.4572,9.4119,9.3829,9.365,9.365,9.3565,9.3401,9.3146,9.3082,9.3103,9.3004,9.2988,9.2988,9.2988,9.2988,9.2988,9.2988,9.2988,9.2988,9.2988,9.2988,9.2988,9.2988,9.2988,9.2988,9.2988,9.2988,9.2988,9.2988,9.2988,9.2955,9.2872,9.2565,9.2338,9.225,9.1948,9.1583,9.1179,9.0354,8.973,8.9344,8.894,8.8353,8.7582,8.7582,8.7344,8.6978,8.6978,8.6978,8.6978,8.6978,8.6978,8.6978,8.6978,8.6978,8.6978,9.6288,9.6288,9.6288,9.6288,9.6288,9.6288,9.6288,9.6288,9.6288,9.6288,9.6288,9.6288,9.6288,9.6288,9.6288,9.6288,9.6288,9.6288,9.6288,9.6288,9.6288,9.6288,9.6288,9.6288,9.6288,9.6288,9.6288,9.6288,9.6288,9.6288,9.6288,9.6288,9.6288,9.6288,9.6288,9.6288,9.6288,9.6288,9.6288,9.6288,9.6288,9.6288,9.6288,9.6288,9.6288,9.6288,9.6288,9.6288,9.6288,9.6288,9.6269,9.626,9.6241,9.6117,9.5941,9.5674,9.5421,9.5117,9.4587,9.4221,9.3961,9.3687,9.3417,9.3195,9.3163,9.3163,9.313,9.3021,9.2988,9.2988,9.2988,9.2988,9.2988,9.2988,9.2988,9.2988,9.2988,9.2988,9.2988,9.2988,9.2988,9.2988,9.2988,9.2988,9.2988,9.2988,9.2988,9.2988,9.2988,9.2988,9.2922,9.2771,9.253,9.2303,9.2145,9.1912,9.1803,9.1803,9.1106,9.0739,9.0592,8.9913,8.9179,8.8426,8.8426,8.8023,8.7418,8.7418,8.7418,8.7418,8.7418,8.7308,8.7215,8.7051,8.6978,8.6978,9.6288,9.6288,9.6288,9.6288,9.6288,9.6288,9.6288,9.6288,9.6288,9.6288,9.6288,9.6288,9.6288,9.6288,9.6288,9.6288,9.6288,9.6288,9.6288,9.6288,9.6288,9.6288,9.6288,9.6288,9.6288,9.6288,9.6288,9.6288,9.6288,9.6288,9.6288,9.6288,9.6288,9.6288,9.6288,9.6288,9.6288,9.6288,9.6288,9.6288,9.6288,9.6288,9.6288,9.6288,9.6288,9.6288,9.6288,9.6288,9.6288,9.6288,9.6232,9.6107,9.5981,9.5769,9.5544,9.5333,9.497,9.4561,9.4221,9.3946,9.3672,9.337,9.3243,9.3163,9.3054,9.3021,9.3021,9.2988,9.2988,9.2988,9.2988,9.2988,9.2988,9.2988,9.2988,9.2988,9.2988,9.2988,9.2988,9.2988,9.2988,9.2988,9.2988,9.2988,9.2988,9.2988,9.2988,9.2988,9.2988,9.2988,9.2988,9.2955,9.2599,9.2409,9.2375,9.1984,9.1803,9.1803,9.1693,9.1253,9.0592,9.0482,8.9987,8.9253,8.9253,8.9179,8.9069,8.9069,8.9069,8.9069,8.9069,8.8629,8.7949,8.7234,8.6978,8.6978,9.6288,9.6288,9.6288,9.6288,9.6288,9.6288,9.6288,9.6288,9.6288,9.6288,9.6288,9.6288,9.6288,9.6288,9.6288,9.6288,9.6288,9.6288,9.6288,9.6288,9.6288,9.6288,9.6288,9.6288,9.6288,9.6288,9.6288,9.6288,9.6288,9.6288,9.6288,9.6288,9.6288,9.6288,9.6288,9.6288,9.6288,9.6288,9.6288,9.6288,9.6288,9.6288,9.6288,9.6288,9.6288,9.6288,9.6288,9.6288,9.6279,9.6222,9.6098,9.5951,9.5738,9.5522,9.5236,9.4832,9.4519,9.4166,9.371,9.3504,9.3385,9.313,9.3103,9.3086,9.3004,9.2988,9.2988,9.2988,9.2988,9.2988,9.2988,9.2988,9.2988,9.2988,9.2988,9.2988,9.2988,9.2988,9.2988,9.2988,9.2988,9.2988,9.2988,9.2988,9.2988,9.2988,9.2988,9.2988,9.2988,9.2988,9.2988,9.2988,9.2701,9.2513,9.2409,9.2109,9.1912,9.1803,9.1803,9.162,9.1253,9.1253,9.0849,9.006,9.006,8.9803,8.94,8.94,8.94,8.94,8.94,8.9179,8.8812,8.8482,8.8335,8.8335]}]]